[[{"header":{"parameterUnit":"m.s-1","parameterCategory":1,"la1":30.6,"la2":29.2853,"lo1":-89.7004,"lo2":-87.6739,"dy":0.0162,"dx":0.0183,"nx":112,"ny":82,"refTime":"2023-10-22T06:00:00:Z","depth":0,"parameterNumber":2,"parameterNumberName":"U-component_of_WINDS"},"data":[0.0,0.0,0.0,0.0,0.0,0.0,0.0,0.0,0.0,0.0,0.0,0.0,0.0,0.0,0.0,0.0,0.0,0.0,0.0,0.0,0.0,0.0,0.0,0.0,0.0,0.0,0.0,0.0,0.0,0.0,0.0,0.0,0.0,0.0,0.0,0.0,0.0,0.0,0.0,0.0,0.0,0.0,0.0,0.0,0.0,0.0,0.0,0.0,0.0,0.0,0.0,0.0,0.0,0.0,0.0,0.0,0.0,0.0,0.0,0.0,0.0,0.0,0.0,0.0,0.0,0.0,0.0,0.0,0.0,0.0,0.0,0.0,0.0,0.0,0.0,0.0,0.0,0.0,0.0,0.0,0.0,0.0,0.0,0.0,0.0,0.0,0.0,0.0,0.0,0.0,-3.1784,-3.2124,-3.1762,-3.1074,-3.0034,-3.0845,-3.1315,-3.1181,0.0,0.0,0.0,0.0,0.0,0.0,0.0,0.0,0.0,0.0,0.0,0.0,0.0,0.0,0.0,0.0,0.0,0.0,0.0,0.0,0.0,0.0,0.0,0.0,0.0,0.0,0.0,0.0,0.0,0.0,0.0,0.0,0.0,0.0,0.0,0.0,0.0,0.0,0.0,0.0,0.0,0.0,0.0,0.0,0.0,0.0,0.0,0.0,0.0,0.0,0.0,0.0,0.0,0.0,0.0,0.0,0.0,0.0,0.0,0.0,0.0,0.0,0.0,0.0,0.0,0.0,0.0,0.0,0.0,0.0,0.0,0.0,0.0,0.0,0.0,0.0,0.0,0.0,0.0,0.0,0.0,0.0,0.0,0.0,0.0,0.0,0.0,0.0,0.0,0.0,0.0,0.0,0.0,0.0,0.0,0.0,0.0,0.0,0.0,0.0,0.0,0.0,0.0,0.0,-3.1961,-3.1136,-3.0974,-3.0399,-2.9024,-2.9852,-3.0034,-2.9165,0.0,0.0,0.0,0.0,0.0,0.0,0.0,0.0,0.0,0.0,0.0,0.0,0.0,0.0,0.0,0.0,0.0,0.0,0.0,0.0,0.0,0.0,0.0,0.0,0.0,0.0,0.0,0.0,0.0,0.0,0.0,0.0,0.0,0.0,0.0,0.0,0.0,0.0,0.0,0.0,0.0,0.0,0.0,0.0,0.0,0.0,0.0,0.0,0.0,0.0,0.0,0.0,0.0,0.0,0.0,0.0,0.0,0.0,0.0,0.0,0.0,0.0,0.0,0.0,0.0,0.0,0.0,0.0,0.0,0.0,0.0,0.0,0.0,0.0,0.0,0.0,0.0,0.0,0.0,0.0,0.0,0.0,0.0,0.0,0.0,0.0,0.0,0.0,0.0,0.0,0.0,0.0,0.0,0.0,0.0,0.0,0.0,0.0,0.0,0.0,0.0,0.0,0.0,-3.1368,-3.1184,-3.0106,-3.0259,-2.9811,-2.8402,-2.9048,-2.9314,-2.8746,-2.8376,0.0,0.0,0.0,0.0,0.0,0.0,0.0,0.0,0.0,0.0,0.0,0.0,0.0,0.0,0.0,0.0,0.0,0.0,0.0,0.0,0.0,0.0,0.0,0.0,0.0,0.0,0.0,0.0,0.0,0.0,0.0,0.0,0.0,0.0,0.0,0.0,0.0,0.0,0.0,0.0,0.0,0.0,0.0,0.0,0.0,0.0,0.0,0.0,0.0,0.0,0.0,0.0,0.0,0.0,0.0,0.0,0.0,0.0,0.0,0.0,0.0,0.0,0.0,0.0,0.0,0.0,0.0,0.0,0.0,0.0,0.0,0.0,0.0,0.0,0.0,0.0,0.0,0.0,0.0,0.0,0.0,0.0,0.0,0.0,0.0,0.0,0.0,0.0,0.0,0.0,0.0,0.0,0.0,0.0,0.0,0.0,0.0,0.0,0.0,0.0,0.0,0.0,-3.0414,-3.0341,-2.9413,-2.9685,-2.9381,-2.8082,-2.8404,-2.8604,-2.8404,-2.7208,0.0,0.0,0.0,0.0,0.0,0.0,0.0,0.0,0.0,0.0,0.0,0.0,0.0,0.0,0.0,0.0,0.0,0.0,0.0,0.0,0.0,0.0,0.0,0.0,0.0,0.0,0.0,0.0,0.0,0.0,0.0,0.0,0.0,0.0,0.0,0.0,0.0,0.0,0.0,0.0,0.0,0.0,0.0,0.0,0.0,0.0,0.0,0.0,0.0,0.0,0.0,0.0,0.0,0.0,0.0,0.0,0.0,0.0,0.0,0.0,0.0,0.0,0.0,0.0,0.0,0.0,0.0,0.0,0.0,0.0,0.0,0.0,0.0,0.0,0.0,0.0,0.0,0.0,0.0,0.0,0.0,0.0,0.0,0.0,0.0,0.0,0.0,0.0,0.0,0.0,0.0,0.0,0.0,0.0,0.0,0.0,0.0,0.0,0.0,0.0,0.0,0.0,-3.0026,-2.9891,-2.9352,-2.9321,-2.9033,-2.8277,-2.7877,-2.768,-2.7611,-2.6911,0.0,0.0,0.0,0.0,0.0,0.0,0.0,0.0,0.0,0.0,0.0,0.0,0.0,0.0,0.0,0.0,0.0,0.0,0.0,0.0,0.0,0.0,0.0,0.0,0.0,0.0,0.0,0.0,0.0,0.0,0.0,0.0,0.0,0.0,0.0,0.0,0.0,0.0,0.0,0.0,0.0,0.0,0.0,0.0,0.0,0.0,0.0,0.0,0.0,0.0,0.0,0.0,0.0,0.0,0.0,0.0,0.0,0.0,0.0,0.0,0.0,0.0,0.0,0.0,0.0,0.0,0.0,0.0,0.0,0.0,0.0,0.0,0.0,0.0,0.0,0.0,0.0,0.0,0.0,0.0,0.0,0.0,0.0,0.0,0.0,0.0,0.0,0.0,0.0,0.0,0.0,0.0,0.0,0.0,0.0,0.0,0.0,0.0,0.0,0.0,0.0,0.0,-2.9764,-2.9597,-2.9225,-2.9361,-2.9177,-2.8441,-2.8065,-2.7744,-2.7279,0.0,0.0,0.0,0.0,0.0,0.0,0.0,0.0,0.0,0.0,0.0,0.0,0.0,0.0,0.0,0.0,0.0,0.0,0.0,0.0,0.0,0.0,0.0,0.0,0.0,0.0,0.0,0.0,0.0,0.0,0.0,0.0,0.0,0.0,0.0,0.0,0.0,0.0,0.0,0.0,0.0,0.0,0.0,0.0,0.0,0.0,0.0,0.0,0.0,0.0,0.0,0.0,0.0,0.0,0.0,0.0,0.0,0.0,0.0,0.0,0.0,0.0,0.0,0.0,0.0,0.0,0.0,0.0,0.0,0.0,0.0,0.0,0.0,0.0,0.0,0.0,0.0,0.0,0.0,0.0,0.0,0.0,0.0,0.0,0.0,0.0,0.0,0.0,0.0,0.0,0.0,0.0,0.0,0.0,0.0,0.0,0.0,0.0,0.0,0.0,0.0,0.0,-2.9448,-2.9448,-2.9343,-2.9132,-2.929,-2.9221,-2.8625,-2.8289,-2.7898,-2.7402,0.0,0.0,0.0,0.0,0.0,0.0,0.0,0.0,0.0,0.0,0.0,0.0,0.0,0.0,0.0,0.0,0.0,0.0,0.0,0.0,0.0,0.0,0.0,0.0,0.0,0.0,0.0,0.0,0.0,0.0,0.0,0.0,0.0,0.0,0.0,0.0,0.0,0.0,0.0,0.0,0.0,0.0,0.0,0.0,0.0,0.0,0.0,0.0,0.0,0.0,0.0,0.0,0.0,0.0,0.0,0.0,0.0,0.0,0.0,0.0,0.0,0.0,0.0,0.0,0.0,0.0,0.0,0.0,0.0,0.0,0.0,0.0,0.0,0.0,0.0,0.0,0.0,0.0,0.0,0.0,0.0,0.0,0.0,0.0,0.0,0.0,0.0,0.0,0.0,0.0,0.0,0.0,0.0,0.0,0.0,0.0,0.0,0.0,0.0,0.0,0.0,0.0,-2.9099,-2.9099,-2.9079,-2.9079,-2.9079,-2.8973,-2.8727,-2.8311,-2.8073,0.0,0.0,0.0,0.0,0.0,0.0,0.0,0.0,0.0,0.0,0.0,0.0,0.0,0.0,0.0,0.0,0.0,0.0,0.0,0.0,0.0,0.0,0.0,0.0,0.0,0.0,0.0,0.0,0.0,0.0,0.0,0.0,0.0,0.0,0.0,0.0,0.0,0.0,0.0,0.0,0.0,0.0,0.0,0.0,0.0,0.0,0.0,0.0,0.0,0.0,0.0,0.0,0.0,0.0,0.0,0.0,0.0,0.0,0.0,0.0,0.0,0.0,0.0,0.0,0.0,0.0,0.0,0.0,0.0,0.0,0.0,0.0,0.0,0.0,0.0,0.0,0.0,0.0,0.0,0.0,0.0,0.0,0.0,0.0,0.0,0.0,0.0,0.0,0.0,0.0,0.0,0.0,0.0,0.0,0.0,0.0,0.0,0.0,0.0,0.0,0.0,0.0,0.0,-2.9749,-2.949,-2.9237,-2.9001,-2.8852,-2.8727,-2.8461,-2.8343,-2.8127,-2.778,0.0,0.0,0.0,0.0,0.0,0.0,0.0,0.0,0.0,0.0,0.0,0.0,0.0,0.0,0.0,0.0,0.0,0.0,0.0,0.0,0.0,0.0,0.0,0.0,0.0,0.0,0.0,0.0,0.0,0.0,0.0,0.0,0.0,0.0,0.0,0.0,0.0,0.0,0.0,0.0,0.0,0.0,0.0,0.0,0.0,0.0,0.0,0.0,0.0,0.0,0.0,0.0,0.0,0.0,0.0,0.0,0.0,0.0,0.0,0.0,0.0,0.0,0.0,0.0,0.0,0.0,0.0,0.0,0.0,0.0,0.0,0.0,0.0,0.0,0.0,0.0,0.0,0.0,0.0,0.0,0.0,0.0,0.0,0.0,0.0,0.0,0.0,0.0,0.0,0.0,0.0,0.0,0.0,0.0,0.0,0.0,0.0,0.0,0.0,0.0,0.0,0.0,-2.9849,-2.9632,-2.942,-2.918,-2.9129,-2.873,-2.7959,-2.8265,-2.8145,-2.7294,0.0,0.0,0.0,0.0,0.0,0.0,0.0,0.0,0.0,0.0,0.0,0.0,0.0,0.0,0.0,0.0,0.0,0.0,0.0,0.0,0.0,0.0,0.0,0.0,0.0,0.0,0.0,0.0,0.0,0.0,0.0,0.0,0.0,0.0,0.0,0.0,0.0,0.0,0.0,0.0,0.0,0.0,0.0,0.0,0.0,0.0,0.0,0.0,0.0,0.0,0.0,0.0,0.0,0.0,0.0,0.0,0.0,0.0,0.0,0.0,0.0,0.0,0.0,0.0,0.0,0.0,0.0,0.0,0.0,0.0,0.0,0.0,0.0,0.0,0.0,0.0,0.0,0.0,0.0,0.0,0.0,0.0,0.0,0.0,0.0,0.0,0.0,0.0,0.0,0.0,0.0,0.0,0.0,0.0,0.0,0.0,0.0,0.0,0.0,0.0,0.0,0.0,-2.9387,-2.9312,-2.9273,-2.9273,-2.9366,-2.8781,-2.7215,-2.814,-2.8079,-2.6482,0.0,0.0,0.0,0.0,0.0,0.0,0.0,0.0,0.0,0.0,0.0,0.0,0.0,0.0,0.0,0.0,0.0,0.0,0.0,0.0,0.0,0.0,0.0,0.0,0.0,0.0,0.0,0.0,0.0,0.0,0.0,0.0,0.0,0.0,0.0,0.0,0.0,0.0,0.0,0.0,0.0,0.0,0.0,0.0,0.0,0.0,0.0,0.0,0.0,0.0,0.0,0.0,0.0,0.0,0.0,0.0,0.0,0.0,0.0,0.0,-2.3899,-2.3899,0.0,0.0,0.0,0.0,0.0,0.0,0.0,0.0,0.0,0.0,0.0,0.0,0.0,0.0,0.0,0.0,0.0,0.0,0.0,0.0,0.0,0.0,0.0,0.0,0.0,0.0,0.0,0.0,0.0,0.0,0.0,0.0,0.0,0.0,0.0,0.0,0.0,0.0,0.0,0.0,-2.77,-2.7258,-2.7064,-2.7064,-2.7682,-2.7464,-2.6157,-2.7184,-2.7191,-2.56,-2.5734,0.0,0.0,0.0,0.0,0.0,0.0,0.0,0.0,0.0,0.0,0.0,0.0,0.0,0.0,0.0,0.0,0.0,0.0,0.0,0.0,0.0,0.0,0.0,0.0,0.0,0.0,0.0,0.0,0.0,0.0,0.0,0.0,0.0,0.0,0.0,0.0,0.0,0.0,0.0,0.0,0.0,0.0,0.0,0.0,0.0,0.0,0.0,0.0,0.0,0.0,0.0,0.0,0.0,0.0,0.0,0.0,0.0,0.0,0.0,-2.2793,-2.2856,0.0,0.0,0.0,0.0,0.0,0.0,0.0,0.0,0.0,0.0,0.0,0.0,0.0,0.0,0.0,0.0,0.0,0.0,0.0,0.0,0.0,0.0,0.0,0.0,0.0,0.0,0.0,0.0,0.0,0.0,0.0,0.0,0.0,0.0,0.0,0.0,0.0,0.0,0.0,0.0,-2.7125,-2.6833,-2.6713,-2.6713,-2.7075,-2.6765,-2.5267,-2.6306,-2.6325,-2.468,-2.4993,0.0,0.0,0.0,0.0,0.0,0.0,0.0,0.0,0.0,0.0,0.0,0.0,0.0,0.0,0.0,0.0,0.0,0.0,0.0,0.0,0.0,0.0,0.0,0.0,0.0,0.0,0.0,0.0,0.0,0.0,0.0,0.0,0.0,0.0,0.0,0.0,0.0,0.0,0.0,0.0,0.0,0.0,0.0,0.0,0.0,0.0,0.0,0.0,0.0,0.0,0.0,0.0,0.0,-2.2104,-2.2104,-2.2104,-2.2104,-2.2104,-2.2104,-2.2355,-2.248,-2.248,-2.248,0.0,0.0,0.0,0.0,0.0,0.0,0.0,0.0,0.0,0.0,0.0,0.0,0.0,0.0,0.0,0.0,0.0,0.0,0.0,0.0,0.0,0.0,-2.1915,-2.1915,-2.1915,-2.1915,-2.1915,0.0,0.0,0.0,0.0,0.0,0.0,0.0,0.0,0.0,0.0,0.0,-2.6277,-2.6156,-2.6156,-2.6277,-2.6399,-2.5918,-2.4356,-2.5332,-2.5304,-2.3601,-2.4145,-2.4626,0.0,0.0,0.0,0.0,0.0,0.0,0.0,0.0,0.0,0.0,0.0,0.0,0.0,0.0,0.0,0.0,0.0,0.0,0.0,0.0,0.0,0.0,0.0,0.0,0.0,0.0,0.0,0.0,0.0,0.0,0.0,0.0,-2.223,-2.223,0.0,0.0,0.0,0.0,0.0,0.0,0.0,0.0,0.0,0.0,0.0,0.0,0.0,-2.2195,-2.2174,-2.2132,-2.2104,-2.2104,-2.2104,-2.2104,-2.2104,-2.2104,-2.2104,-2.2118,-2.1853,0.0,-2.2167,-2.2167,0.0,0.0,0.0,0.0,0.0,0.0,0.0,0.0,0.0,0.0,0.0,0.0,0.0,0.0,0.0,0.0,0.0,0.0,0.0,0.0,0.0,0.0,-2.1235,-2.1235,-2.1235,-2.1235,-2.1235,-2.1853,-2.2292,-2.2167,-2.2418,-2.2716,0.0,0.0,0.0,0.0,0.0,0.0,-2.334,-2.2918,-2.2966,-2.3542,-2.4131,-2.4054,-2.2985,-2.3823,-2.3672,-2.2029,-2.2,-2.2418,-2.3181,-2.2096,0.0,0.0,0.0,0.0,0.0,0.0,0.0,0.0,0.0,0.0,0.0,0.0,0.0,0.0,0.0,0.0,0.0,0.0,0.0,0.0,0.0,0.0,0.0,0.0,0.0,0.0,0.0,0.0,0.0,-2.2167,-2.2104,-2.2104,-2.2104,-2.2167,0.0,0.0,0.0,0.0,0.0,0.0,0.0,0.0,0.0,-2.179,-2.179,-2.174,-2.1551,-2.1551,-2.1551,-2.1551,-2.1551,-2.1551,-2.1551,-2.1551,-2.1551,-2.1551,-2.1362,-2.1425,-2.1551,-2.1727,-2.179,-2.1853,0.0,0.0,0.0,0.0,-2.1978,-2.179,-2.179,-2.1677,-2.1551,-2.1551,0.0,0.0,0.0,0.0,0.0,0.0,0.0,-2.1299,-2.1299,-2.1235,-2.1109,-2.1109,-2.1109,-2.1109,-2.1109,-2.1362,-2.1614,-2.1803,-2.179,-2.1915,-2.223,-2.2793,0.0,0.0,0.0,-2.2966,-2.2418,-2.2167,-2.223,-2.248,-2.2793,-2.2793,-2.2355,-2.2716,-2.2659,-2.1908,-2.1721,-2.1776,-2.2129,-2.153,-2.1554,0.0,0.0,0.0,0.0,0.0,0.0,0.0,0.0,0.0,0.0,0.0,0.0,0.0,0.0,0.0,0.0,0.0,0.0,0.0,0.0,0.0,0.0,0.0,0.0,0.0,0.0,0.0,0.0,-2.1915,-2.1853,-2.1853,-2.1853,-2.1866,0.0,0.0,0.0,0.0,0.0,0.0,-2.1853,-2.1853,-2.174,-2.1488,-2.1488,-2.1362,-2.1109,-2.1109,-2.1109,-2.1109,-2.1109,-2.1109,-2.1109,-2.1109,-2.1109,-2.1109,-2.1109,-2.1109,-2.1109,-2.1362,-2.1488,-2.1488,-2.174,-2.1853,-2.1853,-2.1853,-2.1677,-2.1488,-2.1488,-2.1299,-2.1109,-2.1109,-2.1109,-2.1109,-2.1109,0.0,0.0,0.0,0.0,-2.1109,-2.1109,-2.1109,-2.1109,-2.1109,-2.1109,-2.1109,-2.1109,-2.1109,-2.1172,-2.1425,-2.1488,-2.1614,-2.1915,-2.1978,0.0,-2.1978,-2.1978,-2.1978,-2.1978,-2.1915,-2.1929,-2.2104,-2.1915,-2.1866,-2.1978,-2.1915,-2.1853,-2.1853,-2.1614,-2.1488,-2.1488,-2.1208,-2.1024,-2.0788,0.0,0.0,0.0,0.0,0.0,0.0,0.0,0.0,0.0,0.0,0.0,0.0,0.0,0.0,0.0,0.0,0.0,0.0,0.0,0.0,0.0,0.0,0.0,0.0,0.0,0.0,0.0,0.0,0.0,-2.1172,-2.1172,0.0,0.0,0.0,0.0,-2.1614,-2.1362,-2.1172,-2.1172,-2.1172,-2.1172,-2.1109,-2.1109,-2.1109,-2.1109,-2.1109,-2.1109,-2.1109,-2.1109,-2.1109,-2.1109,-2.1109,-2.1109,-2.1109,-2.1109,-2.1109,-2.1109,-2.1109,-2.1109,-2.1109,-2.1172,-2.1172,-2.1172,-2.1172,-2.1172,-2.1109,-2.1109,-2.1109,-2.1109,-2.1109,-2.1109,-2.1109,-2.1109,-2.1109,0.0,0.0,-2.1109,-2.1109,-2.1109,-2.1109,-2.1109,-2.1109,-2.1109,-2.1109,-2.1109,-2.1109,-2.1109,-2.1109,-2.1109,-2.1235,-2.1551,0.0,-2.1614,-2.1614,-2.1614,-2.1614,-2.1614,-2.1362,-2.1425,-2.2041,-2.1551,-2.1299,-2.1614,-2.1362,-2.1172,-2.1172,-2.1109,-2.1109,-2.1109,-2.1096,-2.1082,-2.1082,-2.0864,0.0,0.0,0.0,0.0,0.0,0.0,0.0,0.0,0.0,0.0,0.0,0.0,0.0,0.0,0.0,0.0,0.0,0.0,0.0,0.0,0.0,0.0,0.0,0.0,0.0,0.0,0.0,0.0,-2.1109,-2.1109,0.0,-2.1299,-2.1172,-2.1172,-2.1299,-2.1172,-2.1189,-2.139,-2.139,-2.1483,-2.167,-2.167,-2.167,-2.167,-2.167,-2.167,-2.167,-2.167,-2.167,-2.167,-2.167,-2.167,-2.167,-2.167,-2.167,-2.1657,-2.147,-2.1283,-2.1109,-2.1109,-2.1109,-2.1109,-2.1109,-2.1109,-2.1109,-2.1109,-2.1109,-2.1109,-2.1109,-2.1109,-2.1109,-2.1109,-2.1109,-2.1109,-2.1109,-2.1109,-2.1109,-2.1109,-2.1109,-2.1109,-2.1109,-2.1109,-2.1109,-2.1109,-2.1109,-2.1109,-2.1109,-2.1109,-2.1172,-2.1235,-2.1299,-2.1299,-2.1299,-2.1299,-2.1299,-2.1299,-2.1172,-2.1172,-2.1425,-2.1235,-2.1172,-2.1299,-2.1172,-2.1109,-2.1109,-2.1109,-2.1109,-2.1109,-2.1109,-2.1109,-2.1109,-2.1002,-2.0949,0.0,0.0,0.0,0.0,0.0,0.0,0.0,0.0,0.0,0.0,0.0,0.0,0.0,0.0,0.0,0.0,0.0,0.0,0.0,0.0,0.0,0.0,0.0,0.0,0.0,-2.1109,-2.1109,-2.1109,-2.1109,-2.1109,-2.1109,-2.1109,-2.1149,-2.1256,-2.1256,-2.139,-2.1748,-2.1762,-2.179,-2.1977,-2.1991,-2.1991,-2.1991,-2.1991,-2.1991,-2.1991,-2.1991,-2.1991,-2.1991,-2.1991,-2.1991,-2.1991,-2.1991,-2.1991,-2.1977,-2.1842,-2.1577,-2.139,-2.1189,-2.1109,-2.1109,-2.1109,-2.1109,-2.1109,-2.1109,-2.1109,-2.1109,-2.1109,-2.1109,-2.1109,-2.1109,-2.1109,-2.1109,-2.1109,-2.1109,-2.1109,-2.1109,-2.1109,-2.1109,-2.1109,-2.1109,-2.1109,-2.1109,-2.1109,-2.1109,-2.1109,-2.1109,-2.1109,-2.1109,-2.1109,-2.1109,-2.1109,-2.1109,-2.1109,-2.1109,-2.1109,-2.1109,-2.1109,-2.1109,-2.1109,-2.1109,-2.1109,-2.1109,-2.1109,-2.1109,-2.1109,-2.1109,-2.1109,-2.1109,-2.1109,-2.1109,-2.1109,-2.1109,0.0,0.0,0.0,0.0,0.0,0.0,0.0,0.0,0.0,0.0,0.0,0.0,0.0,0.0,0.0,0.0,0.0,0.0,0.0,0.0,0.0,0.0,0.0,-2.1216,-2.1136,-2.1136,-2.1122,-2.1122,-2.1122,-2.1122,-2.1122,-2.1243,-2.1614,-2.1628,-2.1762,-2.1991,-2.2017,-2.2017,-2.2044,-2.2044,-2.2044,-2.2044,-2.2044,-2.2044,-2.2044,-2.2044,-2.2044,-2.2044,-2.2044,-2.2044,-2.2044,-2.2031,-2.2031,-2.2031,-2.2004,-2.2004,-2.1937,-2.1363,-2.1136,-2.1136,-2.1136,-2.1136,-2.1136,-2.1136,-2.1136,-2.1136,-2.1136,-2.1136,-2.1136,-2.1136,-2.1136,-2.1136,-2.1136,-2.1136,-2.1136,-2.1136,-2.1136,-2.1136,-2.1136,-2.1136,-2.1136,-2.1136,-2.1136,-2.1136,-2.1136,-2.1136,-2.1136,-2.1109,-2.1109,-2.1109,-2.1109,-2.1109,0.0,-2.1109,-2.1109,-2.1109,-2.1109,-2.1109,-2.1109,-2.1109,-2.1109,-2.1109,-2.1109,-2.1109,-2.1109,-2.1109,-2.1109,-2.1109,-2.1109,-2.1109,-2.1109,-2.1109,0.0,0.0,0.0,0.0,0.0,0.0,0.0,0.0,0.0,0.0,0.0,0.0,0.0,0.0,0.0,0.0,0.0,0.0,0.0,0.0,0.0,-2.2298,-2.2164,-2.179,-2.175,-2.167,-2.1521,-2.143,-2.143,-2.143,-2.143,-2.155,-2.1844,-2.1871,-2.2084,-2.266,-2.2619,-2.2819,-2.326,-2.3273,-2.3273,-2.3273,-2.3273,-2.3273,-2.3273,-2.3273,-2.3273,-2.3273,-2.3273,-2.3273,-2.3273,-2.306,-2.2953,-2.2926,-2.2485,-2.2298,-2.2258,-2.1884,-2.175,-2.175,-2.175,-2.175,-2.175,-2.175,-2.175,-2.175,-2.175,-2.175,-2.175,-2.175,-2.175,-2.175,-2.175,-2.175,-2.175,-2.175,-2.175,-2.175,-2.175,-2.175,-2.175,-2.175,-2.175,-2.175,-2.175,-2.175,-2.1603,-2.1189,-2.1109,-2.1109,-2.1109,-2.1109,-2.1109,-2.1109,-2.1109,-2.1109,-2.1109,-2.1109,-2.1109,-2.1109,-2.1109,-2.1109,-2.1109,-2.1109,-2.1109,-2.1109,-2.1109,-2.1109,-2.1109,-2.1109,-2.1109,0.0,0.0,0.0,0.0,0.0,0.0,0.0,0.0,0.0,0.0,0.0,0.0,0.0,0.0,0.0,0.0,0.0,0.0,0.0,0.0,0.0,0.0,-2.2185,-2.2336,-2.1559,-2.1739,-2.1924,-2.1815,-2.1802,-2.1802,-2.1802,-2.1802,-2.1911,-2.2325,-2.2352,-2.2619,-2.3207,-2.3316,-2.3477,-2.3754,-2.3768,-2.3768,-2.3768,-2.3768,-2.3768,-2.3768,-2.3768,-2.3768,-2.3768,-2.3768,-2.3768,-2.3754,-2.3594,-2.3514,-2.3487,-2.3126,-2.2979,-2.2913,0.0,0.0,0.0,0.0,-2.1991,-2.1991,-2.1991,-2.1991,-2.1991,-2.1991,-2.1991,-2.1991,-2.1991,-2.1991,-2.1991,-2.1991,-2.1991,-2.1991,-2.1991,-2.1991,-2.1991,-2.1991,-2.1991,-2.1991,-2.1991,-2.1991,-2.1991,-2.1991,-2.1991,0.0,-2.1537,-2.1483,-2.1483,-2.1483,-2.1483,-2.1483,-2.1483,-2.1483,-2.143,-2.1309,-2.1296,-2.1243,-2.1122,-2.1109,0.0,0.0,0.0,-2.1109,-2.1109,-2.1109,0.0,0.0,0.0,-2.1109,-2.1109,-2.1109,0.0,0.0,-2.1029,-2.1015,0.0,0.0,0.0,0.0,0.0,0.0,0.0,0.0,0.0,0.0,0.0,0.0,0.0,0.0,0.0,0.0,-2.1747,-2.2229,-2.1044,-2.1584,-2.2071,-2.2044,-2.2031,-2.2031,-2.2031,-2.2071,-2.2311,-2.2873,-2.3008,-2.3289,-2.3794,-2.3821,0.0,0.0,0.0,-2.3875,-2.3875,-2.3875,-2.3875,-2.3875,-2.3875,-2.3875,-2.3875,-2.3875,-2.3875,-2.3875,-2.3834,-2.3821,-2.3821,-2.3781,-2.3768,-2.3661,-2.2605,-2.2191,-2.2178,-2.2151,-2.2138,-2.2124,-2.2098,0.0,0.0,-2.2084,-2.2084,-2.2084,-2.2084,-2.2084,-2.2084,-2.2084,-2.2084,-2.2084,-2.2084,-2.2084,-2.2084,-2.2084,-2.2084,-2.2084,-2.2084,-2.2084,-2.2084,-2.2084,-2.2084,-2.2084,-2.2084,-2.2031,-2.1991,-2.1991,-2.1991,-2.1991,-2.1991,-2.1991,-2.1884,-2.1695,-2.1668,0.0,-2.1229,-2.1203,-2.1203,-2.1203,-2.1203,-2.1189,-2.1162,-2.1162,-2.1149,-2.1109,-2.1109,-2.1109,-2.1109,-2.1109,-2.1109,-2.1109,-2.1109,-2.1109,0.0,0.0,0.0,0.0,0.0,0.0,0.0,0.0,0.0,0.0,0.0,0.0,0.0,0.0,0.0,-2.0629,-2.0837,-2.139,-2.231,-2.2629,-2.2605,-2.2365,-2.2338,-2.2338,-2.2338,-2.2552,-2.2846,-2.3207,-2.346,-2.3754,-2.4102,-2.4115,-2.4222,-2.4462,-2.4476,-2.4476,-2.4476,-2.4476,-2.4476,-2.4476,-2.4476,0.0,-2.4476,-2.4476,-2.4476,-2.4449,-2.4222,-2.4115,-2.4102,-2.3875,-2.3768,-2.3754,-2.3514,-2.342,-2.3394,-2.3153,-2.306,-2.3033,-2.2779,-2.2767,-2.2767,-2.2767,-2.2767,-2.2767,-2.2767,-2.2767,0.0,-2.2767,-2.2767,-2.2767,-2.2767,-2.2767,-2.2767,-2.2767,-2.2767,-2.2767,-2.2767,-2.2767,-2.2767,-2.2767,-2.2767,-2.2767,-2.2767,-2.2298,-2.1991,-2.1991,-2.1991,-2.1991,-2.1991,-2.1991,-2.1964,-2.1911,-2.1897,-2.1884,-2.1817,-2.1817,-2.1817,-2.1817,-2.1817,-2.171,-2.1534,-2.1534,-2.1349,-2.1109,-2.1109,-2.1109,-2.1109,-2.1109,-2.1109,-2.1109,-2.1109,-2.1109,0.0,0.0,0.0,0.0,0.0,0.0,0.0,0.0,0.0,0.0,0.0,-2.0352,-1.9646,0.0,-2.0352,-1.9646,-2.0132,-2.0837,-2.1678,-2.1747,-2.1971,-2.2591,-2.2645,-2.2699,-2.2859,-2.3006,-2.3287,-2.3728,-2.3901,-2.4115,-2.4409,-2.4422,-2.4489,-2.4636,-2.4636,-2.4636,-2.4636,-2.4636,-2.4636,-2.4636,-2.4636,-2.4636,-2.4636,-2.4636,-2.4636,-2.4549,-2.4489,-2.4422,-2.4409,-2.4262,-2.4209,-2.4209,-2.4209,-2.4022,-2.3754,-2.3607,-2.3554,-2.3527,-2.3367,-2.3313,-2.3313,-2.3313,-2.3313,-2.3313,-2.3313,-2.3313,-2.3313,-2.3104,-2.3034,-2.3034,-2.2824,-2.2754,-2.2754,-2.2754,-2.2754,-2.2754,-2.2754,-2.2754,-2.2824,-2.3034,-2.3034,-2.3104,-2.3313,-2.3073,-2.2779,-2.2472,-2.2418,-2.2418,-2.2418,-2.2418,-2.2365,-2.2218,-2.2205,-2.2151,-2.1991,-2.1991,-2.1991,-2.1991,-2.1991,-2.1924,-2.1842,-2.1764,-2.1697,-2.155,-2.155,-2.155,-2.155,-2.155,-2.155,-2.155,-2.155,-2.139,0.0,0.0,0.0,0.0,0.0,0.0,0.0,-2.2229,-2.1665,-2.0421,-2.0144,-1.9785,-1.8589,-1.9576,-2.0132,-1.8659,-1.9646,-2.0629,-2.0629,-2.0886,-2.1628,-2.2815,-2.2953,-2.3073,-2.338,-2.346,-2.3688,-2.4168,-2.4249,-2.4396,-2.4623,-2.4636,-2.4636,-2.4636,-2.469,-2.4716,-2.4716,-2.4783,-2.481,-2.481,-2.481,-2.481,-2.481,-2.481,-2.481,-2.481,-2.4743,-2.4642,-2.4568,-2.4515,-2.4414,-2.4341,-2.4341,-2.4136,-2.3713,-2.3731,-2.3705,-2.3633,-2.3567,-2.3554,-2.3554,-2.3554,-2.3554,-2.3554,-2.3554,-2.3554,-2.3483,-2.3197,-2.3054,-2.2982,-2.2696,-2.2624,-2.2624,-2.2624,-2.2624,-2.2624,-2.2624,-2.2624,-2.2696,-2.3054,-2.3054,-2.3197,-2.3625,-2.3625,-2.3466,-2.3113,-2.3046,-2.302,-2.2966,-2.2953,-2.2832,-2.2539,-2.2498,-2.2405,-2.2178,-2.2151,-2.2151,-2.2151,-2.2151,-2.2138,-2.2005,-2.2071,-2.1978,-2.1793,-2.1859,-2.1859,-2.1793,-2.1793,-2.1793,-2.1793,-2.1859,-2.1672,-2.2928,-2.2928,-2.2928,-2.2928,-2.2928,-2.2516,0.0,-1.9854,-1.8868,-1.8659,-1.8659,-1.8589,-1.8449,-1.9576,-2.0132,-1.8659,-1.9646,-2.0629,-2.0629,-2.1976,-2.3064,-2.3204,-2.3273,-2.3394,-2.3688,-2.3955,-2.4128,-2.4195,-2.4436,-2.4609,-2.4636,-2.4636,-2.4636,-2.4636,-2.489,-2.5037,-2.5037,-2.5291,-2.5411,-2.5411,-2.5411,-2.5411,-2.5411,-2.5411,-2.5411,-2.5398,-2.5144,-2.4873,-2.4485,-2.4223,-2.3896,-2.3525,-2.3525,-2.3487,-2.3472,-2.3593,-2.343,-2.3028,-2.2844,-2.2768,-2.2768,-2.2768,-2.2768,-2.2768,-2.2768,-2.2768,-2.2696,-2.2696,-2.2696,-2.2696,-2.2624,-2.2624,-2.2624,-2.2624,-2.2624,-2.2624,-2.2624,-2.2624,-2.2624,-2.2696,-2.2696,-2.2768,-2.3197,-2.2982,-2.2957,-2.3603,-2.3674,-2.3567,-2.3313,-2.3273,-2.3153,-2.2846,-2.2819,-2.2806,-2.2766,-2.2834,-2.2834,-2.2834,-2.2834,-2.251,-2.1921,-2.2177,-2.1911,-2.1066,-2.133,-2.133,-2.0999,-2.0999,-2.0999,-2.1066,-2.1317,-2.1621,-2.2928,-2.2928,-2.2928,-2.2928,-2.2242,-2.1402,-2.0768,-1.9437,-1.8379,-1.8379,-1.8379,-1.8379,-1.8379,-1.8868,-1.9367,-1.9646,-1.9507,-1.9982,-2.1906,-2.2103,-2.2448,-2.3652,-2.3834,-2.3888,-2.4008,-2.4128,-2.4275,-2.4436,-2.4569,-2.4636,-2.4636,-2.4499,-2.4503,-2.4503,-2.4566,-2.4709,-2.4951,-2.5069,-2.5288,-2.5518,-2.5518,-2.5518,-2.5518,-2.5275,-2.4969,-2.4726,-2.4914,-2.4709,-2.4316,-2.42,-2.3997,-2.3846,-2.3846,-2.3694,-2.3492,-2.35,-2.3347,-2.326,-2.306,-2.3095,-2.3095,-2.3095,-2.3095,-2.3095,-2.3095,-2.3095,-2.3022,-2.2815,-2.2741,-2.2741,-2.2521,-2.2448,-2.2448,-2.2448,-2.2448,-2.2448,-2.2448,-2.2448,-2.2521,-2.2741,-2.2741,-2.2888,-2.3254,-2.3168,-2.3168,-2.3546,-2.3478,-2.3372,-2.324,-2.3439,-2.3541,-2.3477,-2.3394,-2.3394,-2.3394,-2.3394,-2.3244,-2.2849,-2.2836,-2.2566,-2.1881,-2.2004,-2.1871,-2.1416,-2.1552,-2.1552,-2.1416,-2.1416,-2.1416,-2.1416,-2.1552,-2.1755,-2.2928,-2.2928,-2.2928,-2.2928,-2.2022,-2.1252,-2.1252,-2.0063,-1.9008,-1.9008,-1.9008,-1.9008,-1.9008,-1.9356,-1.9854,-2.0491,-2.0063,-2.0366,-2.2421,-2.2172,-2.2401,-2.3997,-2.4275,-2.4329,-2.4329,-2.4329,-2.4409,-2.4623,-2.4636,-2.4589,-2.452,-2.4432,-2.435,-2.4352,-2.4316,-2.4457,-2.4855,-2.501,-2.5217,-2.5372,-2.5604,-2.5681,-2.5604,-2.5281,-2.4894,-2.4429,-2.474,-2.4624,-2.4148,-2.4072,-2.3957,-2.388,-2.388,-2.3726,-2.3446,-2.3367,-2.3254,-2.3179,-2.3179,-2.3142,-2.3079,-2.3079,-2.3079,-2.3079,-2.3079,-2.3079,-2.3079,-2.2781,-2.2707,-2.2632,-2.2408,-2.2334,-2.2334,-2.2334,-2.2334,-2.2334,-2.2334,-2.2334,-2.2408,-2.2707,-2.2707,-2.2856,-2.3228,-2.3154,-2.3154,-2.3228,-2.3181,-2.3189,-2.3327,-2.3607,-2.3768,-2.3625,-2.3696,-2.3768,-2.3768,-2.3696,-2.3461,-2.2954,-2.28,-2.2486,-2.1874,-2.1925,-2.1817,-2.1609,-2.1603,-2.1553,-2.1496,-2.1496,-2.1496,-2.1496,-2.1553,-2.1634,-2.2928,-2.2928,-2.2928,-2.2928,-2.2859,-2.2859,-2.2859,-2.1678,-2.056,-2.056,-2.056,-2.056,-2.056,-2.1747,-2.2297,-2.0837,-2.1816,-2.2402,-2.1343,-2.2634,-2.3861,-2.4168,-2.4449,-2.4623,-2.4623,-2.4623,-2.4623,-2.4636,-2.4636,-2.4534,-2.4436,-2.4386,-2.4365,-2.4252,-2.4532,-2.4672,-2.4672,-2.5425,-2.5568,-2.5104,-2.5964,-2.6201,-2.5806,-2.5806,-2.5489,-2.5092,-2.4799,-2.4437,-2.4112,-2.3761,-2.3418,-2.3121,-2.3121,-2.3121,-2.3121,-2.3097,-2.2939,-2.2721,-2.2721,-2.2552,-2.2334,-2.2334,-2.2334,-2.2334,-2.2334,-2.2334,-2.2334,-2.2334,-2.2334,-2.2334,-2.2334,-2.2334,-2.2334,-2.2334,-2.2334,-2.2334,-2.2334,-2.2334,-2.2334,-2.2334,-2.2334,-2.2483,-2.2856,-2.2558,-2.2483,-2.2856,-2.2918,-2.3102,-2.3495,-2.3726,-2.3625,-2.3268,-2.3554,-2.3768,-2.3768,-2.3411,-2.3184,-2.3184,-2.2826,-2.2384,-2.2013,-2.2107,-2.1815,-2.1122,-2.1204,-2.1081,-2.0735,-2.0735,-2.0735,-2.0735,-2.1081,-2.1207,-2.2928,-2.2928,-2.2928,-2.2928,-2.216,-2.139,-2.139,-2.0201,-1.9437,-2.0421,-2.0629,-2.0906,-2.1953,-2.1747,-2.154,-2.2022,-2.1899,-2.1988,-2.2776,-2.3575,-2.4168,-2.4449,-2.4583,-2.4636,-2.4636,-2.4636,-2.4636,-2.4636,-2.4823,-2.4745,-2.4386,-2.4521,-2.4456,-2.409,-2.4116,-2.4264,-2.4581,-2.484,-2.497,-2.513,-2.5368,-2.5368,-2.497,-2.5209,-2.4958,-2.424,-2.4472,-2.4343,-2.3854,-2.3769,-2.3654,-2.3575,-2.3575,-2.3575,-2.3575,-2.3575,-2.3406,-2.3164,-2.2971,-2.2927,-2.2854,-2.2854,-2.2854,-2.2854,-2.2854,-2.2854,-2.2818,-2.2648,-2.26,-2.2552,-2.2382,-2.2467,-2.26,-2.26,-2.2733,-2.2854,-2.2854,-2.2854,-2.2854,-2.2854,-2.2854,-2.2854,-2.3007,-2.2931,-2.2854,-2.3007,-2.2941,-2.3042,-2.3398,-2.3516,-2.3465,-2.3318,-2.3465,-2.3538,-2.3538,-2.3391,-2.3168,-2.2772,-2.2614,-2.2236,-2.1703,-2.1748,-2.1616,-2.1341,-2.1387,-2.1339,-2.1209,-2.1209,-2.1209,-2.1209,-2.1351,-2.141,-2.2928,-2.2928,-2.2928,-2.2928,-2.216,-2.1402,-2.1402,-2.0686,-2.0271,-2.1252,-2.1477,-2.1899,-2.2881,-2.2259,-2.1899,-2.2881,-2.2414,-2.2352,-2.3656,-2.4022,-2.4315,-2.4596,-2.4636,-2.4636,-2.4636,-2.4636,-2.4636,-2.4636,-2.4917,-2.4966,-2.4618,-2.4675,-2.45,-2.4219,-2.3915,-2.392,-2.4252,-2.4572,-2.4891,-2.5368,-2.505,-2.4731,-2.4492,-2.4731,-2.4492,-2.3852,-2.4092,-2.4092,-2.376,-2.376,-2.376,-2.376,-2.376,-2.376,-2.376,-2.376,-2.3652,-2.3471,-2.3285,-2.3128,-2.3121,-2.3121,-2.3121,-2.3121,-2.3121,-2.3121,-2.3084,-2.2915,-2.2866,-2.283,-2.2661,-2.2745,-2.2866,-2.2866,-2.3,-2.3121,-2.3121,-2.3121,-2.3121,-2.3121,-2.3121,-2.3121,-2.3121,-2.3121,-2.3121,-2.3121,-2.3059,-2.3028,-2.3154,-2.3278,-2.3364,-2.3228,-2.3302,-2.3364,-2.3364,-2.329,-2.3078,-2.2682,-2.2522,-2.2227,-2.1764,-2.1667,-2.1619,-2.1619,-2.1523,-2.1474,-2.1474,-2.1474,-2.1474,-2.1474,-2.1474,-2.1474,-2.2928,-2.2928,-2.2928,-2.2928,-2.2928,-2.2928,-2.2928,-2.2928,-2.2928,-2.2954,-2.3113,-2.3327,-2.334,-2.334,-2.3327,-2.3327,-2.334,-2.3447,-2.3728,-2.4035,-2.4329,-2.4609,-2.4636,-2.4636,-2.4636,-2.4649,-2.4663,-2.4663,-2.493,-2.5073,-2.4905,-2.4791,-2.4601,-2.448,-2.4,-2.376,-2.376,-2.4652,-2.5289,-2.5673,-2.4891,-2.4492,-2.4492,-2.4492,-2.4252,-2.376,-2.376,-2.376,-2.376,-2.376,-2.376,-2.376,-2.376,-2.376,-2.376,-2.376,-2.376,-2.3724,-2.3483,-2.3297,-2.3157,-2.3157,-2.3157,-2.3157,-2.3157,-2.3157,-2.3157,-2.3145,-2.3145,-2.3133,-2.3121,-2.3133,-2.3145,-2.3145,-2.3157,-2.3157,-2.3157,-2.3157,-2.3157,-2.3157,-2.3157,-2.3157,-2.3157,-2.3157,-2.3157,-2.3157,-2.3145,-2.3048,-2.2782,-2.3129,-2.3266,-2.2968,-2.3191,-2.3415,-2.3415,-2.3117,-2.2893,-2.2893,-2.2507,-2.2358,-2.2358,-2.2029,-2.1885,-2.1885,-2.1643,-2.1523,-2.1523,-2.1523,-2.1523,-2.1523,-2.1523,-2.1523,-2.2928,-2.2928,-2.2928,-2.2928,-2.2928,-2.2928,-2.2928,-2.2928,-2.2926,-2.3153,-2.3273,-2.3394,-2.3621,-2.3474,-2.3327,-2.3327,-2.3514,-2.3688,-2.3754,-2.4209,-2.4556,-2.4549,-2.4636,-2.4636,-2.4636,-2.4836,-2.497,-2.497,-2.5237,-2.5225,-2.4804,-2.4941,-2.4656,-2.4,-2.384,-2.376,-2.376,-2.4,-2.416,-2.432,-2.408,-2.4012,-2.4012,-2.4012,-2.392,-2.376,-2.376,-2.376,-2.376,-2.376,-2.376,-2.376,-2.376,-2.376,-2.376,-2.376,-2.376,-2.376,-2.3688,-2.3695,-2.3635,-2.3635,-2.3635,-2.3635,-2.3635,-2.3635,-2.3678,-2.3786,-2.358,-2.3375,-2.3479,-2.3434,-2.3345,-2.3345,-2.3502,-2.3635,-2.3635,-2.3635,-2.3635,-2.3635,-2.3635,-2.3635,-2.3635,-2.3635,-2.3635,-2.3635,-2.3478,-2.3249,-2.306,-2.3117,-2.3145,-2.3068,-2.3145,-2.3145,-2.3145,-2.3068,-2.3068,-2.3068,-2.2733,-2.2624,-2.2624,-2.237,-2.2237,-2.2237,-2.209,-2.214,-2.214,-2.214,-2.214,-2.214,-2.214,-2.214,-2.2928,-2.2928,-2.2928,-2.2928,-2.2928,-2.2928,-2.2928,-2.2966,-2.3113,-2.3287,-2.3527,-2.3768,-2.3928,-2.3728,-2.3527,-2.3527,-2.3661,-2.3768,-2.3768,-2.4275,-2.4636,-2.4636,-2.4756,-2.4836,-2.4836,-2.509,-2.5317,-2.5451,-2.5611,-2.5617,-2.5309,-2.5135,-2.4891,-2.4412,-2.4,-2.392,-2.4092,-2.392,-2.392,-2.4092,-2.4092,-2.4,-2.384,-2.4012,-2.4,-2.376,-2.376,-2.376,-2.376,-2.376,-2.376,-2.376,-2.376,-2.376,-2.376,-2.376,-2.376,-2.376,-2.376,-2.376,-2.376,-2.376,-2.376,-2.376,-2.376,-2.376,-2.3816,-2.3977,-2.3781,-2.3587,-2.3744,-2.366,-2.3544,-2.3544,-2.3652,-2.376,-2.376,-2.376,-2.376,-2.376,-2.376,-2.376,-2.376,-2.376,-2.376,-2.376,-2.364,-2.3575,-2.3418,-2.3266,-2.3121,-2.3121,-2.3121,-2.3121,-2.3121,-2.3121,-2.3121,-2.3121,-2.2988,-2.2903,-2.2903,-2.2757,-2.2685,-2.2685,-2.2685,-2.2624,-2.2515,-2.2515,-2.2455,-2.2334,-2.2334,-2.2334,-2.2928,-2.2928,-2.2928,-2.2928,-2.2928,-2.2928,-2.2928,-2.31,-2.334,-2.338,-2.3821,-2.4209,-2.4249,-2.4022,-2.3808,-2.3781,-2.3808,-2.3808,-2.3781,-2.4275,-2.4636,-2.4636,-2.4903,-2.5077,-2.5077,-2.5371,-2.5678,-2.601,-2.5999,-2.6012,-2.5856,-2.5385,-2.505,-2.4891,-2.4252,-2.4092,-2.4492,-2.4,-2.4012,-2.4492,-2.4492,-2.4252,-2.3852,-2.4252,-2.4252,-2.376,-2.376,-2.376,-2.376,-2.376,-2.376,-2.376,-2.376,-2.376,-2.384,-2.384,-2.392,-2.392,-2.392,-2.392,-2.392,-2.392,-2.3852,-2.384,-2.384,-2.3852,-2.384,-2.384,-2.3852,-2.384,-2.384,-2.3852,-2.376,-2.376,-2.376,-2.376,-2.376,-2.376,-2.376,-2.376,-2.376,-2.376,-2.376,-2.376,-2.376,-2.376,-2.376,-2.376,-2.376,-2.3442,-2.323,-2.323,-2.323,-2.323,-2.323,-2.323,-2.323,-2.323,-2.3193,-2.3169,-2.3169,-2.3133,-2.3121,-2.3121,-2.3121,-2.3012,-2.2782,-2.2782,-2.2661,-2.2443,-2.2443,-2.2443,-2.2928,-2.2928,-2.2928,-2.2928,-2.2928,-2.2928,-2.2928,-2.31,-2.3394,-2.3647,-2.3968,-2.4275,-2.4516,-2.4329,-2.4048,-2.3808,-2.3968,-2.4048,-2.3808,-2.4275,-2.4636,-2.4636,-2.4903,-2.5077,-2.5077,-2.5571,-2.5905,-2.6037,-2.6186,-2.6004,-2.5291,-2.5184,-2.4811,-2.408,-2.4252,-2.4412,-2.4492,-2.4,-2.4012,-2.4492,-2.4492,-2.4252,-2.3852,-2.4252,-2.4252,-2.376,-2.376,-2.376,-2.376,-2.376,-2.376,-2.376,-2.376,-2.376,-2.3852,-2.4252,-2.4412,-2.4412,-2.4731,-2.4652,-2.4412,-2.4412,-2.4092,-2.384,-2.4252,-2.4092,-2.384,-2.4252,-2.4092,-2.392,-2.4252,-2.4092,-2.376,-2.376,-2.376,-2.376,-2.376,-2.376,-2.376,-2.376,-2.376,-2.376,-2.376,-2.376,-2.376,-2.376,-2.376,-2.376,-2.376,-2.3768,-2.3707,-2.3707,-2.3707,-2.3707,-2.3707,-2.3707,-2.3707,-2.3707,-2.3502,-2.3381,-2.3381,-2.3164,-2.3121,-2.3121,-2.3121,-2.3097,-2.3048,-2.3048,-2.3024,-2.2988,-2.2988,-2.2988,-2.2928,-2.2928,-2.2928,-2.2928,-2.2928,-2.2968,-2.3073,-2.334,-2.3647,-2.3941,-2.4222,-2.4476,-2.4609,-2.4396,-2.4155,-2.4022,-2.3981,-2.3981,-2.3995,-2.4235,-2.4462,-2.4549,-2.5037,-2.5304,-2.5304,-2.5838,-2.6186,-2.6186,-2.6306,-2.6149,-2.5514,-2.505,-2.4492,-2.384,-2.4252,-2.4492,-2.4492,-2.4492,-2.4572,-2.4811,-2.505,-2.4958,-2.4492,-2.4731,-2.4572,-2.4172,-2.392,-2.376,-2.376,-2.376,-2.376,-2.384,-2.4092,-2.4172,-2.4252,-2.4652,-2.4811,-2.4811,-2.505,-2.4811,-2.4492,-2.4731,-2.4332,-2.384,-2.4092,-2.4012,-2.3852,-2.4092,-2.4,-2.3852,-2.4092,-2.4,-2.376,-2.376,-2.376,-2.376,-2.376,-2.376,-2.376,-2.376,-2.376,-2.376,-2.376,-2.376,-2.376,-2.376,-2.376,-2.376,-2.376,-2.376,-2.376,-2.376,-2.376,-2.376,-2.376,-2.376,-2.376,-2.376,-2.3652,-2.358,-2.358,-2.3526,-2.3454,-2.3454,-2.3454,-2.3393,-2.3261,-2.3261,-2.3176,-2.3121,-2.3121,-2.3121,-2.2928,-2.2928,-2.2928,-2.2928,-2.2928,-2.2939,-2.326,-2.3554,-2.3848,-2.4142,-2.4436,-2.4636,-2.4636,-2.4449,-2.4275,-2.4209,-2.4008,-2.3941,-2.4168,-2.4209,-2.4315,-2.4596,-2.5104,-2.5451,-2.5504,-2.5985,-2.6319,-2.6386,-2.6307,-2.607,-2.5673,-2.497,-2.4412,-2.392,-2.4412,-2.4652,-2.4811,-2.497,-2.513,-2.5289,-2.5594,-2.5514,-2.513,-2.513,-2.4891,-2.4492,-2.4,-2.376,-2.384,-2.392,-2.3932,-2.4,-2.4412,-2.4652,-2.4652,-2.513,-2.5289,-2.5289,-2.5368,-2.505,-2.4664,-2.5046,-2.4529,-2.384,-2.3932,-2.384,-2.376,-2.376,-2.376,-2.376,-2.376,-2.376,-2.376,-2.376,-2.3808,-2.3925,-2.3925,-2.3892,-2.3928,-2.3928,-2.3928,-2.3928,-2.3928,-2.3928,-2.3928,-2.3928,-2.3928,-2.3928,-2.3928,-2.3928,-2.3928,-2.3928,-2.3832,-2.376,-2.376,-2.376,-2.376,-2.376,-2.376,-2.376,-2.376,-2.376,-2.376,-2.376,-2.376,-2.3664,-2.3459,-2.3459,-2.343,-2.3212,-2.3212,-2.3212,-2.2928,-2.2928,-2.2928,-2.2928,-2.2928,-2.2939,-2.326,-2.3554,-2.3848,-2.4142,-2.4436,-2.4636,-2.4636,-2.4609,-2.4516,-2.4249,-2.4182,-2.4168,-2.4195,-2.4209,-2.4315,-2.4596,-2.493,-2.5224,-2.5491,-2.5798,-2.6106,-2.6373,-2.607,-2.5673,-2.5209,-2.505,-2.4891,-2.4412,-2.4811,-2.5289,-2.5673,-2.5289,-2.5289,-2.5753,-2.5753,-2.5514,-2.513,-2.513,-2.4891,-2.4492,-2.4,-2.376,-2.384,-2.4252,-2.4412,-2.4492,-2.4891,-2.505,-2.513,-2.5594,-2.5753,-2.5753,-2.6149,-2.5766,-2.5088,-2.5342,-2.469,-2.384,-2.4332,-2.4172,-2.376,-2.376,-2.376,-2.376,-2.376,-2.376,-2.376,-2.376,-2.4021,-2.4202,-2.4202,-2.4383,-2.4552,-2.4552,-2.4552,-2.4552,-2.4552,-2.4552,-2.4552,-2.4552,-2.4552,-2.4552,-2.4552,-2.4552,-2.4552,-2.4552,-2.413,-2.376,-2.376,-2.376,-2.376,-2.376,-2.376,-2.376,-2.376,-2.376,-2.376,-2.376,-2.376,-2.3748,-2.3724,-2.3724,-2.3712,-2.3768,-2.3768,-2.3768,-2.2928,-2.2928,-2.2928,-2.2928,-2.2928,-2.2939,-2.326,-2.3554,-2.3848,-2.4142,-2.4436,-2.4636,-2.4636,-2.4636,-2.4543,-2.4249,-2.4062,-2.4008,-2.4182,-2.4048,-2.4115,-2.4583,-2.4903,-2.5197,-2.5478,-2.5785,-2.6079,-2.6373,-2.6228,-2.599,-2.5514,-2.505,-2.4652,-2.4492,-2.4891,-2.5209,-2.5368,-2.5686,-2.599,-2.6149,-2.6149,-2.607,-2.5845,-2.5368,-2.497,-2.4811,-2.4412,-2.4252,-2.4252,-2.4652,-2.4891,-2.4891,-2.5368,-2.5514,-2.5594,-2.599,-2.6255,-2.64,-2.6574,-2.6359,-2.6044,-2.6148,-2.5715,-2.5057,-2.4649,-2.4392,-2.4311,-2.4311,-2.4311,-2.4311,-2.4311,-2.4311,-2.4311,-2.4311,-2.4395,-2.4468,-2.4468,-2.4552,-2.4625,-2.4625,-2.4625,-2.4625,-2.4625,-2.4625,-2.4625,-2.4625,-2.4625,-2.4625,-2.4625,-2.4625,-2.4625,-2.4625,-2.4444,-2.4311,-2.4311,-2.4311,-2.4311,-2.4311,-2.4311,-2.4311,-2.4311,-2.4166,-2.4082,-2.4082,-2.3844,-2.376,-2.376,-2.376,-2.376,-2.376,-2.376,-2.376,-2.2928,-2.2928,-2.2928,-2.2928,-2.2928,-2.2939,-2.326,-2.3554,-2.3848,-2.4142,-2.4436,-2.4636,-2.4636,-2.4636,-2.4543,-2.4249,-2.3955,-2.3848,-2.4048,-2.3901,-2.3955,-2.4449,-2.477,-2.509,-2.5478,-2.5852,-2.6172,-2.6373,-2.6386,-2.6307,-2.599,-2.5276,-2.4891,-2.4891,-2.513,-2.5368,-2.5448,-2.607,-2.6386,-2.6386,-2.6386,-2.6386,-2.6386,-2.5607,-2.5289,-2.5289,-2.4891,-2.4652,-2.4731,-2.513,-2.5289,-2.5368,-2.5832,-2.599,-2.6004,-2.64,-2.664,-2.6827,-2.6921,-2.6837,-2.6613,-2.6704,-2.6414,-2.6014,-2.5425,-2.5173,-2.5038,-2.5038,-2.5038,-2.5038,-2.5038,-2.4873,-2.479,-2.479,-2.478,-2.4745,-2.4745,-2.4806,-2.4866,-2.4866,-2.4866,-2.4866,-2.4866,-2.4866,-2.4866,-2.4866,-2.4866,-2.4866,-2.4866,-2.4866,-2.4866,-2.4866,-2.4866,-2.4806,-2.4637,-2.4625,-2.4625,-2.4625,-2.4625,-2.4625,-2.4625,-2.4456,-2.4347,-2.4347,-2.4166,-2.4082,-2.4082,-2.4082,-2.4033,-2.3961,-2.3961,-2.3925,-2.2928,-2.2928,-2.2928,-2.2928,-2.2928,-2.2939,-2.326,-2.3554,-2.3848,-2.4142,-2.4436,-2.4636,-2.4636,-2.4636,-2.4543,-2.4249,-2.3955,-2.3768,-2.3768,-2.3768,-2.3875,-2.4168,-2.4462,-2.4863,-2.5451,-2.6039,-2.6386,-2.6386,-2.6386,-2.6386,-2.6386,-2.599,-2.5753,-2.5753,-2.5832,-2.599,-2.6386,-2.6386,-2.6386,-2.6386,-2.6386,-2.6386,-2.6386,-2.599,-2.5832,-2.5753,-2.5289,-2.505,-2.513,-2.5594,-2.5832,-2.5832,-2.6228,-2.6386,-2.6426,-2.6707,-2.6814,-2.6867,-2.7161,-2.7009,-2.6639,-2.6952,-2.671,-2.6427,-2.6694,-2.6401,-2.5969,-2.5969,-2.5969,-2.5969,-2.5969,-2.5627,-2.5298,-2.5298,-2.5175,-2.4963,-2.4963,-2.5156,-2.5421,-2.5421,-2.5421,-2.5421,-2.5421,-2.5421,-2.5421,-2.5421,-2.5421,-2.5421,-2.5421,-2.5421,-2.5421,-2.5421,-2.5421,-2.5216,-2.4673,-2.4625,-2.4625,-2.4625,-2.4625,-2.4625,-2.4625,-2.4625,-2.4625,-2.4625,-2.4625,-2.4625,-2.4625,-2.4625,-2.4492,-2.4226,-2.4226,-2.4013,-2.2928,-2.2928,-2.2928,-2.2928,-2.2928,-2.2886,-2.2993,-2.3247,-2.3487,-2.3581,-2.3995,-2.4275,-2.4075,-2.4209,-2.4182,-2.3688,-2.3527,-2.3474,-2.3474,-2.3647,-2.3875,-2.4168,-2.481,-2.4849,-2.3932,-2.5401,-2.6386,-2.6386,-2.6386,-2.6386,-2.6386,-2.6307,-2.607,-2.5832,-2.5832,-2.5832,-2.599,-2.6228,-2.6386,-2.6386,-2.6386,-2.6386,-2.6386,-2.599,-2.5832,-2.5832,-2.5673,-2.5594,-2.5594,-2.607,-2.6228,-2.6241,-2.652,-2.668,-2.672,-2.7014,-2.7255,-2.7442,-2.7522,-2.7613,-2.7715,-2.7808,-2.7751,-2.7693,-2.7688,-2.7175,-2.6529,-2.6529,-2.6529,-2.6529,-2.6529,-2.6445,-2.6361,-2.6361,-2.6255,-2.6233,-2.6233,-2.6041,-2.5848,-2.5848,-2.5604,-2.5433,-2.5433,-2.5433,-2.5433,-2.5433,-2.5433,-2.5433,-2.5433,-2.5433,-2.5433,-2.5433,-2.5433,-2.5373,-2.5192,-2.518,-2.518,-2.518,-2.518,-2.518,-2.518,-2.5011,-2.4831,-2.4831,-2.4721,-2.4625,-2.4625,-2.4625,-2.4589,-2.4504,-2.4504,-2.4456,-2.2928,-2.2928,-2.2928,-2.2928,-2.2928,-2.2928,-2.2928,-2.31,-2.3327,-2.3327,-2.3714,-2.3981,-2.3808,-2.3915,-2.3888,-2.3407,-2.3327,-2.3287,-2.3166,-2.3514,-2.3699,-2.3499,-2.4569,-2.4775,-2.3239,-2.4997,-2.6266,-2.6386,-2.6386,-2.6386,-2.6386,-2.6386,-2.6307,-2.607,-2.607,-2.607,-2.607,-2.6307,-2.6386,-2.6386,-2.6386,-2.6386,-2.6386,-2.6149,-2.607,-2.607,-2.607,-2.607,0.0,-2.6307,-2.6453,-2.6573,-2.6747,-2.6894,-2.7028,-2.7321,-2.7549,-2.7709,-2.7829,-2.8073,-2.8221,-2.8221,-2.8221,-2.8221,-2.8221,-2.7799,-2.7292,-2.7292,-2.7292,-2.7292,-2.7292,-2.722,-2.705,-2.705,-2.6965,-2.6796,-2.6796,-2.6528,-2.6273,-2.6103,-2.5848,-2.5604,-2.5433,-2.5433,-2.5433,-2.5433,-2.5433,-2.5433,-2.5433,-2.5433,-2.5433,-2.5433,-2.5433,-2.5433,-2.5433,-2.5433,-2.5433,-2.5433,-2.5433,-2.5433,-2.5433,-2.5277,-2.5107,-2.5107,-2.5023,-2.4927,-2.4927,-2.483,-2.4782,-2.4782,-2.4673,-2.4625,0.0,-2.2928,-2.2928,-2.2928,-2.2928,-2.2928,-2.2928,-2.3086,0.0,-2.33,-2.3527,-2.3728,-2.3714,-2.3728,-2.3647,-2.334,-2.33,-2.3193,-2.2968,-2.338,-2.3393,-2.2311,-2.383,-2.4415,-2.306,-2.4675,-2.5923,-2.6201,-2.6307,-2.6386,-2.6386,-2.6386,-2.6386,-2.6386,-2.6386,-2.6386,-2.6386,-2.6386,-2.6386,-2.6386,-2.6386,-2.6386,-2.6386,-2.6386,-2.6386,-2.6386,-2.6386,-2.6386,-2.6386,-2.6413,-2.6587,-2.6827,-2.6867,-2.7054,-2.7335,-2.7629,-2.7736,-2.7762,-2.8127,-2.8221,-2.8221,-2.8221,-2.8221,-2.8221,-2.8221,-2.8221,-2.8221,-2.8221,-2.8221,-2.8221,-2.8221,-2.7897,-2.7571,-2.7571,-2.722,-2.6868,-2.6868,-2.6881,-2.6698,-2.6273,-2.6188,-2.6018,-2.5604,-2.5433,-2.5433,-2.5433,-2.5433,-2.5433,-2.5433,-2.5433,-2.5433,-2.5433,-2.5433,-2.5433,-2.5433,-2.5433,-2.5433,-2.5433,-2.5433,-2.5433,-2.5433,-2.5433,-2.5433,-2.5433,-2.5433,-2.5433,-2.5433,-2.5107,-2.4987,-2.4987,-2.4806,-2.4685,-2.2928,0.0,-2.2928,-2.2928,-2.2928,-2.2928,0.0,-2.2926,-2.2966,-2.2966,-2.322,-2.3354,-2.3113,-2.3273,-2.3327,-2.302,-2.2966,-2.2939,-2.2941,-2.338,-2.3393,-2.2311,-2.2841,-2.2718,-2.1257,-2.2936,-2.4157,-2.4363,-2.566,-2.6386,-2.6386,-2.6386,-2.6386,-2.6386,-2.6386,-2.6386,-2.6386,-2.6386,-2.6386,-2.6386,-2.6386,-2.6386,-2.6386,-2.6386,-2.6386,-2.6386,-2.6386,-2.6386,-2.6413,-2.6627,-2.676,-2.6867,-2.7321,-2.7535,-2.7629,-2.7923,-2.8043,-2.8043,-2.8207,-2.8221,-2.8221,-2.8221,-2.8221,-2.8221,-2.8221,-2.8221,-2.8221,-2.8221,-2.8221,-2.8221,-2.8221,-2.815,-2.8065,-2.8065,-2.7968,-2.7883,-2.7883,-2.7558,-2.7304,-2.722,-2.6881,-2.6613,-2.6456,-2.6188,-2.5933,-2.5933,-2.5604,-2.5433,-2.5433,-2.5433,-2.5433,-2.5433,-2.5433,-2.5433,-2.5433,-2.5433,-2.5433,-2.5433,-2.5433,-2.5433,-2.5433,-2.5433,-2.5433,-2.5433,-2.5433,-2.5433,-2.5433,-2.5373,-2.5349,-2.5337,-2.5277,-2.524,-2.2928,-2.2928,-2.2928,-2.2928,-2.2928,-2.2928,-2.2928,-2.2928,-2.2928,-2.2928,-2.2993,-2.306,-2.2968,-2.2441,-2.2285,-2.2817,-2.2297,-2.2181,-2.3164,-2.3674,-2.3246,-2.1342,-2.1893,-2.1661,-1.961,-2.1804,-2.3472,-2.3792,-2.5422,-2.6386,-2.6386,-2.6386,-2.6386,-2.6386,-2.6386,-2.6386,-2.6386,-2.6386,-2.6386,-2.6386,-2.6386,-2.6386,-2.6386,-2.6386,-2.6386,-2.6386,-2.6386,-2.6386,-2.6413,-2.6707,-2.6907,-2.7068,-2.7522,-2.7789,-2.7923,-2.8167,-2.8221,-2.8221,-2.8221,-2.8221,-2.8221,-2.8221,-2.8221,-2.8221,-2.8221,-2.8221,-2.8221,-2.8221,-2.8221,-2.8221,-2.8221,-2.8221,-2.8221,-2.8221,-2.8221,-2.8221,-2.8221,-2.7981,-2.7728,-2.7558,-2.7304,-2.705,-2.6881,-2.6443,-2.6103,-2.6103,-2.569,-2.5433,-2.5433,-2.5433,-2.5433,-2.5433,-2.5433,-2.5433,-2.5433,-2.5433,-2.5433,-2.5433,-2.5433,-2.5433,-2.5433,-2.5433,-2.5433,-2.5433,-2.5433,-2.5433,-2.5433,-2.5433,-2.5433,-2.5433,-2.5433,-2.5433,-2.2928,-2.2928,-2.2928,-2.2928,-2.2928,-2.2928,-2.2928,-2.2928,-2.2859,-2.2585,-2.2722,-2.2859,-2.2585,-2.1678,-2.139,-2.2722,-2.1854,-2.157,-2.3248,-2.3877,-2.3194,-2.0455,-2.1164,-2.0818,-1.8319,-2.0879,-2.29,-2.3309,-2.5238,-2.6386,-2.6386,-2.6386,-2.6386,-2.6386,-2.6386,-2.6386,-2.6386,-2.6386,-2.6386,-2.6386,-2.6386,-2.6386,-2.6386,-2.6386,-2.6386,-2.6386,-2.6386,-2.6386,-2.6413,-2.6747,-2.7041,-2.7295,-2.7629,-2.7923,-2.8221,-2.8221,-2.8221,-2.8221,-2.8221,-2.8221,-2.8221,-2.8221,-2.8221,-2.8221,-2.8221,-2.8221,-2.8221,-2.8221,-2.8221,-2.8221,-2.8221,-2.8221,-2.8221,-2.8221,-2.8221,-2.8221,-2.8221,-2.8221,-2.8065,-2.7643,-2.7643,-2.7474,-2.7037,-2.6613,-2.6273,-2.6273,-2.5945,-2.5604,-2.5604,-2.5519,-2.5519,-2.5519,-2.5433,-2.5433,-2.5433,-2.5433,-2.5433,-2.5433,-2.5433,-2.5433,-2.5433,-2.5433,-2.5433,-2.5433,-2.5433,-2.5433,-2.5433,-2.5433,-2.5433,-2.5433,-2.5433,-2.5433,-2.2928,-2.2928,-2.2928,-2.2928,-2.2928,-2.2928,-2.2928,-2.2928,-2.2516,-2.1183,-2.2022,-2.2516,-2.1183,-2.1816,-2.2654,-2.2859,-2.2879,-2.2652,-2.1963,-2.3202,-2.3645,-2.2037,-2.0864,-1.954,-1.7961,-1.9771,-2.1178,-2.1375,-2.4556,-2.6386,-2.6386,-2.6386,-2.6386,-2.6386,-2.6386,-2.6386,-2.6386,-2.6386,-2.6386,-2.6386,-2.6386,-2.6386,-2.6386,-2.6386,-2.6386,-2.6386,-2.6386,-2.6386,-2.6426,-2.6974,-2.7228,-2.7321,-2.7953,-2.8181,-2.8221,-2.8221,-2.8221,-2.8221,-2.8221,-2.8221,-2.8221,-2.8221,-2.8221,-2.8221,-2.8221,-2.8221,-2.8221,-2.8221,-2.8221,-2.8221,-2.8221,-2.8221,-2.8221,-2.8221,-2.8221,-2.8221,-2.8221,-2.8221,-2.815,-2.815,-2.8065,-2.8065,-2.7968,-2.7558,-2.7304,-2.7304,-2.6881,-2.6626,-2.6626,-2.6273,-2.6018,-2.6018,-2.5604,-2.5433,-2.5433,-2.5433,-2.5433,-2.5433,-2.5433,-2.5433,-2.5433,-2.5433,-2.5433,-2.5433,-2.5433,-2.5433,-2.5433,-2.5433,-2.5433,-2.5433,-2.5433,-2.5433,-2.2654,-2.231,-2.1885,-2.2722,-2.2928,-2.2654,-2.1885,-2.1678,-2.1252,-1.9715,-1.9993,-2.0479,-2.056,-1.9854,-1.9228,-1.9228,-2.0967,-2.2149,-2.1545,-2.3186,-2.3507,-2.1153,-2.0263,-1.8922,-1.6605,-1.8795,-2.0557,-2.0993,-2.4236,-2.6226,-2.6386,-2.6386,-2.6386,-2.6386,-2.6386,-2.6386,-2.6386,-2.6386,-2.6386,-2.6386,-2.5422,-2.5502,-2.6386,-2.6386,-2.6386,-2.6386,-2.6386,-2.648,-2.6653,-2.7094,-2.7362,-2.7549,-2.806,-2.8221,-2.8221,-2.8221,-2.8221,-2.8221,-2.8221,-2.8221,-2.8221,-2.8221,-2.8221,-2.8221,-2.8221,-2.8221,-2.8221,-2.8221,-2.8221,-2.8221,-2.8221,-2.8221,-2.8221,-2.8221,-2.8221,-2.8221,-2.8221,-2.8221,-2.8221,-2.8221,-2.8221,-2.8221,-2.8221,-2.7812,-2.7487,-2.7487,-2.6881,-2.6443,-2.6443,-2.6018,-2.5677,-2.5677,-2.5519,-2.5433,-2.5433,-2.5433,-2.5433,-2.5433,-2.5433,-2.5433,-2.5433,-2.5433,-2.5433,-2.5433,-2.5433,-2.5433,-2.5433,-2.5433,-2.5433,-2.5433,-2.5433,-2.5433,-2.2022,-2.1252,-2.034,-2.1527,-2.2366,-2.2516,-2.0975,-2.0629,-2.0074,-1.825,-1.817,-1.874,-1.9854,-1.846,-1.7067,-1.6715,-1.936,-2.1342,-2.1054,-2.307,-2.3426,-2.0188,-1.9811,-1.8597,-1.5466,-1.8212,-2.0229,-2.0279,-2.3815,-2.5896,-2.5714,-2.6188,-2.6386,-2.6386,-2.6386,-2.6386,-2.6386,-2.599,-2.599,-2.6386,-2.5025,-2.5104,-2.6386,-2.6386,-2.6386,-2.6386,-2.6386,-2.656,-2.6841,-2.7148,-2.7442,-2.7722,-2.8114,-2.8221,-2.8221,-2.8221,-2.8221,-2.8221,-2.8221,-2.8221,-2.8221,-2.8221,-2.8221,-2.8221,-2.8221,-2.8221,-2.8221,-2.8221,-2.8221,-2.8221,-2.8221,-2.8221,-2.8221,-2.8221,-2.8221,-2.8221,-2.8221,-2.8221,-2.8221,-2.8221,-2.8221,-2.8221,-2.8221,-2.7897,-2.7643,-2.7643,-2.6953,-2.6443,-2.6443,-2.5945,-2.5519,-2.5519,-2.5433,-2.5433,-2.5433,-2.5433,-2.5433,-2.5433,-2.5433,-2.5433,-2.5433,-2.5433,-2.5433,-2.5433,-2.5433,-2.5433,-2.5433,-2.5433,-2.5433,-2.5433,-2.5433,-2.5433,-2.0768,-1.9715,-1.8589,-1.8729,-2.0825,-2.2516,-2.0975,-2.0629,-1.9796,-1.6856,-1.7409,-1.8449,-1.8519,-1.9507,-1.9854,-1.8449,-2.0071,-2.1054,-1.967,-2.2398,-2.3426,-2.0188,-1.9811,-1.8537,-1.536,-1.8125,-1.9563,-1.8135,-2.2973,-2.5322,-2.3823,-2.5438,-2.6386,-2.6386,-2.6386,-2.6386,-2.6386,-2.4773,-2.4773,-2.6386,-2.6307,-2.6307,-2.6386,-2.6386,-2.6386,-2.6386,-2.6386,-2.656,-2.6841,-2.7148,-2.7442,-2.7722,-2.8114,-2.8221,-2.8221,-2.8221,-2.8221,-2.8221,-2.8221,-2.8221,-2.8221,-2.8221,-2.8221,-2.8221,-2.8221,-2.8221,-2.8221,-2.8221,-2.8221,-2.8221,-2.8221,-2.8221,-2.8221,-2.8221,-2.8221,-2.8221,-2.8221,-2.8221,-2.8221,-2.8221,-2.8221,-2.8221,-2.8221,-2.8136,-2.8136,-2.8136,-2.7728,-2.7389,-2.7389,-2.6613,-2.6018,-2.6018,-2.569,-2.5433,-2.5433,-2.5433,-2.5433,-2.5433,-2.5433,-2.5433,-2.5433,-2.5433,-2.5433,-2.5433,-2.5433,-2.5433,-2.5433,-2.5433,-2.5433,-2.5433,-2.5433,-2.5433,-2.0352,-1.9507,-1.8379,-1.8379,-2.0686,-2.2022,-1.86,-1.853,-1.839,-1.5381,-1.5168,-1.5867,-1.6775,-1.7409,-1.7619,-1.7057,-1.7929,-1.8799,-1.9235,-2.1505,-2.2297,-2.0037,-1.9811,-1.8527,-1.5344,-1.7081,-1.8708,-1.9234,-2.2189,-2.4239,-2.5062,-2.574,-2.6199,-2.6386,-2.6386,-2.5911,-2.4773,-2.4136,-2.3564,-2.3152,-2.4295,-2.5343,-2.6386,-2.6386,-2.6386,-2.6386,-2.6386,-2.6653,-2.7108,-2.7215,-2.7549,-2.7989,-2.8181,-2.8221,-2.8221,-2.8221,-2.8221,-2.8221,-2.8221,-2.8221,-2.8221,-2.8221,-2.8221,-2.8221,-2.8221,-2.8221,-2.8221,-2.8221,-2.8221,-2.8221,-2.8221,-2.8221,-2.8221,-2.8221,-2.8221,-2.8221,-2.8221,-2.8221,-2.8221,-2.8221,-2.8221,-2.8221,-2.8221,-2.7981,-2.7728,-2.7728,-2.7135,-2.6613,-2.6613,-2.603,-2.569,-2.569,-2.5519,-2.5433,-2.5433,-2.5433,-2.4909,-2.3697,-2.4738,-2.5433,-2.5433,-2.5433,-2.5433,-2.5433,-2.5433,-2.5433,-2.5433,-2.5433,-2.5433,-2.5433,-2.5433,-2.5433,-1.9019,-1.811,-1.6987,-1.6987,-1.8868,-1.9785,-1.6221,-1.6987,-1.7539,-1.4537,-1.4252,-1.4884,-1.5938,-1.6079,-1.6079,-1.6079,-1.6572,-1.7487,-1.909,-2.099,-2.1613,-1.9962,-1.9811,-1.8527,-1.5344,-1.6492,-1.7683,-1.8508,-2.1117,-2.3172,-2.4083,-2.5296,-2.6052,-2.6239,-2.6346,-2.5581,-2.3816,-2.3816,-2.3164,-2.2028,-2.3244,-2.4455,-2.5581,-2.6149,-2.6386,-2.6386,-2.6386,-2.672,-2.7268,-2.7268,-2.7698,-2.8221,-2.8221,-2.8221,-2.8221,-2.8221,-2.8221,-2.8221,-2.8221,-2.8221,-2.8221,-2.8221,-2.8221,-2.8221,-2.8221,-2.8221,-2.8221,-2.8221,-2.8221,-2.8221,-2.8221,-2.8221,-2.8221,-2.8221,-2.8221,-2.8221,-2.8221,-2.8221,-2.8221,-2.8221,-2.8065,-2.7981,-2.7981,-2.7558,-2.7304,-2.7304,-2.6613,-2.6103,-2.6103,-2.569,-2.5177,-2.4566,-2.4566,-2.4309,-2.3697,-2.3697,-2.3084,-2.1867,-2.2912,-2.3697,-2.3697,-2.3697,-2.3955,-2.4481,-2.4481,-2.4566,-2.4566,-2.4566,-2.4224,-2.3697,-2.3697,-2.3955,-1.6503,-1.5026,-1.3904,-1.3904,-1.5026,-1.5735,-1.4252,-1.6211,-1.7539,-1.4537,-1.5026,-1.6079,-1.6079,-1.6079,-1.6079,-1.6079,-1.6572,-1.7414,-1.909,-2.099,-2.1625,-1.9962,-1.9811,-1.8527,-1.5344,-1.6415,-1.6721,-1.5198,-1.9798,-2.1925,-2.0309,-2.3903,-2.6023,-2.6037,-2.6239,-2.5502,-2.3816,-2.3736,-2.3736,-2.3736,-2.3736,-2.3816,-2.3896,-2.5581,-2.6386,-2.6386,-2.6386,-2.672,-2.7268,-2.7268,-2.7698,-2.8221,-2.8221,-2.8221,-2.8221,-2.8221,-2.8221,-2.8221,-2.8221,-2.8221,-2.8221,-2.8221,-2.8221,-2.8221,-2.8221,-2.8221,-2.8221,-2.8221,-2.8221,-2.8221,-2.8221,-2.8221,-2.8221,-2.8221,-2.8221,-2.8221,-2.8221,-2.8221,-2.8221,-2.8221,-2.7812,-2.7487,-2.7487,-2.7135,-2.6783,-2.6783,-2.6358,-2.6103,-2.6103,-2.5677,-2.4652,-2.2912,-2.2654,-2.1953,-2.0047,-1.9873,-1.9873,-1.9873,-1.9873,-1.9873,-1.9873,-1.9873,-2.0742,-2.2568,-2.2568,-2.2654,-2.2654,-2.2654,-2.1608,-1.9873,-1.9873,-2.0915,-1.6221,-1.5806,-1.5168,-1.4181,-1.5797,-1.6987,-1.4102,-1.5159,-1.6221,-1.4324,-1.4252,-1.4884,-1.5938,-1.5239,-1.4884,-1.5947,-1.5569,-1.6103,-1.8945,-2.0029,-2.0338,-1.9887,-1.9811,-1.8527,-1.5344,-1.542,-1.6483,-1.8224,-1.98,-2.1511,-2.353,-2.4783,-2.5531,-2.6023,-2.4918,-2.3531,-2.2028,-2.0727,-1.9521,-1.8318,-2.0818,-2.3244,-2.566,-2.6149,-2.6386,-2.6386,-2.6386,-2.672,-2.7295,-2.7792,-2.8073,-2.8221,-2.8221,-2.8221,-2.8221,-2.8221,-2.8221,-2.8221,-2.8221,-2.8221,-2.8221,-2.8221,-2.8221,-2.8221,-2.8221,-2.8221,-2.8221,-2.8221,-2.8221,-2.8221,-2.8221,-2.8221,-2.8221,-2.8221,-2.8221,-2.8221,-2.8221,-2.8221,-2.8065,-2.7728,-2.7571,-2.7389,-2.705,-2.6613,-2.6273,-2.6273,-2.5933,-2.5604,-2.5604,-2.3256,-2.178,-2.2568,-2.1521,-2.0482,-1.996,-1.9873,-1.9351,-1.8051,-1.7964,-1.8479,-1.9873,-1.9873,-2.0134,-2.0655,-2.0742,-2.0742,-2.0742,-2.0742,-2.0395,-1.9873,-1.9873,-2.0221,-1.5381,-1.5239,-1.4955,-1.3896,-1.5017,-1.5787,-1.3603,-1.3959,-1.46,-1.3825,-1.3539,-1.3753,-1.46,-1.403,-1.3753,-1.4671,-1.4269,-1.4868,-1.7706,-1.8979,-1.9359,-1.8905,-1.9434,-1.8527,-1.5344,-1.4968,-1.5803,-1.7768,-1.9057,-2.0706,-2.2904,-2.4321,-2.5237,-2.5598,-2.4881,-2.332,-2.1082,-2.0119,-1.8789,-1.7091,-1.9196,-2.2028,-2.5422,-2.607,-2.6386,-2.64,-2.6507,-2.6827,-2.7308,-2.7776,-2.8114,-2.8221,-2.8221,-2.8221,-2.8221,-2.8221,-2.8221,-2.8221,-2.8221,-2.8221,-2.8221,-2.8221,-2.8221,-2.8221,-2.8221,-2.8221,-2.8221,-2.8221,-2.8221,-2.8221,-2.8221,-2.8221,-2.8221,-2.8221,-2.8221,-2.8221,-2.8221,-2.8221,-2.8065,-2.7558,-2.7304,-2.705,-2.6613,-2.5495,-2.4982,-2.5677,-2.4994,-2.4041,-2.3342,-2.1262,-2.0047,-2.0395,-1.9438,-1.8479,-1.7701,-1.7701,-1.7175,-1.6042,-1.5961,-1.6481,-1.7613,-1.7701,-1.8051,-1.8741,-1.8828,-1.8828,-1.8828,-1.8828,-1.8392,-1.7701,-1.7701,-1.8051,-1.4252,-1.3833,-1.3761,-1.3325,-1.3253,-1.3111,-1.2824,-1.2753,-1.2824,-1.3182,-1.3039,-1.2824,-1.2824,-1.2824,-1.2824,-1.2824,-1.3036,-1.3913,-1.6039,-1.7872,-1.8592,-1.755,-1.8678,-1.8375,-1.5267,-1.4968,-1.5045,-1.5198,-1.792,-1.9736,-1.9962,-2.3067,-2.49,-2.5077,-2.5381,-2.3943,-2.0867,-2.0782,-1.9927,-1.8381,-1.8545,-2.0322,-2.3656,-2.5343,-2.6228,-2.64,-2.6694,-2.6987,-2.7281,-2.7575,-2.7869,-2.8221,-2.8221,-2.8221,-2.8221,-2.8221,-2.8221,-2.8221,-2.8221,-2.8221,-2.8221,-2.8221,-2.8221,-2.8221,-2.8221,-2.8221,-2.8221,-2.8221,-2.8221,-2.8221,-2.8221,-2.8221,-2.8221,-2.8221,-2.8221,-2.8221,-2.8221,-2.8221,-2.7968,-2.7389,-2.6881,-2.6358,-2.575,-2.3858,-2.2998,-2.4652,-2.3256,-2.1608,-2.0134,-1.9613,-1.8828,-1.7263,-1.6912,-1.613,-1.4476,-1.4299,-1.4299,-1.4299,-1.4299,-1.4299,-1.4299,-1.4299,-1.5087,-1.6833,-1.6825,-1.6825,-1.6825,-1.6825,-1.5954,-1.4299,-1.4299,-1.5175,-1.3611,-1.3396,-1.3325,-1.2968,-1.2689,-1.2474,-1.2753,-1.233,-1.2043,-1.2753,-1.2824,-1.2824,-1.2824,-1.2824,-1.2824,-1.2824,-1.3036,-1.3913,-1.6039,-1.6908,-1.7312,-1.7407,-1.7702,-1.7169,-1.519,-1.4968,-1.5497,-1.6797,-1.755,-1.8981,-2.155,-2.2433,-2.3542,-2.5077,-2.2769,-2.1312,-2.0787,-1.8369,-1.6936,-1.6607,-1.7983,-1.9674,-2.1786,-2.3564,-2.5104,-2.64,-2.6694,-2.6987,-2.7281,-2.7575,-2.7869,-2.8221,-2.8221,-2.8221,-2.8221,-2.8221,-2.8221,-2.8221,-2.8221,-2.8221,-2.8221,-2.8221,-2.8221,-2.8221,-2.8221,-2.8221,-2.8221,-2.8221,-2.8221,-2.8221,-2.8221,-2.8221,-2.8221,-2.8221,-2.8221,-2.8221,-2.8221,-2.8221,-2.763,-2.5665,-2.4959,-2.4006,-2.2115,-2.1078,-2.0655,-2.1002,-1.9525,-1.8654,-1.9786,-1.7351,-1.5873,-1.7,-1.5785,-1.4734,-1.4299,-1.4299,-1.4299,-1.4299,-1.4299,-1.4299,-1.4299,-1.4299,-1.4476,-1.4911,-1.4911,-1.4911,-1.4911,-1.4911,-1.4646,-1.4299,-1.4299,-1.4564,-1.3325,-1.3182,-1.2968,-1.2617,-1.2187,-1.1979,-1.2187,-1.19,-1.1691,-1.2115,-1.2259,-1.2259,-1.2259,-1.2259,-1.2259,-1.2259,-1.245,-1.3103,-1.4424,-1.6373,-1.7227,-1.6109,-1.7474,-1.7626,-1.519,-1.4968,-1.5344,-1.6186,-1.695,-1.8461,-2.0939,-2.1775,-2.3042,-2.4789,-2.2605,-2.1157,-2.0537,-1.8309,-1.6768,-1.6048,-1.6936,-1.8708,-2.1303,-2.3884,-2.5502,-2.64,-2.6547,-2.6867,-2.7281,-2.7428,-2.7749,-2.8221,-2.8221,-2.8221,-2.8221,-2.8221,-2.8221,-2.8221,-2.8221,-2.8221,-2.8221,-2.8221,-2.8221,-2.8221,-2.8221,-2.8221,-2.8221,-2.8221,-2.8221,-2.8221,-2.8221,-2.8221,-2.7968,-2.7096,-2.7532,-2.7968,-2.7025,-2.6842,-2.6066,-2.3492,-2.2804,-2.2191,-2.0558,-2.0047,-1.9264,-1.7526,-1.7175,-1.7088,-1.7175,-1.5521,-1.4653,-1.5609,-1.4911,-1.4299,-1.4299,-1.4299,-1.4299,-1.4299,-1.4299,-1.4299,-1.4299,-1.4299,-1.4299,-1.4299,-1.4299,-1.4299,-1.4299,-1.4299,-1.4299,-1.4299,-1.4299,-1.4299,-1.3253,-1.2896,-1.2545,-1.2194,-1.1835,-1.1619,-1.1619,-1.1619,-1.1619,-1.1619,-1.1619,-1.1619,-1.1619,-1.1619,-1.1619,-1.1619,-1.187,-1.221,-1.2657,-1.5546,-1.6846,-1.4669,-1.7017,-1.7844,-1.5267,-1.4968,-1.4968,-1.4968,-1.6262,-1.7702,-1.9283,-2.0939,-2.2521,-2.4105,-2.2941,-2.1593,-2.0277,-1.8777,-1.7315,-1.5966,-1.6287,-1.8146,-2.1303,-2.4522,-2.6149,-2.6386,-2.6386,-2.672,-2.7268,-2.6928,-2.7354,-2.8136,-2.7883,-2.7883,-2.8221,-2.8221,-2.8221,-2.8221,-2.8221,-2.8221,-2.8221,-2.8221,-2.8221,-2.8221,-2.8221,-2.8221,-2.8221,-2.8221,-2.8221,-2.8221,-2.8221,-2.7968,-2.7363,-2.5811,-2.6321,-2.6842,-2.5288,-2.4861,-2.3995,-2.1338,-2.0472,-1.9864,-1.909,-1.8916,-1.7876,-1.4734,-1.5609,-1.6042,-1.4476,-1.4299,-1.4299,-1.4299,-1.4299,-1.4299,-1.4299,-1.4299,-1.4299,-1.4299,-1.4299,-1.4299,-1.4299,-1.4299,-1.4299,-1.4299,-1.4299,-1.4299,-1.4299,-1.4299,-1.4299,-1.4299,-1.4299,-1.4299,-1.3039,-1.233,-1.1763,-1.1691,-1.1619,-1.1619,-1.1619,-1.1619,-1.1619,-1.1619,-1.1619,-1.1619,-1.1619,-1.1619,-1.1619,-1.1619,-1.187,-1.221,-1.2657,-1.3376,-1.396,-1.4361,-1.4822,-1.5122,-1.5045,-1.4968,-1.4968,-1.4968,-1.5198,-1.6033,-1.7626,-1.9283,-2.0864,-2.2446,-2.1178,-2.0429,-2.0277,-1.751,-1.6105,-1.6048,-1.7492,-1.9277,-2.1303,-2.3244,-2.4945,-2.6386,-2.6386,-2.672,-2.7186,-2.5507,-2.6166,-2.8052,-2.6418,-2.6758,-2.8221,-2.8221,-2.8221,-2.8221,-2.8221,-2.8221,-2.8221,-2.8221,-2.8221,-2.8221,-2.8221,-2.8221,-2.8221,-2.8221,-2.8221,-2.8221,-2.8221,-2.7012,-2.5726,-2.5458,-2.4349,-2.3309,-2.3052,-2.2622,-2.176,-1.9873,-1.7526,-1.569,-1.5175,-1.5087,-1.4911,-1.4387,-1.4476,-1.4564,-1.4299,-1.4299,-1.4299,-1.4299,-1.4299,-1.4299,-1.4299,-1.4299,-1.4299,-1.4299,-1.4299,-1.4299,-1.4299,-1.4299,-1.4299,-1.4299,-1.4299,-1.4299,-1.4299,-1.4299,-1.4299,-1.4299,-1.4299,-1.4299,-1.2689,-1.2043,-1.1619,-1.1619,-1.1619,-1.1619,-1.1619,-1.1619,-1.1619,-1.1619,-1.1619,-1.1619,-1.1619,-1.1619,-1.1619,-1.1619,-1.1796,-1.2039,-1.2345,-1.3514,-1.4228,-1.4037,-1.5045,-1.5573,-1.5045,-1.4968,-1.4968,-1.4968,-1.4968,-1.5727,-1.7331,-1.8082,-1.9208,-2.0789,-1.9378,-1.8685,-1.8946,-1.6774,-1.5772,-1.6048,-1.7737,-1.9024,-1.9836,-2.2591,-2.4786,-2.6386,-2.6386,-2.6146,-2.5672,-2.4836,-2.4735,-2.4947,-2.4178,-2.4349,-2.5203,-2.6236,-2.6673,-2.6758,-2.7883,-2.8221,-2.8221,-2.8221,-2.8221,-2.8221,-2.8221,-2.8221,-2.8221,-2.8221,-2.8221,-2.7968,-2.6927,-2.5981,-2.4861,-2.2794,-2.1684,-2.0819,-1.9786,-2.0211,-2.0038,-1.7709,-1.5785,-1.4557,-1.4299,-1.4299,-1.4299,-1.4299,-1.4299,-1.4299,-1.4299,-1.4299,-1.4299,-1.4299,-1.4299,-1.4299,-1.4299,-1.4299,-1.4299,-1.4299,-1.4299,-1.4299,-1.4299,-1.4299,-1.4299,-1.4299,-1.4299,-1.4299,-1.4299,-1.4299,-1.4299,-1.4299,-1.4299,-1.4299,-1.2474,-1.1979,-1.1619,-1.1619,-1.1619,-1.1619,-1.1619,-1.1619,-1.1619,-1.1619,-1.1619,-1.1619,-1.1619,-1.1619,-1.1619,-1.1619,-1.1742,-1.1884,-1.204,-1.3522,-1.4362,-1.3799,-1.5037,-1.5718,-1.5045,-1.4968,-1.4968,-1.4968,-1.4968,-1.5497,-1.6721,-1.755,-1.8385,-1.9132,-1.8461,-1.7981,-1.7933,-1.6393,-1.578,-1.6048,-1.7337,-1.8137,-1.8708,-2.1786,-2.4056,-2.574,-2.6228,-2.5651,-2.4423,-2.401,-2.3297,-2.2536,-2.2105,-2.2191,-2.2794,-2.4166,-2.4947,-2.5641,-2.7012,-2.7799,-2.8221,-2.8221,-2.8221,-2.8221,-2.8221,-2.7883,-2.7617,-2.8052,-2.7532,-2.6588,-2.5641,-2.4691,-2.3309,-2.0558,-1.9525,-1.875,-1.7104,-1.7885,-1.8139,-1.5793,-1.4741,-1.4299,-1.4299,-1.4299,-1.4299,-1.4299,-1.4299,-1.4299,-1.4299,-1.4299,-1.4299,-1.4299,-1.4299,-1.4299,-1.4299,-1.4299,-1.4299,-1.4299,-1.4299,-1.4299,-1.4299,-1.4299,-1.4299,-1.4299,-1.4299,-1.4299,-1.4299,-1.4299,-1.4299,-1.4299,-1.4299,-1.4299,-1.2753,-1.2187,-1.1619,-1.1619,-1.1619,-1.1619,-1.1619,-1.1619,-1.1619,-1.1619,-1.1619,-1.1619,-1.1619,-1.1619,-1.1619,-1.1619,-1.1742,-1.1884,-1.204,-1.234,-1.2796,-1.3568,-1.3821,-1.4122,-1.4968,-1.4968,-1.4968,-1.4968,-1.4968,-1.5045,-1.5122,-1.7996,-1.8981,-1.755,-1.8905,-1.9121,-1.7933,-1.6649,-1.5942,-1.5966,-1.6122,-1.7009,-1.8626,-2.0484,-2.2269,-2.4056,-2.566,-2.5651,-2.4341,-2.2671,-2.2202,-2.2449,-2.0732,-2.1078,-2.2622,-2.2708,-2.3824,-2.5385,-2.5556,-2.6673,-2.8221,-2.8221,-2.8221,-2.8221,-2.8221,-2.6927,-2.5896,-2.7701,-2.5641,-2.3309,-2.4947,-2.2794,-2.0134,-1.996,-1.8584,-1.7024,-1.5969,-1.5881,-1.5616,-1.4564,-1.4299,-1.4299,-1.4299,-1.4299,-1.4299,-1.4299,-1.4299,-1.4299,-1.4299,-1.4299,-1.4299,-1.4299,-1.4299,-1.4299,-1.4299,-1.4299,-1.4299,-1.4299,-1.4299,-1.4299,-1.4299,-1.4299,-1.4299,-1.4299,-1.4299,-1.4299,-1.4299,-1.4299,-1.4299,-1.4299,-1.4299,-1.4299,-1.2474,-1.2051,-1.1619,-1.1619,-1.1619,-1.1619,-1.1619,-1.1619,-1.1619,-1.1619,-1.1619,-1.1619,-1.1619,-1.1619,-1.1619,-1.1619,-1.166,-1.1782,-1.2026,-1.2108,-1.2464,-1.3245,-1.3513,-1.3975,-1.4592,-1.4814,-1.4968,-1.4968,-1.4968,-1.4968,-1.4968,-1.6101,-1.6483,-1.588,-1.6406,-1.6602,-1.637,-1.6105,-1.5966,-1.5966,-1.5966,-1.6369,-1.7018,-1.8708,-2.0484,-2.2189,-2.2751,-2.2958,-2.2588,-2.0846,-1.9676,-1.9012,-1.8322,-1.8497,-1.9186,-2.0385,-2.1251,-2.2029,-2.3223,-2.3995,-2.4776,-2.5981,-2.6406,-2.6406,-2.6406,-2.5896,-2.5288,-2.4776,-2.3652,-2.2449,-2.2029,-2.0905,-1.9613,-1.841,-1.7359,-1.6489,-1.5881,-1.544,-1.5175,-1.4822,-1.4476,-1.4299,-1.4299,-1.4299,-1.4299,-1.4299,-1.4299,-1.4299,-1.4299,-1.4299,-1.4299,-1.4299,-1.4299,-1.4299,-1.4299,-1.4299,-1.4299,-1.4299,-1.4299,-1.4299,-1.4299,-1.4299,-1.4299,-1.4299,-1.4299,-1.4299,-1.4299,-1.4299,-1.4299,-1.4299,-1.4299,-1.4299,-1.2474,-1.1979,-1.1619,-1.1619,-1.1619,-1.1619,-1.1619,-1.1619,-1.1619,-1.1619,-1.1619,-1.1619,-1.1619,-1.1619,-1.1619,-1.1619,-1.1619,-1.1701,-1.1952,-1.2033,-1.2306,-1.2936,-1.3322,-1.3667,-1.413,-1.443,-1.4661,-1.4814,-1.4814,-1.4891,-1.4968,-1.5497,-1.5803,-1.5803,-1.5391,-1.5268,-1.5512,-1.5869,-1.5966,-1.5966,-1.5966,-1.5966,-1.6048,-1.7819,-1.9186,-2.0322,-2.0322,-2.0918,-2.1671,-1.9933,-1.8403,-1.7112,-1.7112,-1.7112,-1.7288,-1.8497,-1.9351,-2.0047,-2.1251,-2.2105,-2.2794,-2.4081,-2.4434,-2.4434,-2.4434,-2.3995,-2.3395,-2.2794,-2.1673,-2.0645,-2.0047,-1.9438,-1.8663,-1.7367,-1.6585,-1.6049,-1.5793,-1.5352,-1.4903,-1.4822,-1.4476,-1.4299,-1.4299,-1.4299,-1.4299,-1.4299,-1.4299,-1.4299,-1.4299,-1.4299,-1.4299,-1.4299,-1.4299,-1.4299,-1.4299,-1.4299,-1.4299,-1.4299,-1.4299,-1.4299,-1.4299,-1.4299,-1.4299,-1.4299,-1.4299,-1.4299,-1.4299,-1.4299,-1.4299,-1.4299,-1.4299,-1.4299,0.0,0.0,0.0,-1.1619,-1.1613,-1.1613,-1.1613,-1.1613,-1.1613,-1.1613,-1.1613,-1.1619,-1.1619,-1.1619,-1.1619,-1.1619,-1.1619,-1.1667,-1.1809,-1.1959,-1.2258,-1.2788,-1.302,-1.3274,-1.3667,-1.3667,-1.3898,-1.4368,-1.4368,-1.4592,-1.4968,-1.6492,-1.7331,-1.7331,-1.6102,-1.5512,-1.5512,-1.5869,-1.5966,-1.5966,-1.5966,-1.5966,-1.6048,-1.7737,-1.8545,-1.8626,-1.8545,-1.9769,-2.1599,-1.9848,-1.8326,-1.7112,-1.7112,-1.7112,-1.7112,-1.7112,-1.8235,-1.9786,-1.9786,-2.0992,-2.2449,-2.2536,-2.2536,-2.2536,-2.2536,-2.1251,-2.0211,-2.1932,-1.9873,-1.7543,-1.9361,-1.8497,-1.7112,-1.7112,-1.6409,-1.5704,-1.5704,-1.5352,-1.4822,-1.4387,-1.4299,-1.4299,-1.4299,-1.4299,-1.4299,-1.4299,-1.4299,-1.4299,-1.4299,-1.4299,-1.4299,-1.4299,-1.4299,-1.4299,-1.4299,-1.4299,-1.4299,-1.4299,-1.4299,-1.4299,-1.4299,-1.4299,-1.4299,-1.4299,-1.4299,-1.4299,-1.4299,-1.4299,-1.4299,-1.4299,-1.4299,-1.4299,-1.2474,0.0,0.0,0.0,0.0,0.0,-1.1457,-1.1457,-1.1457,-1.1457,-1.1545,-1.1619,-1.1619,-1.1619,-1.1619,-1.1619,-1.1619,-1.1667,-1.1809,-1.187,-1.2067,-1.2409,-1.2775,-1.3068,-1.3267,-1.3513,-1.3744,-1.3898,-1.4207,-1.4438,-1.4592,-1.5275,-1.565,-1.565,-1.5561,-1.5512,-1.5512,-1.5869,-1.5966,-1.5966,-1.5966,-1.5966,-1.6048,-1.6534,-1.7419,-1.8545,-1.7255,-1.7971,-1.9764,-1.801,-1.7218,-1.7112,-1.7112,-1.7112,-1.7112,-1.7112,-1.7455,-1.7885,-1.7885,-1.8235,-1.8837,-2.0211,-2.0645,-2.0645,-2.0645,-2.0298,-1.97,-1.8837,-1.7885,-1.72,-1.7718,-1.7455,-1.7112,-1.7112,-1.6409,-1.5704,-1.5704,-1.5087,-1.4476,-1.4299,-1.4299,-1.4299,-1.4299,-1.4299,-1.4299,-1.4299,-1.4299,-1.4299,-1.4299,-1.4299,-1.4299,-1.4299,-1.4299,-1.4299,-1.4299,-1.4299,-1.4299,-1.4299,-1.4299,-1.4299,-1.4299,-1.4299,-1.4299,-1.4299,-1.4299,-1.4299,-1.4299,-1.4299,-1.4299,-1.4299,-1.4299,-1.4299,-1.276,-1.2409,-1.2122,-1.1907,0.0,0.0,-1.147,-1.1436,-1.1409,-1.147,-1.1558,-1.1619,-1.1619,-1.1619,-1.1619,-1.1619,-1.1619,-1.1647,-1.1728,-1.1796,-1.1918,-1.2162,-1.2471,-1.272,-1.2874,-1.3042,-1.3274,-1.3428,-1.3667,-1.4053,-1.4361,-1.4814,-1.4968,-1.4968,-1.5325,-1.5512,-1.5512,-1.5869,-1.5966,-1.5966,-1.5966,-1.5966,-1.5966,-1.5966,-1.6525,-1.7501,-1.6451,-1.6826,-1.801,-1.7001,-1.6787,-1.7112,-1.7112,-1.7112,-1.7112,-1.7112,-1.7112,-1.7112,-1.7112,-1.7112,-1.7279,-1.841,-1.875,-1.875,-1.875,-1.875,-1.8497,-1.7367,-1.7112,-1.7112,-1.7112,-1.7112,-1.7112,-1.7112,-1.6409,-1.5704,-1.5704,-1.5006,-1.4299,-1.4299,-1.4299,-1.4299,-1.4299,-1.4299,-1.4299,-1.4299,-1.4299,-1.4299,-1.4299,-1.4299,-1.4299,-1.4299,-1.4299,-1.4299,-1.4299,-1.4299,-1.4299,-1.4299,-1.4299,-1.4299,-1.4299,-1.4299,-1.4299,-1.4299,-1.4299,-1.4299,-1.4299,-1.4299,-1.4299,-1.4299,-1.4299,-1.4299,-1.3325,-1.2832,-1.2338,-1.2266,-1.186,0.0,-1.1637,-1.1491,-1.143,-1.1565,-1.1606,-1.1619,-1.1619,-1.1619,-1.1619,-1.1619,-1.1619,-1.1619,-1.1619,-1.1728,-1.1864,-1.202,-1.2176,-1.2318,-1.2467,-1.2494,-1.2656,-1.3042,-1.312,-1.3513,-1.4368,-1.4814,-1.4976,-1.4992,-1.5333,-1.5528,-1.5545,-1.5878,-1.5966,-1.5966,-1.5966,-1.5966,-1.5966,-1.5966,-1.5966,-1.5966,-1.5966,-1.6251,-1.6584,-1.6584,-1.6787,-1.7112,-1.7112,-1.7112,-1.7112,-1.7112,-1.7112,-1.7112,-1.7112,-1.7112,-1.7112,-1.7112,-1.7112,-1.7112,-1.7112,-1.7112,-1.7112,-1.7112,-1.7112,-1.7112,-1.7112,-1.7112,-1.7112,-1.7112,-1.6409,-1.5704,-1.5704,-1.5006,-1.4299,-1.4299,-1.4299,-1.4299,-1.4299,-1.4299,-1.4299,-1.4299,-1.4299,-1.4299,-1.4299,-1.4299,-1.4299,-1.4299,-1.4299,-1.4299,-1.4299,-1.4299,-1.4299,-1.4299,-1.4299,-1.4299,-1.4299,-1.4299,-1.4299,-1.4299,-1.4299,-1.4299,-1.4299,-1.4299,-1.4299,-1.4299,-1.4299,-1.4299,-1.3396,-1.3182,-1.3039,-1.276,-1.2279,0.0,-1.1924,-1.1621,-1.1402,-1.143,-1.1531,-1.1619,-1.1619,-1.1619,-1.1619,-1.1619,-1.1619,-1.1619,-1.1619,-1.1647,-1.1714,-1.1857,-1.2013,-1.2169,-1.2318,-1.2433,-1.2501,-1.2579,-1.3197,-1.3821,-1.4361,-1.4814,-1.5033,-1.5179,-1.5398,-1.5585,-1.5723,-1.5934,-1.5966,-1.5966,-1.5966,-1.5966,-1.5966,-1.5966,-1.5966,-1.5966,-1.5966,-1.6251,-1.6584,-1.6584,-1.6787,-1.7112,-1.7112,-1.7112,-1.7112,-1.7112,-1.7112,-1.7112,-1.7112,-1.7112,-1.7112,-1.7112,-1.7112,-1.7112,-1.7112,-1.7112,-1.7112,-1.7112,-1.7112,-1.7112,-1.7112,-1.7112,-1.7112,-1.7112,-1.6409,-1.5704,-1.5704,-1.5006,-1.4299,-1.4299,-1.4299,-1.4299,-1.4299,-1.4299,-1.4299,-1.4299,-1.4299,-1.4299,-1.4299,-1.4299,-1.4299,-1.4299,-1.4299,-1.4299,-1.4299,-1.4299,-1.4299,-1.4299,-1.4299,-1.4299,-1.4299,-1.4299,-1.4299,-1.4299,-1.4299,-1.4299,-1.4299,-1.4299,-1.4299,-1.4299,-1.4299,-1.4299,-1.3682,-1.3468,-1.3253,-1.3111,-1.2634,0.0,0.0,-1.1875,-1.1691,-1.1562,-1.1565,-1.1619,-1.1619,-1.1619,-1.1619,-1.1619,-1.1619,-1.1619,-1.1619,-1.1619,-1.1674,-1.1816,-1.1965,-1.2121,-1.2277,-1.242,-1.2501,-1.2501,-1.3042,-1.359,-1.4053,-1.4438,-1.4825,-1.5158,-1.5423,-1.5601,-1.5772,-1.5951,-1.5966,-1.5966,-1.5966,-1.5966,-1.5966,-1.5966,-1.5966,-1.5966,-1.5966,-1.6251,-1.6584,-1.6584,-1.6787,-1.7112,-1.7112,-1.7112,-1.7112,-1.7112,-1.7112,-1.7112,-1.7112,-1.7112,-1.7112,-1.7112,-1.7112,-1.7112,-1.7112,-1.7112,-1.7112,-1.7112,-1.7112,-1.7112,-1.7112,-1.7112,-1.7024,-1.6841,-1.6233,-1.5616,-1.544,-1.4822,-1.4299,-1.4299,-1.4299,-1.4299,-1.4299,-1.4299,-1.4299,-1.4299,-1.4299,-1.4299,-1.4299,-1.4299,-1.4299,-1.4299,-1.4299,-1.4299,-1.4299,-1.4299,-1.4299,-1.4299,-1.4299,-1.4299,-1.4299,-1.4299,-1.4299,-1.4299,-1.4299,-1.4299,-1.4299,-1.4299,-1.4299,-1.4299,-1.4299,-1.4299,-1.3904,-1.3682,-1.3396,-1.3396,-1.3011,-1.2596,0.0,0.0,0.0,-1.1807,-1.1691,-1.1691,-1.1619,-1.1619,-1.1613,-1.1579,-1.1599,-1.1606,-1.1579,-1.1599,-1.166,-1.1775,-1.1925,-1.2074,-1.223,-1.24,-1.2501,-1.2501,-1.2888,-1.3274,-1.366,-1.416,-1.4726,-1.5206,-1.5472,-1.565,-1.5821,-1.5975,-1.5966,-1.5966,-1.5966,-1.5966,-1.5966,-1.5966,-1.5966,-1.5966,-1.5966,-1.6251,-1.6584,-1.6584,-1.6787,-1.7112,-1.7112,-1.7112,-1.7112,-1.7112,-1.7112,-1.7112,-1.7112,-1.7112,-1.7112,-1.7112,-1.7112,-1.7112,-1.7112,-1.7112,-1.7112,-1.7112,-1.7112,-1.7112,-1.7112,-1.7112,-1.7024,-1.6489,-1.6049,-1.5528,-1.5087,-1.4646,-1.4299,-1.4299,-1.4299,-1.4299,-1.4299,-1.4299,-1.4299,-1.4299,-1.4299,-1.4299,-1.4299,-1.4299,-1.4299,-1.4299,-1.4299,-1.4299,-1.4299,-1.4299,-1.4299,-1.4299,-1.4299,-1.4299,-1.4299,-1.4299,-1.4312,-1.434,-1.434,-1.4353,-1.4387,-1.4387,-1.4373,-1.434,-1.434,-1.4353,-1.3904,-1.3904,-1.3833,-1.3833,-1.3523,-1.323,-1.3182,0.0,-1.2595,-1.2187,0.0,-1.2051,-1.1691,0.0,0.0,-1.1436,-1.1531,-1.1572,-1.1436,-1.1531,-1.1626,-1.164,-1.1769,-1.1918,-1.2074,-1.2338,-1.2501,-1.2501,-1.2888,-1.3274,-1.366,-1.4268,-1.4822,-1.548,-1.565,-1.5829,-1.6016,-1.595,-1.5966,-1.5966,-1.5966,-1.5966,-1.5966,-1.5966,-1.5966,-1.5966,-1.5966,-1.6251,-1.6584,-1.6584,-1.6787,-1.7112,-1.7112,-1.7112,-1.7112,-1.7112,-1.7112,-1.7112,-1.7112,-1.7112,-1.7112,-1.7112,-1.7112,-1.7112,-1.7112,-1.7112,-1.7112,-1.7112,-1.7112,-1.7112,-1.7112,-1.7112,-1.7024,-1.6489,-1.6049,-1.5528,-1.5087,-1.4646,-1.4299,-1.4299,-1.4299,-1.4299,-1.4299,-1.4299,-1.4299,-1.4299,-1.4299,-1.4299,-1.4299,-1.4299,-1.4299,-1.4299,-1.4299,-1.4299,-1.4299,-1.4299,-1.4299,-1.4299,-1.4299,-1.4299,-1.4299,-1.4299,-1.436,-1.4482,-1.4489,-1.4557,-1.4692,-1.4692,-1.4618,-1.4489,-1.4489,-1.4563,-1.3904,-1.3904,-1.3904,-1.3904,-1.3753,-1.3611,-1.3325,0.0,-1.2968,-1.2617,0.0,0.0,0.0,0.0,0.0,0.0,-1.1722,-1.1599,-1.1531,-1.1579,-1.1619,-1.1619,-1.1742,-1.1925,-1.2169,-1.2609,-1.2888,-1.2888,-1.3197,-1.3667,-1.4053,-1.4439,-1.4845,-1.5512,-1.5683,-1.5861,-1.5958,-1.5801,-1.5801,-1.5966,-1.5793,-1.5801,-1.5966,-1.5966,-1.5966,-1.5974,-1.6154,-1.6341,-1.6592,-1.6698,-1.6885,-1.7112,-1.7112,-1.7112,-1.7112,-1.7112,-1.7112,-1.7112,-1.7112,-1.7112,-1.7112,-1.7112,-1.7112,-1.7112,-1.7112,-1.7112,-1.7112,-1.7112,-1.7112,-1.7112,-1.7112,-1.7112,-1.6936,-1.6137,-1.5881,-1.5528,-1.4734,-1.4476,-1.4299,-1.4299,-1.4299,-1.4299,-1.4299,-1.4299,-1.4299,-1.4299,-1.4299,-1.4299,-1.4299,-1.4299,-1.4299,-1.4299,-1.4299,-1.4299,-1.4299,-1.4299,-1.4299,-1.4299,-1.4299,-1.434,-1.4421,-1.4421,-1.4489,-1.4638,-1.4645,-1.4672,-1.474,-1.474,-1.4753,-1.4774,-1.4685,-1.4679,-1.3993,-1.3977,-1.3969,-1.3912,-1.3904,-1.3825,0.0,0.0,0.0,0.0,-1.2968,0.0,0.0,0.0,0.0,0.0,0.0,-1.1886,-1.1851,-1.1879,-1.1835,-1.1619,-1.1855,-1.2134,-1.2354,-1.2929,-1.3197,-1.312,-1.3428,-1.3821,-1.4207,-1.4485,-1.49,-1.5512,-1.5731,-1.591,-1.5958,-1.5628,-1.5628,-1.5966,-1.5628,-1.5628,-1.5966,-1.5966,-1.5966,-1.5974,-1.6227,-1.6405,-1.6592,-1.6779,-1.6958,-1.7112,-1.6936,-1.7024,-1.7112,-1.7112,-1.7112,-1.7112,-1.7112,-1.7112,-1.7112,-1.7112,-1.7112,-1.7112,-1.7112,-1.7112,-1.7112,-1.7112,-1.7112,-1.7112,-1.7112,-1.7112,-1.6849,-1.5881,-1.5704,-1.544,-1.4476,-1.4299,-1.4299,-1.4299,-1.4299,-1.4299,-1.4299,-1.4299,-1.4299,-1.4299,-1.4299,-1.4299,-1.4299,-1.4299,-1.4299,-1.4299,-1.4299,-1.4299,-1.4299,-1.4299,-1.4319,-1.4353,-1.4394,-1.4468,-1.457,-1.4577,-1.4645,-1.4801,-1.4801,-1.4821,-1.4862,-1.4862,-1.4916,-1.5025,-1.4875,-1.4821,-1.4213,-1.4172,-1.4123,-1.3945,-1.3904,-1.3904,0.0,0.0,-1.3753,0.0,0.0,0.0,0.0,0.0,0.0,0.0,0.0,0.0,0.0,-1.2656,-1.2466,-1.1691,-1.2244,-1.2657,-1.2664,-1.3322,-1.3505,-1.312,-1.3428,-1.3744,-1.3744,-1.4444,-1.5106,-1.5512,-1.5853,-1.604,-1.5966,-1.5628,-1.5628,-1.5966,-1.5628,-1.5628,-1.5966,-1.5966,-1.5966,-1.5974,-1.6227,-1.6405,-1.6592,-1.6779,-1.6958,-1.7024,-1.6577,-1.6665,-1.7112,-1.7112,-1.7112,-1.7112,-1.7112,-1.7112,-1.7112,-1.7112,-1.7112,-1.7112,-1.7112,-1.7112,-1.7112,-1.7112,-1.7112,-1.7112,-1.7112,-1.7112,-1.6849,-1.5881,-1.5704,-1.544,-1.4476,-1.4299,-1.4299,-1.4299,-1.4299,-1.4299,-1.4299,-1.4299,-1.4299,-1.4299,-1.4299,-1.4299,-1.4299,-1.4299,-1.4299,-1.4299,-1.4299,-1.4299,-1.4299,-1.4299,-1.436,-1.4496,-1.4645,-1.4726,-1.4733,-1.4733,-1.4808,-1.4964,-1.4964,-1.5031,-1.5167,-1.5167,-1.5167,-1.5174,-1.5031,-1.5038,-1.4359,-1.4343,-1.4326,-1.427,-1.4253,0.0,0.0,0.0,0.0,0.0,0.0,0.0,0.0,0.0,0.0,0.0,0.0,0.0,0.0,-1.2794,-1.2681,-1.2402,-1.2758,-1.3029,-1.3029,-1.3702,-1.413,-1.3975,-1.4353,-1.4584,-1.4584,-1.5003,-1.5353,-1.5512,-1.5861,-1.5883,-1.5628,-1.5133,-1.5133,-1.5628,-1.5133,-1.5298,-1.5966,-1.5966,-1.6105,-1.6227,-1.6405,-1.6592,-1.6771,-1.695,-1.7055,-1.7112,-1.6928,-1.6936,-1.7024,-1.6753,-1.6841,-1.7112,-1.7112,-1.7112,-1.7112,-1.7112,-1.7112,-1.7112,-1.7112,-1.7112,-1.7112,-1.7112,-1.7112,-1.7112,-1.7112,-1.7112,-1.6849,-1.5881,-1.5704,-1.544,-1.4476,-1.4299,-1.4299,-1.4299,-1.4299,-1.4299,-1.4299,-1.4299,-1.4299,-1.4299,-1.4299,-1.4299,-1.4299,-1.4299,-1.4299,-1.4299,-1.4299,-1.4299,-1.4299,-1.4387,-1.4502,-1.4652,-1.4713,-1.4787,-1.4889,-1.4896,-1.4964,-1.5106,-1.5113,-1.5133,-1.5181,-1.5181,-1.5181,-1.5181,-1.5133,-1.514,-1.4546,-1.4529,0.0,-1.4448,-1.4432,0.0,-1.4432,0.0,-1.4399,0.0,0.0,0.0,0.0,0.0,0.0,0.0,0.0,0.0,0.0,-1.3182,-1.3182,-1.3182,-1.3344,-1.3475,-1.3475,-1.4006,-1.4368,-1.4368,-1.4669,-1.4814,-1.4814,-1.5239,-1.5512,-1.5512,-1.5699,-1.5628,-1.5381,-1.4803,-1.4803,-1.5381,-1.4878,-1.5133,-1.5966,-1.5966,-1.6137,-1.6316,-1.6503,-1.6682,-1.6782,-1.7039,-1.7024,-1.6841,-1.6673,-1.6673,-1.6841,-1.6665,-1.6841,-1.7112,-1.7112,-1.7112,-1.7112,-1.7112,-1.7112,-1.7112,-1.7112,-1.7112,-1.7112,-1.7112,-1.7112,-1.7112,-1.7112,-1.7112,-1.6849,-1.5881,-1.5704,-1.544,-1.4476,-1.4299,-1.4299,-1.4299,-1.4299,-1.4299,-1.4299,-1.4299,-1.4299,-1.4299,-1.4299,-1.4299,-1.4299,-1.4299,-1.4299,-1.4299,-1.4299,-1.4319,-1.4373,-1.4557,-1.4719,-1.4814,-1.4869,-1.4943,-1.5038,-1.5045,-1.5065,-1.5106,-1.5153,-1.516,-1.5106,-1.516,-1.5181,-1.5181,-1.5181,-1.5181]},{"header":{"parameterUnit":"m.s-1","parameterCategory":1,"la1":30.6,"la2":29.2853,"lo1":-89.7004,"lo2":-87.6739,"dy":0.0162,"dx":0.0183,"nx":112,"ny":82,"refTime":"2023-10-22T06:00:00:Z","depth":0,"parameterNumber":3,"parameterNumberName":"V-component_of_WINDS"},"data":[0.0,0.0,0.0,0.0,0.0,0.0,0.0,0.0,0.0,0.0,0.0,0.0,0.0,0.0,0.0,0.0,0.0,0.0,0.0,0.0,0.0,0.0,0.0,0.0,0.0,0.0,0.0,0.0,0.0,0.0,0.0,0.0,0.0,0.0,0.0,0.0,0.0,0.0,0.0,0.0,0.0,0.0,0.0,0.0,0.0,0.0,0.0,0.0,0.0,0.0,0.0,0.0,0.0,0.0,0.0,0.0,0.0,0.0,0.0,0.0,0.0,0.0,0.0,0.0,0.0,0.0,0.0,0.0,0.0,0.0,0.0,0.0,0.0,0.0,0.0,0.0,0.0,0.0,0.0,0.0,0.0,0.0,0.0,0.0,0.0,0.0,0.0,0.0,0.0,0.0,4.3249,4.1771,4.1113,4.1049,4.1624,4.1026,4.0718,4.082,0.0,0.0,0.0,0.0,0.0,0.0,0.0,0.0,0.0,0.0,0.0,0.0,0.0,0.0,0.0,0.0,0.0,0.0,0.0,0.0,0.0,0.0,0.0,0.0,0.0,0.0,0.0,0.0,0.0,0.0,0.0,0.0,0.0,0.0,0.0,0.0,0.0,0.0,0.0,0.0,0.0,0.0,0.0,0.0,0.0,0.0,0.0,0.0,0.0,0.0,0.0,0.0,0.0,0.0,0.0,0.0,0.0,0.0,0.0,0.0,0.0,0.0,0.0,0.0,0.0,0.0,0.0,0.0,0.0,0.0,0.0,0.0,0.0,0.0,0.0,0.0,0.0,0.0,0.0,0.0,0.0,0.0,0.0,0.0,0.0,0.0,0.0,0.0,0.0,0.0,0.0,0.0,0.0,0.0,0.0,0.0,0.0,0.0,0.0,0.0,0.0,0.0,0.0,0.0,4.399,4.2561,4.2341,4.2324,4.2429,4.1754,4.1624,4.2237,0.0,0.0,0.0,0.0,0.0,0.0,0.0,0.0,0.0,0.0,0.0,0.0,0.0,0.0,0.0,0.0,0.0,0.0,0.0,0.0,0.0,0.0,0.0,0.0,0.0,0.0,0.0,0.0,0.0,0.0,0.0,0.0,0.0,0.0,0.0,0.0,0.0,0.0,0.0,0.0,0.0,0.0,0.0,0.0,0.0,0.0,0.0,0.0,0.0,0.0,0.0,0.0,0.0,0.0,0.0,0.0,0.0,0.0,0.0,0.0,0.0,0.0,0.0,0.0,0.0,0.0,0.0,0.0,0.0,0.0,0.0,0.0,0.0,0.0,0.0,0.0,0.0,0.0,0.0,0.0,0.0,0.0,0.0,0.0,0.0,0.0,0.0,0.0,0.0,0.0,0.0,0.0,0.0,0.0,0.0,0.0,0.0,0.0,0.0,0.0,0.0,0.0,0.0,4.5747,4.5162,4.4951,4.4234,4.3783,4.3735,4.3167,4.2751,4.2618,4.2771,0.0,0.0,0.0,0.0,0.0,0.0,0.0,0.0,0.0,0.0,0.0,0.0,0.0,0.0,0.0,0.0,0.0,0.0,0.0,0.0,0.0,0.0,0.0,0.0,0.0,0.0,0.0,0.0,0.0,0.0,0.0,0.0,0.0,0.0,0.0,0.0,0.0,0.0,0.0,0.0,0.0,0.0,0.0,0.0,0.0,0.0,0.0,0.0,0.0,0.0,0.0,0.0,0.0,0.0,0.0,0.0,0.0,0.0,0.0,0.0,0.0,0.0,0.0,0.0,0.0,0.0,0.0,0.0,0.0,0.0,0.0,0.0,0.0,0.0,0.0,0.0,0.0,0.0,0.0,0.0,0.0,0.0,0.0,0.0,0.0,0.0,0.0,0.0,0.0,0.0,0.0,0.0,0.0,0.0,0.0,0.0,0.0,0.0,0.0,0.0,0.0,0.0,4.6946,4.6388,4.6843,4.593,4.5242,4.505,4.4478,4.3837,4.3221,4.3754,0.0,0.0,0.0,0.0,0.0,0.0,0.0,0.0,0.0,0.0,0.0,0.0,0.0,0.0,0.0,0.0,0.0,0.0,0.0,0.0,0.0,0.0,0.0,0.0,0.0,0.0,0.0,0.0,0.0,0.0,0.0,0.0,0.0,0.0,0.0,0.0,0.0,0.0,0.0,0.0,0.0,0.0,0.0,0.0,0.0,0.0,0.0,0.0,0.0,0.0,0.0,0.0,0.0,0.0,0.0,0.0,0.0,0.0,0.0,0.0,0.0,0.0,0.0,0.0,0.0,0.0,0.0,0.0,0.0,0.0,0.0,0.0,0.0,0.0,0.0,0.0,0.0,0.0,0.0,0.0,0.0,0.0,0.0,0.0,0.0,0.0,0.0,0.0,0.0,0.0,0.0,0.0,0.0,0.0,0.0,0.0,0.0,0.0,0.0,0.0,0.0,0.0,4.7935,4.7604,4.6974,4.6809,4.6575,4.6032,4.5269,4.484,4.4837,4.4348,0.0,0.0,0.0,0.0,0.0,0.0,0.0,0.0,0.0,0.0,0.0,0.0,0.0,0.0,0.0,0.0,0.0,0.0,0.0,0.0,0.0,0.0,0.0,0.0,0.0,0.0,0.0,0.0,0.0,0.0,0.0,0.0,0.0,0.0,0.0,0.0,0.0,0.0,0.0,0.0,0.0,0.0,0.0,0.0,0.0,0.0,0.0,0.0,0.0,0.0,0.0,0.0,0.0,0.0,0.0,0.0,0.0,0.0,0.0,0.0,0.0,0.0,0.0,0.0,0.0,0.0,0.0,0.0,0.0,0.0,0.0,0.0,0.0,0.0,0.0,0.0,0.0,0.0,0.0,0.0,0.0,0.0,0.0,0.0,0.0,0.0,0.0,0.0,0.0,0.0,0.0,0.0,0.0,0.0,0.0,0.0,0.0,0.0,0.0,0.0,0.0,0.0,4.8098,4.8063,4.7925,4.7796,4.7496,4.6984,4.6709,4.6173,4.5176,0.0,0.0,0.0,0.0,0.0,0.0,0.0,0.0,0.0,0.0,0.0,0.0,0.0,0.0,0.0,0.0,0.0,0.0,0.0,0.0,0.0,0.0,0.0,0.0,0.0,0.0,0.0,0.0,0.0,0.0,0.0,0.0,0.0,0.0,0.0,0.0,0.0,0.0,0.0,0.0,0.0,0.0,0.0,0.0,0.0,0.0,0.0,0.0,0.0,0.0,0.0,0.0,0.0,0.0,0.0,0.0,0.0,0.0,0.0,0.0,0.0,0.0,0.0,0.0,0.0,0.0,0.0,0.0,0.0,0.0,0.0,0.0,0.0,0.0,0.0,0.0,0.0,0.0,0.0,0.0,0.0,0.0,0.0,0.0,0.0,0.0,0.0,0.0,0.0,0.0,0.0,0.0,0.0,0.0,0.0,0.0,0.0,0.0,0.0,0.0,0.0,0.0,4.8292,4.8292,4.8356,4.8483,4.8388,4.8155,4.7876,4.7667,4.7127,4.6059,0.0,0.0,0.0,0.0,0.0,0.0,0.0,0.0,0.0,0.0,0.0,0.0,0.0,0.0,0.0,0.0,0.0,0.0,0.0,0.0,0.0,0.0,0.0,0.0,0.0,0.0,0.0,0.0,0.0,0.0,0.0,0.0,0.0,0.0,0.0,0.0,0.0,0.0,0.0,0.0,0.0,0.0,0.0,0.0,0.0,0.0,0.0,0.0,0.0,0.0,0.0,0.0,0.0,0.0,0.0,0.0,0.0,0.0,0.0,0.0,0.0,0.0,0.0,0.0,0.0,0.0,0.0,0.0,0.0,0.0,0.0,0.0,0.0,0.0,0.0,0.0,0.0,0.0,0.0,0.0,0.0,0.0,0.0,0.0,0.0,0.0,0.0,0.0,0.0,0.0,0.0,0.0,0.0,0.0,0.0,0.0,0.0,0.0,0.0,0.0,0.0,0.0,4.8549,4.8549,4.8515,4.8515,4.8515,4.8578,4.8769,4.8063,4.7659,0.0,0.0,0.0,0.0,0.0,0.0,0.0,0.0,0.0,0.0,0.0,0.0,0.0,0.0,0.0,0.0,0.0,0.0,0.0,0.0,0.0,0.0,0.0,0.0,0.0,0.0,0.0,0.0,0.0,0.0,0.0,0.0,0.0,0.0,0.0,0.0,0.0,0.0,0.0,0.0,0.0,0.0,0.0,0.0,0.0,0.0,0.0,0.0,0.0,0.0,0.0,0.0,0.0,0.0,0.0,0.0,0.0,0.0,0.0,0.0,0.0,0.0,0.0,0.0,0.0,0.0,0.0,0.0,0.0,0.0,0.0,0.0,0.0,0.0,0.0,0.0,0.0,0.0,0.0,0.0,0.0,0.0,0.0,0.0,0.0,0.0,0.0,0.0,0.0,0.0,0.0,0.0,0.0,0.0,0.0,0.0,0.0,0.0,0.0,0.0,0.0,0.0,0.0,5.0253,4.9816,4.9512,4.9605,4.9104,4.8769,4.8925,4.8723,4.8351,4.7875,0.0,0.0,0.0,0.0,0.0,0.0,0.0,0.0,0.0,0.0,0.0,0.0,0.0,0.0,0.0,0.0,0.0,0.0,0.0,0.0,0.0,0.0,0.0,0.0,0.0,0.0,0.0,0.0,0.0,0.0,0.0,0.0,0.0,0.0,0.0,0.0,0.0,0.0,0.0,0.0,0.0,0.0,0.0,0.0,0.0,0.0,0.0,0.0,0.0,0.0,0.0,0.0,0.0,0.0,0.0,0.0,0.0,0.0,0.0,0.0,0.0,0.0,0.0,0.0,0.0,0.0,0.0,0.0,0.0,0.0,0.0,0.0,0.0,0.0,0.0,0.0,0.0,0.0,0.0,0.0,0.0,0.0,0.0,0.0,0.0,0.0,0.0,0.0,0.0,0.0,0.0,0.0,0.0,0.0,0.0,0.0,0.0,0.0,0.0,0.0,0.0,0.0,5.1055,5.0684,5.0447,5.0541,5.0073,4.9763,4.9797,4.9579,4.9243,4.8737,0.0,0.0,0.0,0.0,0.0,0.0,0.0,0.0,0.0,0.0,0.0,0.0,0.0,0.0,0.0,0.0,0.0,0.0,0.0,0.0,0.0,0.0,0.0,0.0,0.0,0.0,0.0,0.0,0.0,0.0,0.0,0.0,0.0,0.0,0.0,0.0,0.0,0.0,0.0,0.0,0.0,0.0,0.0,0.0,0.0,0.0,0.0,0.0,0.0,0.0,0.0,0.0,0.0,0.0,0.0,0.0,0.0,0.0,0.0,0.0,0.0,0.0,0.0,0.0,0.0,0.0,0.0,0.0,0.0,0.0,0.0,0.0,0.0,0.0,0.0,0.0,0.0,0.0,0.0,0.0,0.0,0.0,0.0,0.0,0.0,0.0,0.0,0.0,0.0,0.0,0.0,0.0,0.0,0.0,0.0,0.0,0.0,0.0,0.0,0.0,0.0,0.0,5.1547,5.1545,5.1478,5.1478,5.138,5.1262,5.1183,5.0636,5.0267,5.0068,0.0,0.0,0.0,0.0,0.0,0.0,0.0,0.0,0.0,0.0,0.0,0.0,0.0,0.0,0.0,0.0,0.0,0.0,0.0,0.0,0.0,0.0,0.0,0.0,0.0,0.0,0.0,0.0,0.0,0.0,0.0,0.0,0.0,0.0,0.0,0.0,0.0,0.0,0.0,0.0,0.0,0.0,0.0,0.0,0.0,0.0,0.0,0.0,0.0,0.0,0.0,0.0,0.0,0.0,0.0,0.0,0.0,0.0,0.0,0.0,5.6819,5.6819,0.0,0.0,0.0,0.0,0.0,0.0,0.0,0.0,0.0,0.0,0.0,0.0,0.0,0.0,0.0,0.0,0.0,0.0,0.0,0.0,0.0,0.0,0.0,0.0,0.0,0.0,0.0,0.0,0.0,0.0,0.0,0.0,0.0,0.0,0.0,0.0,0.0,0.0,0.0,0.0,5.4365,5.3933,5.3549,5.3549,5.2615,5.22,5.2606,5.2082,5.1682,5.1487,5.1333,0.0,0.0,0.0,0.0,0.0,0.0,0.0,0.0,0.0,0.0,0.0,0.0,0.0,0.0,0.0,0.0,0.0,0.0,0.0,0.0,0.0,0.0,0.0,0.0,0.0,0.0,0.0,0.0,0.0,0.0,0.0,0.0,0.0,0.0,0.0,0.0,0.0,0.0,0.0,0.0,0.0,0.0,0.0,0.0,0.0,0.0,0.0,0.0,0.0,0.0,0.0,0.0,0.0,0.0,0.0,0.0,0.0,0.0,0.0,5.7313,5.7289,0.0,0.0,0.0,0.0,0.0,0.0,0.0,0.0,0.0,0.0,0.0,0.0,0.0,0.0,0.0,0.0,0.0,0.0,0.0,0.0,0.0,0.0,0.0,0.0,0.0,0.0,0.0,0.0,0.0,0.0,0.0,0.0,0.0,0.0,0.0,0.0,0.0,0.0,0.0,0.0,5.5308,5.5016,5.477,5.477,5.4156,5.383,5.4032,5.3491,5.3089,5.2927,5.2694,0.0,0.0,0.0,0.0,0.0,0.0,0.0,0.0,0.0,0.0,0.0,0.0,0.0,0.0,0.0,0.0,0.0,0.0,0.0,0.0,0.0,0.0,0.0,0.0,0.0,0.0,0.0,0.0,0.0,0.0,0.0,0.0,0.0,0.0,0.0,0.0,0.0,0.0,0.0,0.0,0.0,0.0,0.0,0.0,0.0,0.0,0.0,0.0,0.0,0.0,0.0,0.0,0.0,5.7583,5.7583,5.7583,5.7583,5.7583,5.7583,5.7486,5.7437,5.7437,5.7437,0.0,0.0,0.0,0.0,0.0,0.0,0.0,0.0,0.0,0.0,0.0,0.0,0.0,0.0,0.0,0.0,0.0,0.0,0.0,0.0,0.0,0.0,5.7655,5.7655,5.7655,5.7655,5.7655,0.0,0.0,0.0,0.0,0.0,0.0,0.0,0.0,0.0,0.0,0.0,5.5716,5.5773,5.5773,5.5716,5.5658,5.5582,5.5517,5.495,5.4575,5.444,5.4073,5.3726,0.0,0.0,0.0,0.0,0.0,0.0,0.0,0.0,0.0,0.0,0.0,0.0,0.0,0.0,0.0,0.0,0.0,0.0,0.0,0.0,0.0,0.0,0.0,0.0,0.0,0.0,0.0,0.0,0.0,0.0,0.0,0.0,5.7534,5.7534,0.0,0.0,0.0,0.0,0.0,0.0,0.0,0.0,0.0,0.0,0.0,0.0,0.0,5.7632,5.7765,5.7656,5.7583,5.7583,5.7583,5.7583,5.7583,5.7583,5.7583,5.7619,5.7679,0.0,5.7559,5.7559,0.0,0.0,0.0,0.0,0.0,0.0,0.0,0.0,0.0,0.0,0.0,0.0,0.0,0.0,0.0,0.0,0.0,0.0,0.0,0.0,0.0,0.0,5.795,5.795,5.795,5.795,5.795,5.7679,5.751,5.7559,5.7461,5.7302,0.0,0.0,0.0,0.0,0.0,0.0,5.7051,5.7264,5.7202,5.701,5.6678,5.6668,5.7069,5.6639,5.6279,5.6103,5.6031,5.5486,5.4281,5.4689,0.0,0.0,0.0,0.0,0.0,0.0,0.0,0.0,0.0,0.0,0.0,0.0,0.0,0.0,0.0,0.0,0.0,0.0,0.0,0.0,0.0,0.0,0.0,0.0,0.0,0.0,0.0,0.0,0.0,5.7559,5.7583,5.7583,5.7583,5.7559,0.0,0.0,0.0,0.0,0.0,0.0,0.0,0.0,0.0,5.7703,5.7703,5.7763,5.7834,5.7834,5.7834,5.7834,5.7834,5.7834,5.7834,5.7834,5.7834,5.7834,5.7904,5.7881,5.7834,5.7726,5.7703,5.7679,0.0,0.0,0.0,0.0,5.7631,5.7703,5.7703,5.7786,5.7834,5.7834,0.0,0.0,0.0,0.0,0.0,0.0,0.0,5.7927,5.7927,5.795,5.7997,5.7997,5.7997,5.7997,5.7997,5.7904,5.781,5.7739,5.7703,5.7655,5.7534,5.7313,0.0,0.0,0.0,5.7202,5.7461,5.7559,5.7534,5.7437,5.7313,5.7313,5.7486,5.7302,5.7157,5.7072,5.7144,5.6914,5.6358,5.6088,5.5785,0.0,0.0,0.0,0.0,0.0,0.0,0.0,0.0,0.0,0.0,0.0,0.0,0.0,0.0,0.0,0.0,0.0,0.0,0.0,0.0,0.0,0.0,0.0,0.0,0.0,0.0,0.0,0.0,5.7655,5.7679,5.7679,5.7679,5.7715,0.0,0.0,0.0,0.0,0.0,0.0,5.7679,5.7679,5.7763,5.7857,5.7857,5.7904,5.7997,5.7997,5.7997,5.7997,5.7997,5.7997,5.7997,5.7997,5.7997,5.7997,5.7997,5.7997,5.7997,5.7904,5.7857,5.7857,5.7763,5.7679,5.7679,5.7679,5.7786,5.7857,5.7857,5.7927,5.7997,5.7997,5.7997,5.7997,5.7997,0.0,0.0,0.0,0.0,5.7997,5.7997,5.7997,5.7997,5.7997,5.7997,5.7997,5.7997,5.7997,5.7973,5.7881,5.7857,5.781,5.7655,5.7631,0.0,5.7631,5.7631,5.7631,5.7631,5.7655,5.7691,5.7583,5.7655,5.7715,5.7631,5.7655,5.7679,5.7679,5.781,5.7857,5.7857,5.7294,5.6988,5.7116,0.0,0.0,0.0,0.0,0.0,0.0,0.0,0.0,0.0,0.0,0.0,0.0,0.0,0.0,0.0,0.0,0.0,0.0,0.0,0.0,0.0,0.0,0.0,0.0,0.0,0.0,0.0,0.0,0.0,5.7973,5.7973,0.0,0.0,0.0,0.0,5.781,5.7904,5.7973,5.7973,5.7973,5.7973,5.7997,5.7997,5.7997,5.7997,5.7997,5.7997,5.7997,5.7997,5.7997,5.7997,5.7997,5.7997,5.7997,5.7997,5.7997,5.7997,5.7997,5.7997,5.7997,5.7973,5.7973,5.7973,5.7973,5.7973,5.7997,5.7997,5.7997,5.7997,5.7997,5.7997,5.7997,5.7997,5.7997,0.0,0.0,5.7997,5.7997,5.7997,5.7997,5.7997,5.7997,5.7997,5.7997,5.7997,5.7997,5.7997,5.7997,5.7997,5.795,5.7834,0.0,5.781,5.781,5.781,5.781,5.781,5.7904,5.7881,5.7607,5.7834,5.7927,5.781,5.7904,5.7973,5.7973,5.7997,5.7997,5.7997,5.796,5.7923,5.7923,5.713,0.0,0.0,0.0,0.0,0.0,0.0,0.0,0.0,0.0,0.0,0.0,0.0,0.0,0.0,0.0,0.0,0.0,0.0,0.0,0.0,0.0,0.0,0.0,0.0,0.0,0.0,0.0,0.0,5.7997,5.7997,0.0,5.7927,5.7973,5.7973,5.7927,5.7973,5.8217,5.8767,5.8767,5.9024,5.9538,5.9538,5.9538,5.9538,5.9538,5.9538,5.9538,5.9538,5.9538,5.9538,5.9538,5.9538,5.9538,5.9538,5.9538,5.9501,5.8988,5.8474,5.7997,5.7997,5.7997,5.7997,5.7997,5.7997,5.7997,5.7997,5.7997,5.7997,5.7997,5.7997,5.7997,5.7997,5.7997,5.7997,5.7997,5.7997,5.7997,5.7997,5.7997,5.7997,5.7997,5.7997,5.7997,5.7997,5.7997,5.7997,5.7997,5.7997,5.7973,5.795,5.7927,5.7927,5.7927,5.7927,5.7927,5.7927,5.7973,5.7973,5.7881,5.795,5.7973,5.7927,5.7973,5.7997,5.7997,5.7997,5.7997,5.7997,5.7997,5.7997,5.7997,5.7703,5.7556,0.0,0.0,0.0,0.0,0.0,0.0,0.0,0.0,0.0,0.0,0.0,0.0,0.0,0.0,0.0,0.0,0.0,0.0,0.0,0.0,0.0,0.0,0.0,0.0,0.0,5.7997,5.7997,5.7997,5.7997,5.7997,5.7997,5.7997,5.8107,5.84,5.84,5.8767,5.9551,5.9588,5.9869,6.0382,6.0419,6.0419,6.0419,6.0419,6.0419,6.0419,6.0419,6.0419,6.0419,6.0419,6.0419,6.0419,6.0419,6.0419,6.0382,5.9808,5.9281,5.8767,5.8217,5.7997,5.7997,5.7997,5.7997,5.7997,5.7997,5.7997,5.7997,5.7997,5.7997,5.7997,5.7997,5.7997,5.7997,5.7997,5.7997,5.7997,5.7997,5.7997,5.7997,5.7997,5.7997,5.7997,5.7997,5.7997,5.7997,5.7997,5.7997,5.7997,5.7997,5.7997,5.7997,5.7997,5.7997,5.7997,5.7997,5.7997,5.7997,5.7997,5.7997,5.7997,5.7997,5.7997,5.7997,5.7997,5.7997,5.7997,5.7997,5.7997,5.7997,5.7997,5.7997,5.7997,5.7997,0.0,0.0,0.0,0.0,0.0,0.0,0.0,0.0,0.0,0.0,0.0,0.0,0.0,0.0,0.0,0.0,0.0,0.0,0.0,0.0,0.0,0.0,0.0,5.829,5.807,5.807,5.8033,5.8033,5.8033,5.8033,5.8033,5.8364,5.9184,5.9221,5.9588,6.0419,6.0493,6.0493,6.0566,6.0566,6.0566,6.0566,6.0566,6.0566,6.0566,6.0566,6.0566,6.0566,6.0566,6.0566,6.0566,6.0529,6.0529,6.0529,6.0456,6.0456,6.0272,5.8694,5.807,5.807,5.807,5.807,5.807,5.807,5.807,5.807,5.807,5.807,5.807,5.807,5.807,5.807,5.807,5.807,5.807,5.807,5.807,5.807,5.807,5.807,5.807,5.807,5.807,5.807,5.807,5.807,5.807,5.7997,5.7997,5.7997,5.7997,5.7997,0.0,5.7997,5.7997,5.7997,5.7997,5.7997,5.7997,5.7997,5.7997,5.7997,5.7997,5.7997,5.7997,5.7997,5.7997,5.7997,5.7997,5.7997,5.7997,5.7997,0.0,0.0,0.0,0.0,0.0,0.0,0.0,0.0,0.0,0.0,0.0,0.0,0.0,0.0,0.0,0.0,0.0,0.0,0.0,0.0,0.0,6.1263,6.0896,5.9869,5.9758,5.9538,5.8927,5.8877,5.8877,5.8877,5.8877,5.9208,6.0015,6.0089,6.0676,6.2046,6.2144,6.2695,6.3906,6.3943,6.3943,6.3943,6.3943,6.3943,6.3943,6.3943,6.3943,6.3943,6.3943,6.3943,6.3943,6.3356,6.3062,6.2989,6.1777,6.1263,6.1153,6.0126,5.9758,5.9758,5.9758,5.9758,5.9758,5.9758,5.9758,5.9758,5.9758,5.9758,5.9758,5.9758,5.9758,5.9758,5.9758,5.9758,5.9758,5.9758,5.9758,5.9758,5.9758,5.9758,5.9758,5.9758,5.9758,5.9758,5.9758,5.9758,5.9355,5.8217,5.7997,5.7997,5.7997,5.7997,5.7997,5.7997,5.7997,5.7997,5.7997,5.7997,5.7997,5.7997,5.7997,5.7997,5.7997,5.7997,5.7997,5.7997,5.7997,5.7997,5.7997,5.7997,5.7997,0.0,0.0,0.0,0.0,0.0,0.0,0.0,0.0,0.0,0.0,0.0,0.0,0.0,0.0,0.0,0.0,0.0,0.0,0.0,0.0,0.0,0.0,6.2217,6.1998,6.1734,6.0967,6.0236,5.9735,5.9698,5.9698,5.9698,5.9698,6.0199,6.1337,6.141,6.2144,6.3759,6.3844,6.4284,6.5264,6.5301,6.5301,6.5301,6.5301,6.5301,6.5301,6.5301,6.5301,6.5301,6.5301,6.5301,6.5264,6.4824,6.4604,6.453,6.3539,6.3135,6.2952,0.0,0.0,0.0,0.0,6.0419,6.0419,6.0419,6.0419,6.0419,6.0419,6.0419,6.0419,6.0419,6.0419,6.0419,6.0419,6.0419,6.0419,6.0419,6.0419,6.0419,6.0419,6.0419,6.0419,6.0419,6.0419,6.0419,6.0419,6.0419,0.0,5.9171,5.9024,5.9024,5.9024,5.9024,5.9024,5.9024,5.9024,5.8877,5.8547,5.851,5.8364,5.8033,5.7997,0.0,0.0,0.0,5.7997,5.7997,5.7997,0.0,0.0,0.0,5.7997,5.7997,5.7997,0.0,0.0,5.7776,5.774,0.0,0.0,0.0,0.0,0.0,0.0,0.0,0.0,0.0,0.0,0.0,0.0,0.0,0.0,0.0,0.0,6.3158,6.299,6.3354,6.1808,6.0639,6.0566,6.0529,6.0529,6.0529,6.0639,6.13,6.2842,6.3,6.3771,6.5375,6.5448,0.0,0.0,0.0,6.5595,6.5595,6.5595,6.5595,6.5595,6.5595,6.5595,6.5595,6.5595,6.5595,6.5595,6.5485,6.5448,6.5448,6.5338,6.5301,6.5007,6.2108,6.097,6.0933,6.086,6.0823,6.0786,6.0713,0.0,0.0,6.0676,6.0676,6.0676,6.0676,6.0676,6.0676,6.0676,6.0676,6.0676,6.0676,6.0676,6.0676,6.0676,6.0676,6.0676,6.0676,6.0676,6.0676,6.0676,6.0676,6.0676,6.0676,6.0529,6.0419,6.0419,6.0419,6.0419,6.0419,6.0419,6.0126,5.9404,5.9331,0.0,5.8327,5.8253,5.8253,5.8253,5.8253,5.8217,5.8143,5.8143,5.8107,5.7997,5.7997,5.7997,5.7997,5.7997,5.7997,5.7997,5.7997,5.7997,0.0,0.0,0.0,0.0,0.0,0.0,0.0,0.0,0.0,0.0,0.0,0.0,0.0,0.0,0.0,6.349,6.3422,6.3238,6.3002,6.2598,6.2108,6.1447,6.1374,6.1374,6.1374,6.1961,6.2768,6.3759,6.4457,6.5264,6.6219,6.6256,6.6549,6.721,6.7247,6.7247,6.7247,6.7247,6.7247,6.7247,6.7247,0.0,6.7247,6.7247,6.7247,6.7173,6.6549,6.6256,6.6219,6.5595,6.5301,6.5264,6.4604,6.4347,6.4273,6.3613,6.3356,6.3282,6.2585,6.234,6.234,6.234,6.234,6.234,6.234,6.234,0.0,6.234,6.234,6.234,6.234,6.234,6.234,6.234,6.234,6.234,6.234,6.234,6.234,6.234,6.234,6.234,6.234,6.1263,6.0419,6.0419,6.0419,6.0419,6.0419,6.0419,6.0346,6.0199,6.0162,6.0126,5.9942,5.9942,5.9942,5.9942,5.9942,5.9648,5.8964,5.8964,5.8657,5.7997,5.7997,5.7997,5.7997,5.7997,5.7997,5.7997,5.7997,5.7997,0.0,0.0,0.0,0.0,0.0,0.0,0.0,0.0,0.0,0.0,0.0,6.358,6.3761,0.0,6.358,6.3761,6.3609,6.3422,6.3181,6.3158,6.2915,6.2279,6.2218,6.2365,6.2805,6.3209,6.398,6.5191,6.5668,6.6256,6.7063,6.71,6.7283,6.7687,6.7687,6.7687,6.7687,6.7687,6.7687,6.7687,6.7687,6.7687,6.7687,6.7687,6.7687,6.7677,6.7283,6.71,6.7063,6.6659,6.6512,6.6512,6.6512,6.5999,6.5264,6.4861,6.4714,6.464,6.42,6.4053,6.4053,6.4053,6.4053,6.4053,6.4053,6.4053,6.4053,6.4129,6.4154,6.4154,6.4229,6.4254,6.4254,6.4254,6.4254,6.4254,6.4254,6.4254,6.4229,6.4154,6.4154,6.4129,6.4053,6.3392,6.2585,6.1741,6.1594,6.1594,6.1594,6.1594,6.1447,6.1043,6.1006,6.086,6.0419,6.0419,6.0419,6.0419,6.0419,6.0236,5.9808,5.9795,5.9612,5.9208,5.9208,5.9208,5.9208,5.9208,5.9208,5.9208,5.9208,5.8767,0.0,0.0,0.0,0.0,0.0,0.0,0.0,6.299,6.3144,6.3557,6.3646,6.3718,6.4036,6.3782,6.3609,6.4016,6.3761,6.349,6.349,6.3571,6.3487,6.3112,6.3062,6.3392,6.4237,6.4457,6.5081,6.6402,6.6623,6.7026,6.765,6.7687,6.7687,6.7687,6.7834,6.7907,6.7907,6.8091,6.8164,6.8164,6.8164,6.8164,6.8164,6.8164,6.8164,6.8164,6.7981,6.7934,6.7961,6.7814,6.7767,6.7794,6.7794,6.6996,6.582,6.5647,6.5573,6.5599,6.5415,6.5379,6.5379,6.5379,6.5379,6.5379,6.5379,6.5379,6.5404,6.5506,6.5557,6.5582,6.5681,6.5706,6.5706,6.5706,6.5706,6.5706,6.5706,6.5706,6.5681,6.5557,6.5557,6.5506,6.5353,6.5353,6.4912,6.3503,6.3319,6.3246,6.3099,6.3062,6.2732,6.1924,6.1814,6.1557,6.0933,6.086,6.086,6.086,6.086,6.0823,6.0663,6.0639,6.059,6.0491,6.0467,6.0467,6.0491,6.0491,6.0491,6.0491,6.0467,5.9745,6.278,6.278,6.278,6.278,6.278,6.2929,0.0,6.3696,6.3954,6.4016,6.4016,6.4036,6.4076,6.3782,6.3609,6.4016,6.3761,6.349,6.349,6.3822,6.4019,6.3968,6.3943,6.4273,6.5081,6.5815,6.6292,6.6476,6.7136,6.7614,6.7687,6.7687,6.7687,6.7687,6.8385,6.8788,6.8788,6.9486,6.9816,6.9816,6.9816,6.9816,6.9816,6.9816,6.9816,6.9779,6.9082,6.8806,6.8904,6.8168,6.7952,6.8081,6.8081,6.797,6.7686,6.6857,6.6625,6.6641,6.5878,6.5656,6.5656,6.5656,6.5656,6.5656,6.5656,6.5656,6.5681,6.5681,6.5681,6.5681,6.5706,6.5706,6.5706,6.5706,6.5706,6.5706,6.5706,6.5706,6.5706,6.5681,6.5681,6.5656,6.5506,6.5582,6.5508,6.507,6.5044,6.4751,6.4053,6.3943,6.3613,6.2768,6.2695,6.2658,6.2548,6.2523,6.2523,6.2523,6.2523,6.2267,6.169,6.1557,6.1237,6.0748,6.0655,6.0655,6.0771,6.0771,6.0771,6.0748,6.0619,6.0428,6.278,6.278,6.278,6.278,6.3026,6.3275,6.3445,6.3825,6.4096,6.4096,6.4096,6.4096,6.4096,6.3954,6.3846,6.3761,6.3803,6.3861,6.3846,6.4192,6.4734,6.5426,6.5485,6.5632,6.5962,6.6292,6.6696,6.7136,6.7504,6.7687,6.7687,6.8235,6.8482,6.8482,6.9372,6.9777,6.9733,7.0064,7.0193,7.011,7.011,7.011,7.011,7.0156,7.0266,7.031,6.987,6.9777,6.9874,6.9542,6.9447,6.9499,6.9499,6.9551,6.9455,6.8007,6.7564,6.7553,6.7209,6.7073,6.7073,6.7073,6.7073,6.7073,6.7073,6.7073,6.7098,6.721,6.7235,6.7235,6.7309,6.7333,6.7333,6.7333,6.7333,6.7333,6.7333,6.7333,6.7309,6.7235,6.7235,6.7185,6.7059,6.7047,6.7047,6.6957,6.607,6.5319,6.4952,6.4839,6.4677,6.4284,6.4273,6.4273,6.4273,6.4273,6.4079,6.364,6.3603,6.3284,6.2656,6.2572,6.2411,6.2197,6.215,6.215,6.2197,6.2197,6.2197,6.2197,6.215,6.208,6.278,6.278,6.278,6.278,6.3062,6.3285,6.3285,6.3631,6.3913,6.3913,6.3913,6.3913,6.3913,6.3808,6.3696,6.3535,6.3631,6.3862,6.4205,6.4622,6.5287,6.6381,6.6696,6.6843,6.6843,6.6843,6.7063,6.765,6.7687,6.7787,6.8061,6.8757,6.9242,6.9489,7.037,7.0776,7.0679,7.0873,7.0965,7.091,7.0826,7.0798,7.0826,7.0901,7.1038,7.1199,7.0843,7.076,7.0882,7.066,7.0576,7.0602,7.0602,7.0654,7.0583,6.9332,6.8752,6.853,6.853,6.8419,6.8234,6.8234,6.8234,6.8234,6.8234,6.8234,6.8234,6.8334,6.8358,6.8383,6.8457,6.8481,6.8481,6.8481,6.8481,6.8481,6.8481,6.8481,6.8457,6.8358,6.8358,6.8309,6.8183,6.8208,6.8208,6.8183,6.7084,6.6171,6.5874,6.5526,6.5301,6.5353,6.5327,6.5301,6.5301,6.5327,6.5121,6.4597,6.461,6.439,6.3981,6.3675,6.3588,6.3659,6.3413,6.3265,6.3326,6.3326,6.3326,6.3326,6.3265,6.3279,6.278,6.278,6.278,6.278,6.2805,6.2805,6.2805,6.3181,6.3513,6.3513,6.3513,6.3513,6.3513,6.3158,6.2965,6.3422,6.3134,6.326,6.4489,6.5041,6.5558,6.6402,6.7173,6.765,6.765,6.765,6.765,6.7687,6.7687,6.8098,6.9004,6.9104,6.9526,7.0434,7.1246,7.1652,7.1652,7.23,7.2705,7.2908,7.2565,7.248,7.2621,7.2621,7.2733,7.2871,7.2022,7.1733,7.1802,7.1013,7.0757,7.0895,7.0895,7.0895,7.0895,7.0821,7.0338,6.967,6.967,6.915,6.8481,6.8481,6.8481,6.8481,6.8481,6.8481,6.8481,6.8481,6.8481,6.8481,6.8481,6.8481,6.8481,6.8481,6.8481,6.8481,6.8481,6.8481,6.8481,6.8481,6.8481,6.8432,6.8309,6.8408,6.8432,6.8309,6.8247,6.7813,6.6809,6.5856,6.5353,6.5481,6.5379,6.5301,6.5301,6.543,6.5469,6.5469,6.5595,6.5706,6.579,6.4892,6.4496,6.4768,6.3836,6.3465,6.3579,6.3579,6.3579,6.3579,6.3465,6.3382,6.278,6.278,6.278,6.278,6.3014,6.3238,6.3238,6.3587,6.3825,6.3557,6.349,6.34,6.3086,6.3158,6.3228,6.3062,6.3601,6.4314,6.4992,6.5662,6.6402,6.7173,6.754,6.7687,6.7687,6.7687,6.7687,6.7687,6.8201,6.8686,6.9104,7.0216,7.1025,7.1479,7.2336,7.2781,7.2674,7.2916,7.3037,7.2982,7.2899,7.2899,7.3037,7.2955,7.3,7.3241,7.2876,7.2754,7.2875,7.2615,7.2529,7.2555,7.2555,7.2555,7.2555,7.2555,7.2035,7.1292,7.0698,7.0301,7.0078,7.0078,7.0078,7.0078,7.0078,7.0078,6.9967,6.9447,6.9298,6.915,6.863,6.889,6.9298,6.9298,6.9707,7.0078,7.0078,7.0078,7.0078,7.0078,7.0078,7.0078,7.0028,7.0053,7.0078,7.0028,6.9063,6.8123,6.7712,6.734,6.7192,6.7243,6.7192,6.7167,6.7167,6.7218,6.7047,6.6605,6.6618,6.6457,6.6057,6.5713,6.5551,6.5682,6.5338,6.519,6.5274,6.5274,6.5274,6.5274,6.5227,6.5167,6.278,6.278,6.278,6.278,6.3014,6.3275,6.3275,6.3431,6.3565,6.3285,6.3497,6.3601,6.3296,6.3517,6.3601,6.3296,6.396,6.4684,6.5217,6.5999,6.6806,6.7577,6.7687,6.7687,6.7687,6.7687,6.7687,6.7687,6.8458,6.9063,6.952,7.0907,7.1918,7.2384,7.306,7.3346,7.3278,7.3172,7.3064,7.2899,7.3009,7.3118,7.3199,7.3118,7.3199,7.341,7.3331,7.3331,7.3398,7.3398,7.3398,7.3398,7.3398,7.3398,7.3398,7.3398,7.3064,7.2506,7.1663,7.118,7.0895,7.0895,7.0895,7.0895,7.0895,7.0895,7.0784,7.0264,7.0115,7.0004,6.9484,6.9744,7.0115,7.0115,7.0524,7.0895,7.0895,7.0895,7.0895,7.0895,7.0895,7.0895,7.0895,7.0895,7.0895,7.0895,6.9929,6.9075,6.8703,6.8331,6.8095,6.8183,6.8158,6.8095,6.8095,6.8121,6.7986,6.7543,6.7555,6.7406,6.6982,6.6685,6.6537,6.6537,6.6239,6.6091,6.6091,6.6091,6.6091,6.6091,6.6091,6.6091,6.278,6.278,6.278,6.278,6.278,6.278,6.278,6.278,6.278,6.2853,6.3503,6.409,6.4127,6.4127,6.409,6.409,6.4127,6.442,6.5191,6.6035,6.6843,6.7614,6.7687,6.7687,6.7687,6.7724,6.776,6.776,6.8495,6.9357,7.033,7.1239,7.2213,7.3162,7.332,7.3398,7.3398,7.3145,7.2927,7.2751,7.3064,7.3199,7.3199,7.3199,7.3278,7.3398,7.3398,7.3398,7.3398,7.3398,7.3398,7.3398,7.3398,7.3398,7.3398,7.3398,7.3398,7.3287,7.2544,7.1701,7.1007,7.1007,7.1007,7.1007,7.1007,7.1007,7.1007,7.097,7.097,7.0932,7.0895,7.0932,7.097,7.097,7.1007,7.1007,7.1007,7.1007,7.1007,7.1007,7.1007,7.1007,7.1007,7.1007,7.1007,7.1007,7.097,7.0672,6.9855,6.8876,6.8294,6.8395,6.8319,6.8243,6.8243,6.8345,6.842,6.842,6.8507,6.8556,6.8556,6.78,6.7354,6.7354,6.6611,6.6239,6.6239,6.6239,6.6239,6.6239,6.6239,6.6239,6.278,6.278,6.278,6.278,6.278,6.278,6.278,6.278,6.2989,6.3613,6.3943,6.4273,6.4897,6.4494,6.409,6.409,6.4604,6.5081,6.5264,6.6512,6.7467,6.7677,6.7687,6.7687,6.7687,6.8238,6.8605,6.8605,6.9339,7.0257,7.1276,7.2179,7.2896,7.332,7.3372,7.3398,7.3398,7.332,7.3268,7.3215,7.3294,7.3357,7.3357,7.3357,7.3346,7.3398,7.3398,7.3398,7.3398,7.3398,7.3398,7.3398,7.3398,7.3398,7.3398,7.3398,7.3398,7.3398,7.3175,7.2927,7.2741,7.2741,7.2741,7.2741,7.2741,7.2741,7.2604,7.1869,7.1772,7.1675,7.0942,7.1327,7.1849,7.1849,7.2332,7.2741,7.2741,7.2741,7.2741,7.2741,7.2741,7.2741,7.2741,7.2741,7.2741,7.2741,7.2258,7.1552,7.071,7.0362,7.0189,7.0214,7.0189,7.0189,7.0189,7.0214,7.0214,7.0214,6.9707,6.9373,6.9373,6.8593,6.8184,6.8184,6.7986,6.7887,6.7887,6.7887,6.7887,6.7887,6.7887,6.7887,6.278,6.278,6.278,6.278,6.278,6.278,6.278,6.3099,6.3503,6.398,6.464,6.5301,6.5742,6.5191,6.464,6.464,6.5007,6.5301,6.5301,6.6696,6.7687,6.7687,6.8017,6.8238,6.8238,6.8935,6.9559,6.9926,7.0367,7.0863,7.1471,7.2484,7.3064,7.3225,7.332,7.3346,7.3331,7.3346,7.3346,7.3331,7.3331,7.332,7.3372,7.3357,7.332,7.3398,7.3398,7.3398,7.3398,7.3398,7.3398,7.3398,7.3398,7.3398,7.3398,7.3398,7.3398,7.3398,7.3398,7.3398,7.3398,7.3398,7.3398,7.3398,7.3398,7.3398,7.3298,7.2711,7.2652,7.2592,7.2006,7.2281,7.2729,7.2729,7.3064,7.3398,7.3398,7.3398,7.3398,7.3398,7.3398,7.3398,7.3398,7.3398,7.3398,7.3398,7.3027,7.2555,7.2072,7.1341,7.0895,7.0895,7.0895,7.0895,7.0895,7.0895,7.0895,7.0895,7.0487,7.0227,7.0227,6.9781,6.9558,6.9558,6.9558,6.9373,6.9038,6.9038,6.8853,6.8481,6.8481,6.8481,6.278,6.278,6.278,6.278,6.278,6.278,6.278,6.3466,6.4127,6.4237,6.5448,6.6512,6.6623,6.5999,6.5411,6.5338,6.5411,6.5411,6.5338,6.6696,6.7687,6.7687,6.8421,6.8898,6.8898,6.9706,7.055,7.1219,7.1431,7.1468,7.1524,7.2438,7.3009,7.3064,7.3278,7.3331,7.3199,7.332,7.3357,7.3199,7.3199,7.3278,7.341,7.3278,7.3278,7.3398,7.3398,7.3398,7.3398,7.3398,7.3398,7.3398,7.3398,7.3398,7.3372,7.3372,7.3346,7.3346,7.3346,7.3346,7.3346,7.3346,7.341,7.3372,7.3372,7.341,7.3372,7.3372,7.341,7.3372,7.3372,7.341,7.3398,7.3398,7.3398,7.3398,7.3398,7.3398,7.3398,7.3398,7.3398,7.3398,7.3398,7.3398,7.3398,7.3398,7.3398,7.3398,7.3398,7.2146,7.1229,7.1229,7.1229,7.1229,7.1229,7.1229,7.1229,7.1229,7.1118,7.1044,7.1044,7.0932,7.0895,7.0895,7.0895,7.0561,6.9855,6.9855,6.9484,6.8816,6.8816,6.8816,6.278,6.278,6.278,6.278,6.278,6.278,6.278,6.3466,6.4273,6.4971,6.5852,6.6696,6.7357,6.6843,6.6072,6.5411,6.5852,6.6072,6.5411,6.6696,6.7687,6.7687,6.8421,6.8898,6.8898,7.0257,7.1174,7.1293,7.1945,7.2426,7.2678,7.2881,7.3091,7.3294,7.3278,7.3225,7.3199,7.332,7.3357,7.3199,7.3199,7.3278,7.341,7.3278,7.3278,7.3398,7.3398,7.3398,7.3398,7.3398,7.3398,7.3398,7.3398,7.3398,7.341,7.3278,7.3225,7.3225,7.3118,7.3145,7.3225,7.3225,7.3331,7.3372,7.3278,7.3331,7.3372,7.3278,7.3331,7.3346,7.3278,7.3331,7.3398,7.3398,7.3398,7.3398,7.3398,7.3398,7.3398,7.3398,7.3398,7.3398,7.3398,7.3398,7.3398,7.3398,7.3398,7.3398,7.3398,7.3149,7.2964,7.2964,7.2964,7.2964,7.2964,7.2964,7.2964,7.2964,7.2332,7.1961,7.1961,7.1292,7.0895,7.0895,7.0895,7.0821,7.0672,7.0672,7.0598,7.0487,7.0487,7.0487,6.278,6.278,6.278,6.278,6.278,6.289,6.3392,6.4127,6.4971,6.5778,6.6549,6.7247,6.7614,6.7026,6.6366,6.5999,6.5888,6.5888,6.5925,6.6586,6.721,6.7677,6.8788,6.9522,6.9522,7.0991,7.1945,7.1945,7.2275,7.2582,7.2807,7.3009,7.3199,7.3372,7.3278,7.3199,7.3199,7.3199,7.3172,7.3091,7.3009,7.3,7.3199,7.3118,7.3172,7.3305,7.3346,7.3398,7.3398,7.3398,7.3398,7.3372,7.3331,7.3305,7.3278,7.3145,7.3091,7.3091,7.3009,7.3091,7.3199,7.3118,7.3252,7.3372,7.3331,7.3357,7.341,7.3331,7.332,7.341,7.3331,7.332,7.3398,7.3398,7.3398,7.3398,7.3398,7.3398,7.3398,7.3398,7.3398,7.3398,7.3398,7.3398,7.3398,7.3398,7.3398,7.3398,7.3398,7.3398,7.3398,7.3398,7.3398,7.3398,7.3398,7.3398,7.3398,7.3398,7.3064,7.2841,7.2841,7.2406,7.2184,7.2184,7.2184,7.1998,7.1589,7.1589,7.1329,7.0895,7.0895,7.0895,6.278,6.278,6.278,6.278,6.278,6.3025,6.3906,6.4714,6.5521,6.6329,6.7136,6.7687,6.7687,6.7173,6.6696,6.6512,6.5962,6.5778,6.6402,6.6512,6.6806,6.7577,6.8972,6.9926,7.0073,7.1394,7.2312,7.2496,7.2524,7.261,7.2751,7.3037,7.3225,7.3346,7.3225,7.3145,7.3091,7.3037,7.2982,7.2927,7.2779,7.2807,7.2982,7.2982,7.3064,7.3199,7.332,7.3398,7.3372,7.3346,7.3383,7.332,7.3225,7.3145,7.3145,7.2982,7.2927,7.2927,7.2899,7.3009,7.3182,7.3258,7.331,7.3372,7.3383,7.3372,7.3398,7.3398,7.3398,7.3398,7.3398,7.3398,7.3398,7.3398,7.3547,7.3632,7.3632,7.3807,7.3919,7.3919,7.3919,7.3919,7.3919,7.3919,7.3919,7.3919,7.3919,7.3919,7.3919,7.3919,7.3919,7.3919,7.3621,7.3398,7.3398,7.3398,7.3398,7.3398,7.3398,7.3398,7.3398,7.3398,7.3398,7.3398,7.3398,7.3101,7.2469,7.2469,7.2109,7.1441,7.1441,7.1441,6.278,6.278,6.278,6.278,6.278,6.3025,6.3906,6.4714,6.5521,6.6329,6.7136,6.7687,6.7687,6.7614,6.7357,6.6623,6.6439,6.6402,6.6476,6.6512,6.6806,6.7577,6.8495,6.9302,7.0036,7.0881,7.1725,7.2459,7.261,7.2751,7.2955,7.3009,7.3064,7.3225,7.3091,7.2927,7.2751,7.2927,7.2927,7.2723,7.2723,7.2807,7.2982,7.2982,7.3064,7.3199,7.332,7.3398,7.3372,7.3278,7.3225,7.3199,7.3064,7.3009,7.2982,7.2779,7.2723,7.2723,7.2582,7.276,7.312,7.3859,7.3791,7.3372,7.3252,7.3305,7.3398,7.3398,7.3398,7.3398,7.3398,7.3398,7.3398,7.3398,7.393,7.4487,7.4487,7.5044,7.5564,7.5564,7.5564,7.5564,7.5564,7.5564,7.5564,7.5564,7.5564,7.5564,7.5564,7.5564,7.5564,7.5564,7.4264,7.3398,7.3398,7.3398,7.3398,7.3398,7.3398,7.3398,7.3398,7.3398,7.3398,7.3398,7.3398,7.3361,7.3287,7.3287,7.325,7.3149,7.3149,7.3149,6.278,6.278,6.278,6.278,6.278,6.3025,6.3906,6.4714,6.5521,6.6329,6.7136,6.7687,6.7687,6.7687,6.743,6.6623,6.6109,6.5962,6.6439,6.6072,6.6256,6.754,6.8421,6.9229,7.0,7.0844,7.1651,7.2459,7.2553,7.2638,7.2807,7.3009,7.3145,7.3199,7.3064,7.2955,7.2899,7.2788,7.2638,7.2582,7.2582,7.261,7.2732,7.2899,7.3037,7.3091,7.3225,7.3278,7.3278,7.3145,7.3064,7.3064,7.2899,7.2807,7.2779,7.2638,7.2876,7.328,7.3259,7.3668,7.4318,7.4613,7.4681,7.4616,7.4752,7.4795,7.4821,7.4821,7.4821,7.4821,7.4821,7.4821,7.4821,7.4821,7.5081,7.5304,7.5304,7.5564,7.5787,7.5787,7.5787,7.5787,7.5787,7.5787,7.5787,7.5787,7.5787,7.5787,7.5787,7.5787,7.5787,7.5787,7.523,7.4821,7.4821,7.4821,7.4821,7.4821,7.4821,7.4821,7.4821,7.4375,7.4115,7.4115,7.3658,7.3398,7.3398,7.3398,7.3398,7.3398,7.3398,7.3398,6.278,6.278,6.278,6.278,6.278,6.3025,6.3906,6.4714,6.5521,6.6329,6.7136,6.7687,6.7687,6.7687,6.743,6.6623,6.5815,6.5521,6.6072,6.5668,6.5815,6.7173,6.8054,6.8935,7.0,7.1027,7.1908,7.2459,7.2496,7.2524,7.2638,7.289,7.3064,7.3064,7.2982,7.2899,7.2872,7.261,7.2496,7.2496,7.2496,7.2496,7.2496,7.2816,7.2927,7.2927,7.3064,7.3145,7.3118,7.2982,7.2927,7.2899,7.2695,7.2638,7.2675,7.2781,7.3193,7.3707,7.3964,7.4493,7.5153,7.5411,7.5638,7.5817,7.6264,7.606,7.5652,7.5652,7.5652,7.5652,7.5652,7.5706,7.5733,7.5733,7.5983,7.6159,7.6159,7.6344,7.653,7.653,7.653,7.653,7.653,7.653,7.653,7.653,7.653,7.653,7.653,7.653,7.653,7.653,7.653,7.6344,7.5824,7.5787,7.5787,7.5787,7.5787,7.5787,7.5787,7.5267,7.4933,7.4933,7.4375,7.4115,7.4115,7.4115,7.3967,7.3744,7.3744,7.3632,6.278,6.278,6.278,6.278,6.278,6.3025,6.3906,6.4714,6.5521,6.6329,6.7136,6.7687,6.7687,6.7687,6.743,6.6623,6.5815,6.5301,6.5301,6.5301,6.5595,6.6402,6.721,6.8311,6.9926,7.1541,7.2496,7.2496,7.2496,7.2496,7.2496,7.2638,7.2723,7.2723,7.2695,7.2638,7.2496,7.2496,7.2496,7.2496,7.2496,7.2496,7.2496,7.2638,7.2695,7.2723,7.2927,7.3009,7.2982,7.2779,7.2695,7.2695,7.2553,7.2496,7.2606,7.3377,7.367,7.3817,7.4625,7.497,7.5227,7.6111,7.6486,7.6749,7.7525,7.6675,7.542,7.542,7.542,7.542,7.542,7.5495,7.5606,7.5606,7.6347,7.7115,7.7115,7.7709,7.8239,7.8239,7.8239,7.8239,7.8239,7.8239,7.8239,7.8239,7.8239,7.8239,7.8239,7.8239,7.8239,7.8239,7.8239,7.7608,7.5936,7.5787,7.5787,7.5787,7.5787,7.5787,7.5787,7.5787,7.5787,7.5787,7.5787,7.5787,7.5787,7.5787,7.5378,7.4561,7.4561,7.4179,6.278,6.278,6.278,6.278,6.278,6.2879,6.3172,6.387,6.453,6.4787,6.5925,6.6696,6.6145,6.6512,6.6439,6.5081,6.464,6.4494,6.4494,6.4971,6.5595,6.6402,6.8164,6.9687,7.0502,7.1729,7.2496,7.2496,7.2496,7.2496,7.2496,7.2524,7.261,7.2695,7.2695,7.2695,7.2638,7.2553,7.2496,7.2496,7.2496,7.2496,7.2496,7.2638,7.2695,7.2695,7.2751,7.2779,7.2779,7.261,7.2553,7.259,7.3112,7.3303,7.3413,7.4221,7.4882,7.5395,7.5616,7.6123,7.6667,7.6925,7.7028,7.7132,7.7383,7.7275,7.7045,7.7045,7.7045,7.7045,7.7045,7.7074,7.7103,7.7103,7.7345,7.7558,7.7558,7.7829,7.8099,7.8099,7.8221,7.8276,7.8276,7.8276,7.8276,7.8276,7.8276,7.8276,7.8276,7.8276,7.8276,7.8276,7.8276,7.809,7.7533,7.7496,7.7496,7.7496,7.7496,7.7496,7.7496,7.6976,7.6706,7.6706,7.6084,7.5787,7.5787,7.5787,7.5676,7.5416,7.5416,7.5267,6.278,6.278,6.278,6.278,6.278,6.278,6.278,6.3466,6.409,6.409,6.5154,6.5888,6.5411,6.5705,6.5632,6.431,6.409,6.398,6.3649,6.4604,6.5783,6.7056,6.8666,6.9962,7.0733,7.1581,7.2165,7.2496,7.2496,7.2496,7.2496,7.2496,7.2524,7.261,7.261,7.261,7.261,7.2524,7.2496,7.2496,7.2496,7.2496,7.2496,7.2582,7.261,7.261,7.261,7.261,0.0,7.2524,7.2679,7.301,7.3487,7.3891,7.4258,7.5065,7.5689,7.613,7.646,7.687,7.7273,7.7273,7.7273,7.7273,7.7273,7.7426,7.7607,7.7607,7.7607,7.7607,7.7607,7.7673,7.7732,7.7732,7.7762,7.782,7.782,7.7871,7.7957,7.8014,7.8099,7.8221,7.8276,7.8276,7.8276,7.8276,7.8276,7.8276,7.8276,7.8276,7.8276,7.8276,7.8276,7.8276,7.8276,7.8276,7.8276,7.8276,7.8276,7.8276,7.8276,7.7793,7.7561,7.7561,7.7013,7.6716,7.6716,7.6419,7.627,7.627,7.5936,7.5787,0.0,6.278,6.278,6.278,6.278,6.278,6.278,6.3429,0.0,6.4016,6.464,6.5191,6.5154,6.5191,6.4971,6.4127,6.4016,6.3723,6.289,6.4237,6.6058,6.816,6.872,6.9426,7.071,7.1156,7.1708,7.248,7.2524,7.2496,7.2496,7.2496,7.2496,7.2496,7.2496,7.2496,7.2496,7.2496,7.2496,7.2496,7.2496,7.2496,7.2496,7.2496,7.2496,7.2496,7.2496,7.2496,7.2496,7.2569,7.3046,7.3707,7.3817,7.4331,7.5102,7.5909,7.6203,7.6276,7.7017,7.7273,7.7273,7.7273,7.7273,7.7273,7.7273,7.7273,7.7273,7.7273,7.7273,7.7273,7.7273,7.7433,7.759,7.759,7.7673,7.7754,7.7754,7.7791,7.7813,7.7957,7.7986,7.8043,7.8221,7.8276,7.8276,7.8276,7.8276,7.8276,7.8276,7.8276,7.8276,7.8276,7.8276,7.8276,7.8276,7.8276,7.8276,7.8276,7.8276,7.8276,7.8276,7.8276,7.8276,7.8276,7.8276,7.8276,7.8276,7.7561,7.7189,7.7189,7.6344,7.5973,6.278,0.0,6.278,6.278,6.278,6.278,0.0,6.2989,6.3099,6.3099,6.3796,6.4163,6.3503,6.3943,6.409,6.3246,6.3099,6.3025,6.2817,6.4237,6.6058,6.816,6.9014,6.9917,7.1191,7.1653,7.2198,7.3077,7.2714,7.2496,7.2496,7.2496,7.2496,7.2496,7.2496,7.2496,7.2496,7.2496,7.2496,7.2496,7.2496,7.2496,7.2496,7.2496,7.2496,7.2496,7.2496,7.2496,7.2569,7.3156,7.3523,7.3817,7.5065,7.5652,7.5909,7.6717,7.7047,7.7047,7.7237,7.7273,7.7273,7.7273,7.7273,7.7273,7.7273,7.7273,7.7273,7.7273,7.7273,7.7273,7.7273,7.7341,7.7372,7.7372,7.7365,7.7396,7.7396,7.7554,7.7643,7.7673,7.7791,7.7842,7.7937,7.7986,7.8071,7.8071,7.8221,7.8276,7.8276,7.8276,7.8276,7.8276,7.8276,7.8276,7.8276,7.8276,7.8276,7.8276,7.8276,7.8276,7.8276,7.8276,7.8276,7.8276,7.8276,7.8276,7.8276,7.809,7.8016,7.7979,7.7793,7.7682,6.278,6.278,6.278,6.278,6.278,6.278,6.278,6.278,6.278,6.278,6.3172,6.3356,6.289,6.337,6.3591,6.2903,6.2965,6.3296,6.3858,6.5044,6.6565,6.8469,6.891,6.9761,7.1621,7.1597,7.1972,7.3224,7.2798,7.2496,7.2496,7.2496,7.2496,7.2496,7.2496,7.2496,7.2496,7.2496,7.2496,7.2496,7.2496,7.2496,7.2496,7.2496,7.2496,7.2496,7.2496,7.2496,7.2569,7.3377,7.3927,7.4368,7.5616,7.635,7.6717,7.7127,7.7273,7.7273,7.7273,7.7273,7.7273,7.7273,7.7273,7.7273,7.7273,7.7273,7.7273,7.7273,7.7273,7.7273,7.7273,7.7273,7.7273,7.7273,7.7273,7.7273,7.7273,7.7402,7.7493,7.7554,7.7643,7.7732,7.7791,7.79,7.8014,7.8014,7.8193,7.8276,7.8276,7.8276,7.8276,7.8276,7.8276,7.8276,7.8276,7.8276,7.8276,7.8276,7.8276,7.8276,7.8276,7.8276,7.8276,7.8276,7.8276,7.8276,7.8276,7.8276,7.8276,7.8276,7.8276,7.8276,6.278,6.278,6.278,6.278,6.278,6.278,6.278,6.278,6.2805,6.2904,6.2855,6.2805,6.2904,6.3181,6.3238,6.2855,6.3245,6.4002,6.5198,6.6051,6.7121,6.878,6.8688,6.9447,7.1801,7.1343,7.1541,7.3092,7.2779,7.2496,7.2496,7.2496,7.2496,7.2496,7.2496,7.2496,7.2496,7.2496,7.2496,7.2496,7.2496,7.2496,7.2496,7.2496,7.2496,7.2496,7.2496,7.2496,7.2569,7.3487,7.4294,7.4992,7.5909,7.6717,7.7273,7.7273,7.7273,7.7273,7.7273,7.7273,7.7273,7.7273,7.7273,7.7273,7.7273,7.7273,7.7273,7.7273,7.7273,7.7273,7.7273,7.7273,7.7273,7.7273,7.7273,7.7273,7.7273,7.7273,7.7372,7.7524,7.7524,7.7584,7.7695,7.7842,7.7957,7.7957,7.8108,7.8221,7.8221,7.8248,7.8248,7.8248,7.8276,7.8276,7.8276,7.8276,7.8276,7.8276,7.8276,7.8276,7.8276,7.8276,7.8276,7.8276,7.8276,7.8276,7.8276,7.8276,7.8276,7.8276,7.8276,7.8276,6.278,6.278,6.278,6.278,6.278,6.278,6.278,6.278,6.2929,6.3308,6.3062,6.2929,6.3308,6.3134,6.288,6.2805,6.3504,6.4414,6.5642,6.6208,6.7005,6.8331,6.878,6.9574,7.1046,7.1293,7.1785,7.2745,7.26,7.2496,7.2496,7.2496,7.2496,7.2496,7.2496,7.2496,7.2496,7.2496,7.2496,7.2496,7.2496,7.2496,7.2496,7.2496,7.2496,7.2496,7.2496,7.2496,7.2606,7.4111,7.4808,7.5065,7.654,7.7163,7.7273,7.7273,7.7273,7.7273,7.7273,7.7273,7.7273,7.7273,7.7273,7.7273,7.7273,7.7273,7.7273,7.7273,7.7273,7.7273,7.7273,7.7273,7.7273,7.7273,7.7273,7.7273,7.7273,7.7273,7.7341,7.7341,7.7372,7.7372,7.7365,7.7554,7.7643,7.7643,7.7791,7.7879,7.7879,7.7957,7.8043,7.8043,7.8221,7.8276,7.8276,7.8276,7.8276,7.8276,7.8276,7.8276,7.8276,7.8276,7.8276,7.8276,7.8276,7.8276,7.8276,7.8276,7.8276,7.8276,7.8276,7.8276,6.288,6.3002,6.311,6.2855,6.278,6.288,6.311,6.3181,6.3285,6.3739,6.3653,6.3498,6.3513,6.3696,6.3888,6.3888,6.4531,6.5249,6.5821,6.6628,6.755,6.8651,6.8959,6.9704,7.1215,7.1072,7.1396,7.2612,7.2172,7.2055,7.2496,7.2496,7.2496,7.2496,7.2496,7.2496,7.2496,7.2496,7.2496,7.2496,7.2798,7.277,7.2496,7.2496,7.2496,7.2496,7.2496,7.2753,7.323,7.4441,7.5175,7.5689,7.6833,7.7273,7.7273,7.7273,7.7273,7.7273,7.7273,7.7273,7.7273,7.7273,7.7273,7.7273,7.7273,7.7273,7.7273,7.7273,7.7273,7.7273,7.7273,7.7273,7.7273,7.7273,7.7273,7.7273,7.7273,7.7273,7.7273,7.7273,7.7273,7.7273,7.7273,7.7463,7.762,7.762,7.7791,7.79,7.79,7.8043,7.8155,7.8155,7.8248,7.8276,7.8276,7.8276,7.8276,7.8276,7.8276,7.8276,7.8276,7.8276,7.8276,7.8276,7.8276,7.8276,7.8276,7.8276,7.8276,7.8276,7.8276,7.8276,6.3062,6.3285,6.3543,6.3191,6.2941,6.2929,6.3377,6.349,6.3668,6.4174,6.4156,6.4033,6.3696,6.4114,6.4539,6.4631,6.5357,6.5928,6.6021,6.6999,6.8033,6.8981,6.9091,6.971,7.1231,7.074,7.084,7.2206,7.1695,7.1635,7.2364,7.2443,7.2496,7.2496,7.2496,7.2496,7.2496,7.2638,7.2638,7.2496,7.2936,7.2908,7.2496,7.2496,7.2496,7.2496,7.2496,7.2973,7.3744,7.4588,7.5395,7.6166,7.698,7.7273,7.7273,7.7273,7.7273,7.7273,7.7273,7.7273,7.7273,7.7273,7.7273,7.7273,7.7273,7.7273,7.7273,7.7273,7.7273,7.7273,7.7273,7.7273,7.7273,7.7273,7.7273,7.7273,7.7273,7.7273,7.7273,7.7273,7.7273,7.7273,7.7273,7.7433,7.7524,7.7524,7.7725,7.79,7.79,7.8108,7.8248,7.8248,7.8276,7.8276,7.8276,7.8276,7.8276,7.8276,7.8276,7.8276,7.8276,7.8276,7.8276,7.8276,7.8276,7.8276,7.8276,7.8276,7.8276,7.8276,7.8276,7.8276,6.3445,6.3739,6.4036,6.3995,6.3385,6.2929,6.3377,6.349,6.3755,6.4595,6.4407,6.4076,6.4056,6.3803,6.3696,6.4076,6.5142,6.6021,6.6406,6.7185,6.8033,6.8981,6.9091,6.9484,7.0374,7.0399,7.0541,7.1082,7.1231,7.1508,7.198,7.2337,7.2496,7.2496,7.2496,7.2496,7.2496,7.298,7.298,7.2496,7.2524,7.2524,7.2496,7.2496,7.2496,7.2496,7.2496,7.2973,7.3744,7.4588,7.5395,7.6166,7.698,7.7273,7.7273,7.7273,7.7273,7.7273,7.7273,7.7273,7.7273,7.7273,7.7273,7.7273,7.7273,7.7273,7.7273,7.7273,7.7273,7.7273,7.7273,7.7273,7.7273,7.7273,7.7273,7.7273,7.7273,7.7273,7.7273,7.7273,7.7273,7.7273,7.7273,7.7304,7.7304,7.7304,7.7493,7.7614,7.7614,7.7842,7.8043,7.8043,7.8193,7.8276,7.8276,7.8276,7.8276,7.8276,7.8276,7.8276,7.8276,7.8276,7.8276,7.8276,7.8276,7.8276,7.8276,7.8276,7.8276,7.8276,7.8276,7.8276,6.358,6.3803,6.4096,6.4096,6.3431,6.3062,6.4074,6.4094,6.4134,6.5002,6.5052,6.4845,6.4575,6.4407,6.435,6.4501,6.5764,6.6657,6.6533,6.7435,6.837,6.9025,6.9091,6.9446,7.0298,7.0137,7.0125,7.055,7.0374,7.0645,7.1517,7.1691,7.1982,7.2496,7.2496,7.2667,7.298,7.3193,7.3338,7.3429,7.3141,7.2826,7.2496,7.2496,7.2496,7.2496,7.2496,7.323,7.4478,7.4771,7.5689,7.69,7.7163,7.7273,7.7273,7.7273,7.7273,7.7273,7.7273,7.7273,7.7273,7.7273,7.7273,7.7273,7.7273,7.7273,7.7273,7.7273,7.7273,7.7273,7.7273,7.7273,7.7273,7.7273,7.7273,7.7273,7.7273,7.7273,7.7273,7.7273,7.7273,7.7273,7.7273,7.7402,7.7493,7.7493,7.7703,7.7842,7.7842,7.808,7.8193,7.8193,7.8248,7.8276,7.8276,7.8276,7.8404,7.8738,7.8458,7.8276,7.8276,7.8276,7.8276,7.8276,7.8276,7.8276,7.8276,7.8276,7.8276,7.8276,7.8276,7.8276,6.395,6.4214,6.452,6.452,6.3954,6.3718,6.4757,6.452,6.4332,6.5236,6.5298,6.5117,6.4827,6.4792,6.4792,6.4792,6.6159,6.7014,6.6575,6.7597,6.8548,6.9047,6.9091,6.9446,7.0298,7.0038,6.9948,7.03,6.9887,7.0015,7.0946,7.1186,7.1578,7.2092,7.2386,7.2742,7.3298,7.3298,7.3466,7.3774,7.3441,7.3087,7.2742,7.2582,7.2496,7.2496,7.2496,7.3413,7.4918,7.4918,7.5842,7.7273,7.7273,7.7273,7.7273,7.7273,7.7273,7.7273,7.7273,7.7273,7.7273,7.7273,7.7273,7.7273,7.7273,7.7273,7.7273,7.7273,7.7273,7.7273,7.7273,7.7273,7.7273,7.7273,7.7273,7.7273,7.7273,7.7273,7.7273,7.7273,7.7372,7.7402,7.7402,7.7554,7.7643,7.7643,7.7842,7.8014,7.8014,7.8193,7.8359,7.8512,7.8512,7.8592,7.8738,7.8738,7.8879,7.9184,7.8929,7.8738,7.8738,7.8738,7.866,7.8538,7.8538,7.8512,7.8512,7.8512,7.8618,7.8738,7.8738,7.866,6.4686,6.5085,6.5413,6.5413,6.5085,6.4917,6.5298,6.4719,6.4332,6.5236,6.5085,6.4792,6.4792,6.4792,6.4792,6.4792,6.6159,6.7033,6.6575,6.7597,6.8586,6.9047,6.9091,6.9446,7.0298,7.0055,6.9983,7.0369,6.9907,6.9802,7.0248,7.0924,7.1256,7.1293,7.2092,7.277,7.3298,7.3324,7.3324,7.3324,7.3324,7.3298,7.3272,7.2742,7.2496,7.2496,7.2496,7.3413,7.4918,7.4918,7.5842,7.7273,7.7273,7.7273,7.7273,7.7273,7.7273,7.7273,7.7273,7.7273,7.7273,7.7273,7.7273,7.7273,7.7273,7.7273,7.7273,7.7273,7.7273,7.7273,7.7273,7.7273,7.7273,7.7273,7.7273,7.7273,7.7273,7.7273,7.7273,7.7273,7.7463,7.762,7.762,7.7703,7.7783,7.7783,7.7928,7.8014,7.8014,7.8155,7.8485,7.8929,7.9004,7.9161,7.9665,7.9708,7.9708,7.9708,7.9708,7.9708,7.9708,7.9708,7.9487,7.9028,7.9028,7.9004,7.9004,7.9004,7.9256,7.9708,7.9708,7.9441,6.4757,6.49,6.5052,6.5314,6.4862,6.452,6.5291,6.5014,6.4757,6.5283,6.5298,6.5117,6.4827,6.5035,6.5117,6.4865,6.6442,6.74,6.6616,6.7888,6.8937,6.9069,6.9091,6.9446,7.0298,7.0281,6.9999,6.9526,6.9337,6.9276,6.9318,6.9503,7.0146,7.1256,7.1857,7.2692,7.3774,7.4109,7.4476,7.4861,7.4124,7.3441,7.2714,7.2582,7.2496,7.2496,7.2496,7.3413,7.4992,7.6099,7.687,7.7273,7.7273,7.7273,7.7273,7.7273,7.7273,7.7273,7.7273,7.7273,7.7273,7.7273,7.7273,7.7273,7.7273,7.7273,7.7273,7.7273,7.7273,7.7273,7.7273,7.7273,7.7273,7.7273,7.7273,7.7273,7.7273,7.7273,7.7372,7.7493,7.759,7.7614,7.7732,7.7842,7.7957,7.7957,7.8071,7.8221,7.8221,7.8828,7.9208,7.9028,7.9279,7.9554,7.9686,7.9708,7.9836,8.018,8.02,8.0043,7.9708,7.9708,7.9643,7.9509,7.9487,7.9487,7.9487,7.9487,7.9576,7.9708,7.9708,7.9621,6.5002,6.5035,6.5101,6.5375,6.5047,6.4824,6.5397,6.5322,6.5182,6.539,6.545,6.5405,6.5182,6.5307,6.5405,6.5166,6.6773,6.7763,6.6956,6.8149,6.9219,6.9344,6.9198,6.9446,7.0298,7.0419,7.0196,6.9644,6.9303,6.9072,6.8952,6.892,6.9339,7.033,7.1249,7.2309,7.3521,7.4114,7.4664,7.5151,7.4561,7.3774,7.2798,7.261,7.2496,7.2532,7.2826,7.3707,7.5028,7.6313,7.698,7.7273,7.7273,7.7273,7.7273,7.7273,7.7273,7.7273,7.7273,7.7273,7.7273,7.7273,7.7273,7.7273,7.7273,7.7273,7.7273,7.7273,7.7273,7.7273,7.7273,7.7273,7.7273,7.7273,7.7273,7.7273,7.7273,7.7273,7.7372,7.7554,7.7643,7.7732,7.7842,7.8174,7.8339,7.8155,7.8377,7.8633,7.8803,7.9349,7.9665,7.9576,7.9815,8.0043,8.0258,8.0258,8.0373,8.0646,8.0702,8.0558,8.0278,8.0258,8.018,7.9982,7.9961,7.9961,7.9961,7.9961,8.0063,8.0258,8.0258,8.018,6.5298,6.5429,6.5444,6.5494,6.5509,6.5537,6.5594,6.5608,6.5594,6.5523,6.5552,6.5594,6.5594,6.5594,6.5594,6.5594,6.7065,6.8005,6.7455,6.8488,6.9388,6.974,6.9405,6.9486,7.0315,7.0419,7.0402,7.0369,6.9605,6.9112,6.9047,6.8939,6.8879,6.8898,7.045,7.1817,7.277,7.3688,7.4369,7.4766,7.4725,7.4221,7.335,7.2826,7.2553,7.2532,7.334,7.4147,7.4955,7.5763,7.657,7.7273,7.7273,7.7273,7.7273,7.7273,7.7273,7.7273,7.7273,7.7273,7.7273,7.7273,7.7273,7.7273,7.7273,7.7273,7.7273,7.7273,7.7273,7.7273,7.7273,7.7273,7.7273,7.7273,7.7273,7.7273,7.7273,7.7273,7.7365,7.7614,7.7791,7.7928,7.809,7.8648,7.8904,7.8485,7.8828,7.9256,7.9643,7.9773,7.9961,8.0354,8.0428,8.0629,8.1061,8.1093,8.1093,8.1093,8.1093,8.1093,8.1093,8.1093,8.091,8.0485,8.0447,8.0447,8.0447,8.0447,8.0664,8.1093,8.1093,8.0893,6.5435,6.5479,6.5494,6.5566,6.566,6.5701,6.5608,6.5728,6.5781,6.5608,6.5594,6.5594,6.5594,6.5594,6.5594,6.5594,6.7065,6.8005,6.7455,6.8772,6.9759,6.9816,6.9701,6.9834,7.0331,7.0419,7.0264,6.9965,6.974,6.9323,6.8609,6.8531,6.8613,6.8898,7.0599,7.1949,7.2793,7.4366,7.5226,7.53,7.4903,7.4396,7.3845,7.3338,7.2908,7.2532,7.334,7.4147,7.4955,7.5763,7.657,7.7273,7.7273,7.7273,7.7273,7.7273,7.7273,7.7273,7.7273,7.7273,7.7273,7.7273,7.7273,7.7273,7.7273,7.7273,7.7273,7.7273,7.7273,7.7273,7.7273,7.7273,7.7273,7.7273,7.7273,7.7273,7.7273,7.7273,7.7487,7.8118,7.8265,7.8521,7.9075,7.9358,7.9509,7.9418,7.9794,8.0002,7.973,8.0335,8.072,8.041,8.0737,8.0975,8.1093,8.1093,8.1093,8.1093,8.1093,8.1093,8.1093,8.1093,8.1061,8.0943,8.0943,8.0943,8.0943,8.0943,8.0991,8.1093,8.1093,8.1045,6.5494,6.5523,6.5566,6.5674,6.5755,6.5833,6.5755,6.5808,6.5885,6.5768,6.5742,6.5742,6.5742,6.5742,6.5742,6.5742,6.7176,6.8206,6.7859,6.8861,6.974,7.0126,6.9759,6.972,7.0331,7.0419,7.0298,7.0109,6.9928,6.9504,6.8757,6.8538,6.837,6.8338,6.9831,7.1139,7.2215,7.3777,7.4864,7.5501,7.5226,7.4685,7.3986,7.3235,7.277,7.2532,7.2936,7.3817,7.4955,7.5359,7.624,7.7273,7.7273,7.7273,7.7273,7.7273,7.7273,7.7273,7.7273,7.7273,7.7273,7.7273,7.7273,7.7273,7.7273,7.7273,7.7273,7.7273,7.7273,7.7273,7.7273,7.7273,7.7365,7.7592,7.748,7.7365,7.7659,7.768,7.7903,7.8677,7.8879,7.9013,7.9494,7.9665,7.9858,8.0297,8.0373,8.0391,8.0373,8.0788,8.1029,8.0771,8.0943,8.1093,8.1093,8.1093,8.1093,8.1093,8.1093,8.1093,8.1093,8.1093,8.1093,8.1093,8.1093,8.1093,8.1093,8.1093,8.1093,8.1093,8.1093,8.1093,6.5509,6.558,6.5688,6.5793,6.5859,6.5897,6.5897,6.5897,6.5897,6.5897,6.5897,6.5897,6.5897,6.5897,6.5897,6.5897,6.7321,6.8371,6.829,6.9053,6.9833,7.0522,6.9872,6.9625,7.0315,7.0419,7.0419,7.0419,7.0091,6.9701,6.924,6.8757,6.8297,6.7836,6.9063,7.0354,7.1598,7.2934,7.4258,7.5518,7.5409,7.4863,7.3986,7.3024,7.2582,7.2496,7.2496,7.3413,7.4918,7.5,7.5926,7.7304,7.7396,7.7396,7.7273,7.7273,7.7273,7.7273,7.7273,7.7273,7.7273,7.7273,7.7273,7.7273,7.7273,7.7273,7.7273,7.7273,7.7273,7.7273,7.7273,7.7365,7.754,7.7988,7.7817,7.768,7.8118,7.8255,7.8484,7.9288,7.9516,7.967,7.9899,7.9941,8.022,8.0975,8.0771,8.0646,8.1061,8.1093,8.1093,8.1093,8.1093,8.1093,8.1093,8.1093,8.1093,8.1093,8.1093,8.1093,8.1093,8.1093,8.1093,8.1093,8.1093,8.1093,8.1093,8.1093,8.1093,8.1093,8.1093,8.1093,6.5552,6.5728,6.5872,6.5885,6.5897,6.5897,6.5897,6.5897,6.5897,6.5897,6.5897,6.5897,6.5897,6.5897,6.5897,6.5897,6.7321,6.8371,6.829,6.9625,7.0586,7.0585,7.049,7.0386,7.0402,7.0419,7.0419,7.0419,7.0369,7.0144,6.972,6.924,6.878,6.8321,6.9542,7.0661,7.1598,7.3289,7.4569,7.5501,7.5019,7.454,7.3986,7.3441,7.2963,7.2496,7.2496,7.3413,7.4948,7.5412,7.6261,7.7335,7.7826,7.771,7.7273,7.7273,7.7273,7.7273,7.7273,7.7273,7.7273,7.7273,7.7273,7.7273,7.7273,7.7273,7.7273,7.7273,7.7273,7.7273,7.7273,7.7622,7.8016,7.8063,7.8416,7.869,7.8766,7.8891,7.9133,7.9708,8.0297,8.0716,8.0893,8.091,8.0943,8.1077,8.1061,8.1045,8.1093,8.1093,8.1093,8.1093,8.1093,8.1093,8.1093,8.1093,8.1093,8.1093,8.1093,8.1093,8.1093,8.1093,8.1093,8.1093,8.1093,8.1093,8.1093,8.1093,8.1093,8.1093,8.1093,8.1093,6.566,6.5781,6.5897,6.5897,6.5897,6.5897,6.5897,6.5897,6.5897,6.5897,6.5897,6.5897,6.5897,6.5897,6.5897,6.5897,6.6898,6.7846,6.8268,6.9121,6.9934,7.057,7.0402,7.0247,7.0402,7.0419,7.0419,7.0419,7.0419,7.0213,6.9835,6.9604,6.9261,6.8803,6.9578,7.0657,7.1962,7.302,7.4201,7.5501,7.4961,7.4564,7.4353,7.3603,7.3017,7.2496,7.2496,7.3578,7.5356,7.5595,7.6696,7.8228,7.8469,7.8416,7.8146,7.7846,7.7739,7.771,7.7396,7.7273,7.7273,7.7273,7.7273,7.7273,7.7273,7.7273,7.7273,7.7273,7.7273,7.7365,7.7651,7.7932,7.8255,7.8841,7.9194,7.9426,7.973,7.9583,7.9627,8.0297,8.0737,8.1007,8.1093,8.1093,8.1093,8.1093,8.1093,8.1093,8.1093,8.1093,8.1093,8.1093,8.1093,8.1093,8.1093,8.1093,8.1093,8.1093,8.1093,8.1093,8.1093,8.1093,8.1093,8.1093,8.1093,8.1093,8.1093,8.1093,8.1093,8.1093,8.1093,8.1093,6.5701,6.5833,6.5897,6.5897,6.5897,6.5897,6.5897,6.5897,6.5897,6.5897,6.5897,6.5897,6.5897,6.5897,6.5897,6.5897,6.659,6.7398,6.8282,6.8761,6.9428,7.0578,7.0364,7.0175,7.0402,7.0419,7.0419,7.0419,7.0419,7.0264,6.9983,6.974,6.9524,6.9282,6.9504,7.0477,7.2261,7.3186,7.424,7.5501,7.5095,7.4825,7.4685,7.3845,7.322,7.2686,7.2553,7.3711,7.5729,7.5861,7.7104,7.8915,7.9037,7.9013,7.8841,7.8432,7.8228,7.8044,7.7622,7.7426,7.7273,7.7273,7.7273,7.7273,7.7273,7.7396,7.745,7.7335,7.748,7.7768,7.8044,7.8309,7.869,7.9494,7.9794,8.002,8.0468,8.0258,8.0161,8.0775,8.1013,8.1093,8.1093,8.1093,8.1093,8.1093,8.1093,8.1093,8.1093,8.1093,8.1093,8.1093,8.1093,8.1093,8.1093,8.1093,8.1093,8.1093,8.1093,8.1093,8.1093,8.1093,8.1093,8.1093,8.1093,8.1093,8.1093,8.1093,8.1093,8.1093,8.1093,8.1093,6.5608,6.5755,6.5897,6.5897,6.5897,6.5897,6.5897,6.5897,6.5897,6.5897,6.5897,6.5897,6.5897,6.5897,6.5897,6.5897,6.659,6.7398,6.8282,6.9102,6.9893,7.0622,7.0693,7.0593,7.0419,7.0419,7.0419,7.0419,7.0419,7.0402,7.0386,6.9585,6.9323,6.974,6.9344,7.0135,7.2261,7.433,7.5403,7.5518,7.5445,7.517,7.4705,7.4177,7.3701,7.322,7.2714,7.3711,7.5756,7.6231,7.7426,7.894,7.9449,7.9358,7.8891,7.8866,7.8536,7.8128,7.8072,7.7739,7.7273,7.7273,7.7273,7.7273,7.7273,7.7651,7.796,7.742,7.8044,7.869,7.8228,7.8841,7.9643,7.9686,8.0099,8.0525,8.0741,8.0758,8.0809,8.1045,8.1093,8.1093,8.1093,8.1093,8.1093,8.1093,8.1093,8.1093,8.1093,8.1093,8.1093,8.1093,8.1093,8.1093,8.1093,8.1093,8.1093,8.1093,8.1093,8.1093,8.1093,8.1093,8.1093,8.1093,8.1093,8.1093,8.1093,8.1093,8.1093,8.1093,8.1093,8.1093,6.5701,6.582,6.5897,6.5897,6.5897,6.5897,6.5897,6.5897,6.5897,6.5897,6.5897,6.5897,6.5897,6.5897,6.5897,6.5897,6.6128,6.6821,6.8205,6.8667,6.9358,7.0604,7.0752,7.0662,7.0538,7.0451,7.0419,7.0419,7.0419,7.0419,7.0419,7.0088,6.9999,7.0179,7.0017,7.0854,7.2711,7.4569,7.5518,7.5518,7.5518,7.5392,7.5208,7.4685,7.4177,7.3725,7.3554,7.4512,7.6256,7.6791,7.8187,7.9958,8.0159,8.0119,7.9916,7.9538,7.9311,7.9099,7.8716,7.8484,7.8282,7.7932,7.7789,7.7789,7.7789,7.796,7.8118,7.8282,7.8588,7.894,7.9099,7.9403,7.9773,8.0139,8.0373,8.0596,8.0758,8.0843,8.0893,8.0959,8.1061,8.1093,8.1093,8.1093,8.1093,8.1093,8.1093,8.1093,8.1093,8.1093,8.1093,8.1093,8.1093,8.1093,8.1093,8.1093,8.1093,8.1093,8.1093,8.1093,8.1093,8.1093,8.1093,8.1093,8.1093,8.1093,8.1093,8.1093,8.1093,8.1093,8.1093,8.1093,6.5701,6.5833,6.5897,6.5897,6.5897,6.5897,6.5897,6.5897,6.5897,6.5897,6.5897,6.5897,6.5897,6.5897,6.5897,6.5897,6.5897,6.6359,6.7782,6.8244,6.891,7.0225,7.059,7.0723,7.0632,7.0531,7.0483,7.0451,7.0451,7.0435,7.0419,7.0264,7.0196,7.0196,7.0887,7.1833,7.2979,7.466,7.5518,7.5518,7.5518,7.5518,7.5501,7.4942,7.4523,7.4221,7.4221,7.511,7.6521,7.7073,7.8537,8.0506,8.0506,8.0506,8.0468,8.0119,7.9836,7.9665,7.9311,7.9037,7.8841,7.8458,7.8389,7.8389,7.8389,7.8484,7.8665,7.8841,7.9157,7.9471,7.9665,7.9815,8.004,8.0411,8.0616,8.0685,8.0775,8.086,8.0904,8.0959,8.1061,8.1093,8.1093,8.1093,8.1093,8.1093,8.1093,8.1093,8.1093,8.1093,8.1093,8.1093,8.1093,8.1093,8.1093,8.1093,8.1093,8.1093,8.1093,8.1093,8.1093,8.1093,8.1093,8.1093,8.1093,8.1093,8.1093,8.1093,8.1093,8.1093,8.1093,8.1093,0.0,0.0,0.0,6.5897,6.5859,6.5859,6.5859,6.5859,6.5859,6.5859,6.5859,6.5897,6.5897,6.5897,6.5897,6.5897,6.5897,6.6167,6.6974,6.7821,6.8641,6.9418,7.0249,7.0758,7.0723,7.0723,7.0678,7.0623,7.0623,7.0538,7.0419,7.0038,6.9835,6.9835,7.189,7.2979,7.2979,7.466,7.5518,7.5518,7.5518,7.5518,7.5501,7.4961,7.4725,7.4705,7.4725,7.5421,7.6583,7.7095,7.8595,8.0506,8.0506,8.0506,8.0506,8.0506,8.0179,7.973,7.973,7.9381,7.894,7.8915,7.8915,7.8915,7.8915,7.9311,7.9583,7.9085,7.9708,8.0373,7.9874,8.0119,8.0506,8.0506,8.0652,8.0792,8.0792,8.086,8.0959,8.1077,8.1093,8.1093,8.1093,8.1093,8.1093,8.1093,8.1093,8.1093,8.1093,8.1093,8.1093,8.1093,8.1093,8.1093,8.1093,8.1093,8.1093,8.1093,8.1093,8.1093,8.1093,8.1093,8.1093,8.1093,8.1093,8.1093,8.1093,8.1093,8.1093,8.1093,8.1093,8.1093,6.5701,0.0,0.0,0.0,0.0,0.0,6.4974,6.4974,6.4974,6.4974,6.5474,6.5897,6.5897,6.5897,6.5897,6.5897,6.5897,6.6167,6.6974,6.7321,6.8,6.9487,6.9778,7.0081,7.0719,7.0752,7.0708,7.0678,7.0616,7.0569,7.0538,7.0353,7.023,7.023,7.2049,7.2979,7.2979,7.466,7.5518,7.5518,7.5518,7.5518,7.5501,7.5356,7.5076,7.4725,7.5114,7.5949,7.7117,7.7625,7.8885,8.0506,8.0506,8.0506,8.0506,8.0506,8.0392,8.0258,8.0258,8.0179,7.9999,7.9583,7.9471,7.9471,7.9471,7.9561,7.9751,7.9999,8.0258,8.0487,8.0335,8.0392,8.0506,8.0506,8.0652,8.0792,8.0792,8.091,8.1061,8.1093,8.1093,8.1093,8.1093,8.1093,8.1093,8.1093,8.1093,8.1093,8.1093,8.1093,8.1093,8.1093,8.1093,8.1093,8.1093,8.1093,8.1093,8.1093,8.1093,8.1093,8.1093,8.1093,8.1093,8.1093,8.1093,8.1093,8.1093,8.1093,8.1093,8.1093,8.1093,8.1093,6.5646,6.5753,6.5807,6.5846,0.0,0.0,6.5051,6.4859,6.4705,6.5051,6.5551,6.5897,6.5897,6.5897,6.5897,6.5897,6.5897,6.6051,6.6513,6.6898,6.759,6.8975,6.9396,6.9907,7.0752,7.0801,7.0758,7.0729,7.0723,7.0647,7.0585,7.0451,7.0419,7.0419,7.21,7.2979,7.2979,7.466,7.5518,7.5518,7.5518,7.5518,7.5518,7.5518,7.5318,7.5057,7.5374,7.6291,7.7625,7.7893,7.8978,8.0506,8.0506,8.0506,8.0506,8.0506,8.0506,8.0506,8.0506,8.0506,8.043,8.0139,8.002,8.002,8.002,8.002,8.0119,8.0411,8.0506,8.0506,8.0506,8.0506,8.0506,8.0506,8.0652,8.0792,8.0792,8.0965,8.1093,8.1093,8.1093,8.1093,8.1093,8.1093,8.1093,8.1093,8.1093,8.1093,8.1093,8.1093,8.1093,8.1093,8.1093,8.1093,8.1093,8.1093,8.1093,8.1093,8.1093,8.1093,8.1093,8.1093,8.1093,8.1093,8.1093,8.1093,8.1093,8.1093,8.1093,8.1093,8.1093,8.1093,6.5494,6.5632,6.5767,6.578,6.518,0.0,6.5577,6.5166,6.482,6.559,6.582,6.5897,6.5897,6.5897,6.5897,6.5897,6.5897,6.5897,6.5897,6.6513,6.7282,6.8167,6.9052,6.986,7.0706,7.086,7.0871,7.0801,7.0787,7.0752,7.0623,7.0451,7.0457,7.0533,7.2138,7.3055,7.3132,7.4698,7.5518,7.5518,7.5518,7.5518,7.5518,7.5518,7.5518,7.5518,7.5518,7.6456,7.8022,7.8022,7.8978,8.0506,8.0506,8.0506,8.0506,8.0506,8.0506,8.0506,8.0506,8.0506,8.0506,8.0506,8.0506,8.0506,8.0506,8.0506,8.0506,8.0506,8.0506,8.0506,8.0506,8.0506,8.0506,8.0506,8.0652,8.0792,8.0792,8.0965,8.1093,8.1093,8.1093,8.1093,8.1093,8.1093,8.1093,8.1093,8.1093,8.1093,8.1093,8.1093,8.1093,8.1093,8.1093,8.1093,8.1093,8.1093,8.1093,8.1093,8.1093,8.1093,8.1093,8.1093,8.1093,8.1093,8.1093,8.1093,8.1093,8.1093,8.1093,8.1093,8.1093,8.1093,6.5479,6.5523,6.5552,6.5646,6.5062,0.0,6.4731,6.4667,6.4666,6.482,6.5397,6.5897,6.5897,6.5897,6.5897,6.5897,6.5897,6.5897,6.5897,6.6051,6.6436,6.7244,6.8129,6.9013,6.986,7.0514,7.0898,7.0885,7.0772,7.0693,7.0585,7.0451,7.0724,7.1412,7.2444,7.3323,7.3972,7.4966,7.5518,7.5518,7.5518,7.5518,7.5518,7.5518,7.5518,7.5518,7.5518,7.6456,7.8022,7.8022,7.8978,8.0506,8.0506,8.0506,8.0506,8.0506,8.0506,8.0506,8.0506,8.0506,8.0506,8.0506,8.0506,8.0506,8.0506,8.0506,8.0506,8.0506,8.0506,8.0506,8.0506,8.0506,8.0506,8.0506,8.0652,8.0792,8.0792,8.0965,8.1093,8.1093,8.1093,8.1093,8.1093,8.1093,8.1093,8.1093,8.1093,8.1093,8.1093,8.1093,8.1093,8.1093,8.1093,8.1093,8.1093,8.1093,8.1093,8.1093,8.1093,8.1093,8.1093,8.1093,8.1093,8.1093,8.1093,8.1093,8.1093,8.1093,8.1093,8.1093,8.1093,8.1093,6.542,6.5465,6.5509,6.5537,6.4994,0.0,0.0,6.4859,6.4654,6.5154,6.559,6.5897,6.5897,6.5897,6.5897,6.5897,6.5897,6.5897,6.5897,6.5897,6.6205,6.7013,6.7859,6.8744,6.9629,7.0437,7.0898,7.0898,7.0801,7.0737,7.0647,7.0569,7.0888,7.1696,7.2559,7.3399,7.4201,7.5042,7.5518,7.5518,7.5518,7.5518,7.5518,7.5518,7.5518,7.5518,7.5518,7.6456,7.8022,7.8022,7.8978,8.0506,8.0506,8.0506,8.0506,8.0506,8.0506,8.0506,8.0506,8.0506,8.0506,8.0506,8.0506,8.0506,8.0506,8.0506,8.0506,8.0506,8.0506,8.0506,8.0506,8.0506,8.0525,8.0523,8.0688,8.0809,8.0843,8.0959,8.1093,8.1093,8.1093,8.1093,8.1093,8.1093,8.1093,8.1093,8.1093,8.1093,8.1093,8.1093,8.1093,8.1093,8.1093,8.1093,8.1093,8.1093,8.1093,8.1093,8.1093,8.1093,8.1093,8.1093,8.1093,8.1093,8.1093,8.1093,8.1093,8.1093,8.1093,8.1093,8.1093,8.1093,6.5413,6.542,6.5479,6.5479,6.5039,6.4803,0.0,0.0,0.0,6.5705,6.5885,6.5885,6.5897,6.5897,6.5859,6.5667,6.5782,6.582,6.5667,6.5782,6.6128,6.6782,6.7628,6.8475,6.936,7.0321,7.0898,7.0898,7.0829,7.0758,7.0684,7.0785,7.1188,7.1926,7.2788,7.3628,7.4431,7.5157,7.5518,7.5518,7.5518,7.5518,7.5518,7.5518,7.5518,7.5518,7.5518,7.6456,7.8022,7.8022,7.8978,8.0506,8.0506,8.0506,8.0506,8.0506,8.0506,8.0506,8.0506,8.0506,8.0506,8.0506,8.0506,8.0506,8.0506,8.0506,8.0506,8.0506,8.0506,8.0506,8.0506,8.0506,8.0525,8.0596,8.0685,8.0826,8.091,8.0991,8.1093,8.1093,8.1093,8.1093,8.1093,8.1093,8.1093,8.1093,8.1093,8.1093,8.1093,8.1093,8.1093,8.1093,8.1093,8.1093,8.1093,8.1093,8.1093,8.1093,8.1093,8.1093,8.1093,8.1093,8.117,8.1323,8.1323,8.14,8.1593,8.1593,8.1516,8.1323,8.1323,8.14,6.5413,6.5413,6.5429,6.5429,6.5374,6.5394,6.5523,0.0,6.5559,6.5755,0.0,6.582,6.5885,0.0,0.0,6.4859,6.5397,6.5628,6.4859,6.5397,6.5936,6.6013,6.6744,6.759,6.8475,6.9975,7.0898,7.0898,7.0829,7.0758,7.0684,7.1321,7.2046,7.2826,7.3628,7.4469,7.5348,7.5442,7.5518,7.5518,7.5518,7.5518,7.5518,7.5518,7.5518,7.5518,7.5518,7.6456,7.8022,7.8022,7.8978,8.0506,8.0506,8.0506,8.0506,8.0506,8.0506,8.0506,8.0506,8.0506,8.0506,8.0506,8.0506,8.0506,8.0506,8.0506,8.0506,8.0506,8.0506,8.0506,8.0506,8.0506,8.0525,8.0596,8.0685,8.0826,8.091,8.0991,8.1093,8.1093,8.1093,8.1093,8.1093,8.1093,8.1093,8.1093,8.1093,8.1093,8.1093,8.1093,8.1093,8.1093,8.1093,8.1093,8.1093,8.1093,8.1093,8.1093,8.1093,8.1093,8.1093,8.1093,8.1439,8.2131,8.217,8.2554,8.3324,8.3324,8.2901,8.217,8.217,8.2593,6.5413,6.5413,6.5413,6.5413,6.5405,6.5435,6.5494,0.0,6.5566,6.5674,0.0,0.0,0.0,0.0,0.0,0.0,6.5641,6.5782,6.5397,6.5667,6.5897,6.5897,6.659,6.7628,6.9013,7.0165,7.0829,7.0829,7.0772,7.0723,7.0647,7.1366,7.2161,7.2979,7.3781,7.4622,7.548,7.5553,7.5553,7.5518,7.5514,7.5553,7.5518,7.5518,7.5518,7.5556,7.5997,7.6876,7.8061,7.8557,7.9436,8.0506,8.0506,8.0506,8.0506,8.0506,8.0506,8.0506,8.0506,8.0506,8.0506,8.0506,8.0506,8.0506,8.0506,8.0506,8.0506,8.0506,8.0506,8.0506,8.0506,8.0506,8.0543,8.0667,8.0758,8.0826,8.0975,8.1061,8.1093,8.1093,8.1093,8.1093,8.1093,8.1093,8.1093,8.1093,8.1093,8.1093,8.1093,8.1093,8.1093,8.1093,8.1093,8.1093,8.1093,8.1093,8.1093,8.1093,8.1093,8.1323,8.1785,8.1785,8.217,8.3016,8.3054,8.3208,8.3593,8.3593,8.367,8.3785,8.3285,8.3247,6.5834,6.5757,6.5719,6.5452,6.5413,6.539,0.0,0.0,0.0,0.0,6.5566,0.0,0.0,0.0,0.0,0.0,0.0,6.5731,6.5538,6.5692,6.5859,6.5897,6.6808,6.7948,6.9179,7.0186,7.0772,7.0787,7.0729,7.0693,7.0616,7.1596,7.2428,7.2979,7.401,7.4851,7.548,7.5549,7.5549,7.5518,7.5549,7.5549,7.5518,7.5518,7.5518,7.5556,7.6341,7.7182,7.8061,7.8939,7.978,8.0506,8.0543,8.0525,8.0506,8.0506,8.0506,8.0506,8.0506,8.0506,8.0506,8.0506,8.0506,8.0506,8.0506,8.0506,8.0506,8.0506,8.0506,8.0506,8.0506,8.0506,8.0562,8.0758,8.0792,8.0843,8.1061,8.1093,8.1093,8.1093,8.1093,8.1093,8.1093,8.1093,8.1093,8.1093,8.1093,8.1093,8.1093,8.1093,8.1093,8.1093,8.1093,8.1093,8.1093,8.1093,8.1208,8.14,8.1631,8.2054,8.2631,8.267,8.3054,8.3939,8.3939,8.4055,8.4286,8.4286,8.4593,8.5209,8.4362,8.4055,6.6865,6.6674,6.6445,6.5605,6.5413,6.5413,0.0,0.0,6.5405,0.0,0.0,0.0,0.0,0.0,0.0,0.0,0.0,0.0,0.0,6.5109,6.5663,6.5885,6.7293,6.829,6.8328,6.9755,7.0714,7.0787,7.0729,7.0708,7.0708,7.2202,7.3024,7.2979,7.4584,7.5462,7.5518,7.5549,7.5549,7.5518,7.5549,7.5549,7.5518,7.5518,7.5518,7.5556,7.6341,7.7182,7.8061,7.8939,7.978,8.0525,8.0578,8.056,8.0506,8.0506,8.0506,8.0506,8.0506,8.0506,8.0506,8.0506,8.0506,8.0506,8.0506,8.0506,8.0506,8.0506,8.0506,8.0506,8.0506,8.0506,8.0562,8.0758,8.0792,8.0843,8.1061,8.1093,8.1093,8.1093,8.1093,8.1093,8.1093,8.1093,8.1093,8.1093,8.1093,8.1093,8.1093,8.1093,8.1093,8.1093,8.1093,8.1093,8.1093,8.1093,8.1439,8.2208,8.3054,8.3516,8.3555,8.3555,8.3978,8.4863,8.4863,8.5247,8.6017,8.6017,8.6017,8.6055,8.5247,8.5286,6.7553,6.7477,6.74,6.7133,6.7056,0.0,0.0,0.0,0.0,0.0,0.0,0.0,0.0,0.0,0.0,0.0,0.0,0.0,0.0,6.5441,6.5622,6.5715,6.7198,6.822,6.822,6.9681,7.0632,7.0662,7.0547,7.0499,7.0499,7.2128,7.3012,7.2979,7.4622,7.5535,7.5549,7.5649,7.5649,7.5549,7.5649,7.5616,7.5518,7.5518,7.5768,7.6341,7.7182,7.8061,7.8901,7.9742,8.0238,8.0506,8.0505,8.0543,8.0525,8.0542,8.0523,8.0506,8.0506,8.0506,8.0506,8.0506,8.0506,8.0506,8.0506,8.0506,8.0506,8.0506,8.0506,8.0506,8.0506,8.0506,8.0562,8.0758,8.0792,8.0843,8.1061,8.1093,8.1093,8.1093,8.1093,8.1093,8.1093,8.1093,8.1093,8.1093,8.1093,8.1093,8.1093,8.1093,8.1093,8.1093,8.1093,8.1093,8.1093,8.1593,8.2247,8.3093,8.3439,8.3862,8.4439,8.4478,8.4863,8.567,8.5709,8.5824,8.6094,8.6094,8.6094,8.6094,8.5824,8.5863,6.8432,6.8356,0.0,6.7973,6.7897,0.0,6.7897,0.0,6.7744,0.0,0.0,0.0,0.0,0.0,0.0,0.0,0.0,0.0,0.0,6.5523,6.5523,6.5523,6.7084,6.8133,6.8133,6.9621,7.0623,7.0623,7.0522,7.0451,7.0451,7.2078,7.2979,7.2979,7.4656,7.5549,7.5599,7.5715,7.5715,7.5599,7.566,7.5649,7.5518,7.5518,7.5921,7.6761,7.764,7.8481,7.9378,8.0162,8.0525,8.0523,8.0598,8.0598,8.0523,8.056,8.0523,8.0506,8.0506,8.0506,8.0506,8.0506,8.0506,8.0506,8.0506,8.0506,8.0506,8.0506,8.0506,8.0506,8.0506,8.0506,8.0562,8.0758,8.0792,8.0843,8.1061,8.1093,8.1093,8.1093,8.1093,8.1093,8.1093,8.1093,8.1093,8.1093,8.1093,8.1093,8.1093,8.1093,8.1093,8.1093,8.1093,8.1208,8.1516,8.2554,8.3478,8.4016,8.4324,8.4747,8.5286,8.5324,8.544,8.567,8.594,8.5978,8.567,8.5978,8.6094,8.6094,8.6094,8.6094]}]]